<?xml version="1.0" encoding="UTF-8" standalone="no" ?>
<gpx xmlns="http://www.topografix.com/GPX/1/1" xmlns:xsi="http://www.w3.org/2001/XMLSchema-instance" xsi:schemaLocation="http://www.topografix.com/GPX/1/1 http://www.topografix.com/GPX/1/1/gpx.xsd" version="1.1" creator="VisuGPX - https://www.visugpx.com">
  <metadata>
    <name>11294803-La Bourboule - Le Mont-Dore</name>
  </metadata>
  <trk>
    <name><![CDATA[11294803-La Bourboule - Le Mont-Dore]]></name>
    <trkseg>
      <trkpt lat="45.39797" lon="2.56145">
        <ele>501</ele>
        <time>2020-05-15T13:06:32Z</time>
      </trkpt>
      <trkpt lat="45.39813" lon="2.56166">
        <ele>501</ele>
        <time>2020-05-15T13:06:39Z</time>
      </trkpt>
      <trkpt lat="45.39915" lon="2.56196">
        <ele>507</ele>
        <time>2020-05-15T13:07:14Z</time>
      </trkpt>
      <trkpt lat="45.39927" lon="2.56203">
        <ele>510</ele>
        <time>2020-05-15T13:07:18Z</time>
      </trkpt>
      <trkpt lat="45.39938" lon="2.56215">
        <ele>512</ele>
        <time>2020-05-15T13:07:23Z</time>
      </trkpt>
      <trkpt lat="45.39955" lon="2.56252">
        <ele>517</ele>
        <time>2020-05-15T13:07:33Z</time>
      </trkpt>
      <trkpt lat="45.39965" lon="2.5629">
        <ele>520</ele>
        <time>2020-05-15T13:07:43Z</time>
      </trkpt>
      <trkpt lat="45.39974" lon="2.56304">
        <ele>522</ele>
        <time>2020-05-15T13:07:47Z</time>
      </trkpt>
      <trkpt lat="45.39976" lon="2.56295">
        <ele>523</ele>
        <time>2020-05-15T13:07:49Z</time>
      </trkpt>
      <trkpt lat="45.39981" lon="2.56203">
        <ele>525</ele>
        <time>2020-05-15T13:08:11Z</time>
      </trkpt>
      <trkpt lat="45.3999" lon="2.56168">
        <ele>527</ele>
        <time>2020-05-15T13:08:20Z</time>
      </trkpt>
      <trkpt lat="45.40001" lon="2.56106">
        <ele>529</ele>
        <time>2020-05-15T13:08:35Z</time>
      </trkpt>
      <trkpt lat="45.40017" lon="2.56041">
        <ele>530</ele>
        <time>2020-05-15T13:08:51Z</time>
      </trkpt>
      <trkpt lat="45.40032" lon="2.56009">
        <ele>530</ele>
        <time>2020-05-15T13:09:00Z</time>
      </trkpt>
      <trkpt lat="45.40061" lon="2.55976">
        <ele>530</ele>
        <time>2020-05-15T13:09:12Z</time>
      </trkpt>
      <trkpt lat="45.40167" lon="2.55918">
        <ele>532</ele>
        <time>2020-05-15T13:09:50Z</time>
      </trkpt>
      <trkpt lat="45.40209" lon="2.55902">
        <ele>530</ele>
        <time>2020-05-15T13:10:05Z</time>
      </trkpt>
      <trkpt lat="45.40244" lon="2.55901">
        <ele>531</ele>
        <time>2020-05-15T13:10:16Z</time>
      </trkpt>
      <trkpt lat="45.40275" lon="2.55919">
        <ele>534</ele>
        <time>2020-05-15T13:10:28Z</time>
      </trkpt>
      <trkpt lat="45.40344" lon="2.55933">
        <ele>536</ele>
        <time>2020-05-15T13:10:51Z</time>
      </trkpt>
      <trkpt lat="45.4041" lon="2.55928">
        <ele>534</ele>
        <time>2020-05-15T13:11:13Z</time>
      </trkpt>
      <trkpt lat="45.40465" lon="2.55928">
        <ele>535</ele>
        <time>2020-05-15T13:11:31Z</time>
      </trkpt>
      <trkpt lat="45.40501" lon="2.55945">
        <ele>538</ele>
        <time>2020-05-15T13:11:44Z</time>
      </trkpt>
      <trkpt lat="45.40616" lon="2.56019">
        <ele>542</ele>
        <time>2020-05-15T13:12:26Z</time>
      </trkpt>
      <trkpt lat="45.40692" lon="2.56051">
        <ele>542</ele>
        <time>2020-05-15T13:12:52Z</time>
      </trkpt>
      <trkpt lat="45.40751" lon="2.56087">
        <ele>544</ele>
        <time>2020-05-15T13:13:14Z</time>
      </trkpt>
      <trkpt lat="45.40766" lon="2.56094">
        <ele>544</ele>
        <time>2020-05-15T13:13:19Z</time>
      </trkpt>
      <trkpt lat="45.40782" lon="2.56096">
        <ele>544</ele>
        <time>2020-05-15T13:13:24Z</time>
      </trkpt>
      <trkpt lat="45.40799" lon="2.56085">
        <ele>543</ele>
        <time>2020-05-15T13:13:31Z</time>
      </trkpt>
      <trkpt lat="45.40811" lon="2.56067">
        <ele>541</ele>
        <time>2020-05-15T13:13:36Z</time>
      </trkpt>
      <trkpt lat="45.40822" lon="2.56044">
        <ele>540</ele>
        <time>2020-05-15T13:13:43Z</time>
      </trkpt>
      <trkpt lat="45.40833" lon="2.5601">
        <ele>538</ele>
        <time>2020-05-15T13:13:52Z</time>
      </trkpt>
      <trkpt lat="45.40841" lon="2.55945">
        <ele>537</ele>
        <time>2020-05-15T13:14:07Z</time>
      </trkpt>
      <trkpt lat="45.40849" lon="2.55921">
        <ele>536</ele>
        <time>2020-05-15T13:14:13Z</time>
      </trkpt>
      <trkpt lat="45.40862" lon="2.55897">
        <ele>535</ele>
        <time>2020-05-15T13:14:21Z</time>
      </trkpt>
      <trkpt lat="45.40873" lon="2.55886">
        <ele>535</ele>
        <time>2020-05-15T13:14:25Z</time>
      </trkpt>
      <trkpt lat="45.40902" lon="2.5587">
        <ele>534</ele>
        <time>2020-05-15T13:14:35Z</time>
      </trkpt>
      <trkpt lat="45.40924" lon="2.55866">
        <ele>533</ele>
        <time>2020-05-15T13:14:43Z</time>
      </trkpt>
      <trkpt lat="45.40943" lon="2.55867">
        <ele>533</ele>
        <time>2020-05-15T13:14:49Z</time>
      </trkpt>
      <trkpt lat="45.41043" lon="2.55888">
        <ele>535</ele>
        <time>2020-05-15T13:15:23Z</time>
      </trkpt>
      <trkpt lat="45.41064" lon="2.55884">
        <ele>535</ele>
        <time>2020-05-15T13:15:30Z</time>
      </trkpt>
      <trkpt lat="45.41091" lon="2.55871">
        <ele>534</ele>
        <time>2020-05-15T13:15:39Z</time>
      </trkpt>
      <trkpt lat="45.41126" lon="2.55855">
        <ele>535</ele>
        <time>2020-05-15T13:15:52Z</time>
      </trkpt>
      <trkpt lat="45.41159" lon="2.55844">
        <ele>537</ele>
        <time>2020-05-15T13:16:03Z</time>
      </trkpt>
      <trkpt lat="45.41181" lon="2.55842">
        <ele>539</ele>
        <time>2020-05-15T13:16:10Z</time>
      </trkpt>
      <trkpt lat="45.41391" lon="2.55893">
        <ele>559</ele>
        <time>2020-05-15T13:17:21Z</time>
      </trkpt>
      <trkpt lat="45.41423" lon="2.55896">
        <ele>562</ele>
        <time>2020-05-15T13:17:32Z</time>
      </trkpt>
      <trkpt lat="45.41459" lon="2.55883">
        <ele>568</ele>
        <time>2020-05-15T13:17:45Z</time>
      </trkpt>
      <trkpt lat="45.41521" lon="2.55774">
        <ele>577</ele>
        <time>2020-05-15T13:18:17Z</time>
      </trkpt>
      <trkpt lat="45.41521" lon="2.55718">
        <ele>580</ele>
        <time>2020-05-15T13:18:31Z</time>
      </trkpt>
      <trkpt lat="45.41513" lon="2.55639">
        <ele>584</ele>
        <time>2020-05-15T13:18:49Z</time>
      </trkpt>
      <trkpt lat="45.41501" lon="2.55596">
        <ele>583</ele>
        <time>2020-05-15T13:19:00Z</time>
      </trkpt>
      <trkpt lat="45.41482" lon="2.55564">
        <ele>586</ele>
        <time>2020-05-15T13:19:10Z</time>
      </trkpt>
      <trkpt lat="45.41451" lon="2.55542">
        <ele>588</ele>
        <time>2020-05-15T13:19:21Z</time>
      </trkpt>
      <trkpt lat="45.41416" lon="2.55532">
        <ele>590</ele>
        <time>2020-05-15T13:19:33Z</time>
      </trkpt>
      <trkpt lat="45.41329" lon="2.55537">
        <ele>589</ele>
        <time>2020-05-15T13:20:02Z</time>
      </trkpt>
      <trkpt lat="45.41267" lon="2.55497">
        <ele>593</ele>
        <time>2020-05-15T13:20:25Z</time>
      </trkpt>
      <trkpt lat="45.41227" lon="2.55441">
        <ele>596</ele>
        <time>2020-05-15T13:20:44Z</time>
      </trkpt>
      <trkpt lat="45.41204" lon="2.55367">
        <ele>598</ele>
        <time>2020-05-15T13:21:03Z</time>
      </trkpt>
      <trkpt lat="45.41199" lon="2.55277">
        <ele>602</ele>
        <time>2020-05-15T13:21:24Z</time>
      </trkpt>
      <trkpt lat="45.41211" lon="2.55208">
        <ele>606</ele>
        <time>2020-05-15T13:21:41Z</time>
      </trkpt>
      <trkpt lat="45.4127" lon="2.55062">
        <ele>612</ele>
        <time>2020-05-15T13:22:20Z</time>
      </trkpt>
      <trkpt lat="45.41279" lon="2.55006">
        <ele>612</ele>
        <time>2020-05-15T13:22:33Z</time>
      </trkpt>
      <trkpt lat="45.41291" lon="2.54921">
        <ele>615</ele>
        <time>2020-05-15T13:22:54Z</time>
      </trkpt>
      <trkpt lat="45.41311" lon="2.54786">
        <ele>619</ele>
        <time>2020-05-15T13:23:26Z</time>
      </trkpt>
      <trkpt lat="45.41326" lon="2.54729">
        <ele>620</ele>
        <time>2020-05-15T13:23:40Z</time>
      </trkpt>
      <trkpt lat="45.41332" lon="2.54706">
        <ele>620</ele>
        <time>2020-05-15T13:23:46Z</time>
      </trkpt>
      <trkpt lat="45.41368" lon="2.54602">
        <ele>621</ele>
        <time>2020-05-15T13:24:13Z</time>
      </trkpt>
      <trkpt lat="45.41396" lon="2.54561">
        <ele>623</ele>
        <time>2020-05-15T13:24:27Z</time>
      </trkpt>
      <trkpt lat="45.41633" lon="2.54324">
        <ele>634</ele>
        <time>2020-05-15T13:26:03Z</time>
      </trkpt>
      <trkpt lat="45.41664" lon="2.54301">
        <ele>634</ele>
        <time>2020-05-15T13:26:15Z</time>
      </trkpt>
      <trkpt lat="45.41755" lon="2.54253">
        <ele>636</ele>
        <time>2020-05-15T13:26:47Z</time>
      </trkpt>
      <trkpt lat="45.41779" lon="2.54233">
        <ele>636</ele>
        <time>2020-05-15T13:26:57Z</time>
      </trkpt>
      <trkpt lat="45.41824" lon="2.54162">
        <ele>638</ele>
        <time>2020-05-15T13:27:19Z</time>
      </trkpt>
      <trkpt lat="45.41899" lon="2.53963">
        <ele>651</ele>
        <time>2020-05-15T13:28:12Z</time>
      </trkpt>
      <trkpt lat="45.41935" lon="2.53906">
        <ele>652</ele>
        <time>2020-05-15T13:28:30Z</time>
      </trkpt>
      <trkpt lat="45.41968" lon="2.53874">
        <ele>654</ele>
        <time>2020-05-15T13:28:43Z</time>
      </trkpt>
      <trkpt lat="45.42054" lon="2.53819">
        <ele>657</ele>
        <time>2020-05-15T13:29:15Z</time>
      </trkpt>
      <trkpt lat="45.42102" lon="2.53808">
        <ele>656</ele>
        <time>2020-05-15T13:29:31Z</time>
      </trkpt>
      <trkpt lat="45.42139" lon="2.53799">
        <ele>653</ele>
        <time>2020-05-15T13:29:43Z</time>
      </trkpt>
      <trkpt lat="45.42176" lon="2.53787">
        <ele>649</ele>
        <time>2020-05-15T13:29:56Z</time>
      </trkpt>
      <trkpt lat="45.42231" lon="2.53744">
        <ele>641</ele>
        <time>2020-05-15T13:30:17Z</time>
      </trkpt>
      <trkpt lat="45.42374" lon="2.53631">
        <ele>637</ele>
        <time>2020-05-15T13:31:11Z</time>
      </trkpt>
      <trkpt lat="45.42431" lon="2.53607">
        <ele>630</ele>
        <time>2020-05-15T13:31:31Z</time>
      </trkpt>
      <trkpt lat="45.42522" lon="2.5354">
        <ele>628</ele>
        <time>2020-05-15T13:32:05Z</time>
      </trkpt>
      <trkpt lat="45.4273" lon="2.53465">
        <ele>632</ele>
        <time>2020-05-15T13:33:17Z</time>
      </trkpt>
      <trkpt lat="45.42751" lon="2.53459">
        <ele>633</ele>
        <time>2020-05-15T13:33:24Z</time>
      </trkpt>
      <trkpt lat="45.42874" lon="2.53463">
        <ele>636</ele>
        <time>2020-05-15T13:34:05Z</time>
      </trkpt>
      <trkpt lat="45.42903" lon="2.53452">
        <ele>635</ele>
        <time>2020-05-15T13:34:15Z</time>
      </trkpt>
      <trkpt lat="45.42939" lon="2.53447">
        <ele>632</ele>
        <time>2020-05-15T13:34:27Z</time>
      </trkpt>
      <trkpt lat="45.42949" lon="2.53444">
        <ele>631</ele>
        <time>2020-05-15T13:34:31Z</time>
      </trkpt>
      <trkpt lat="45.42982" lon="2.53436">
        <ele>627</ele>
        <time>2020-05-15T13:34:42Z</time>
      </trkpt>
      <trkpt lat="45.4302" lon="2.53432">
        <ele>625</ele>
        <time>2020-05-15T13:34:55Z</time>
      </trkpt>
      <trkpt lat="45.431" lon="2.53456">
        <ele>625</ele>
        <time>2020-05-15T13:35:22Z</time>
      </trkpt>
      <trkpt lat="45.4325" lon="2.53545">
        <ele>632</ele>
        <time>2020-05-15T13:36:16Z</time>
      </trkpt>
      <trkpt lat="45.43273" lon="2.5355">
        <ele>634</ele>
        <time>2020-05-15T13:36:24Z</time>
      </trkpt>
      <trkpt lat="45.43302" lon="2.53541">
        <ele>636</ele>
        <time>2020-05-15T13:36:34Z</time>
      </trkpt>
      <trkpt lat="45.43408" lon="2.53465">
        <ele>633</ele>
        <time>2020-05-15T13:37:13Z</time>
      </trkpt>
      <trkpt lat="45.43414" lon="2.53474">
        <ele>634</ele>
        <time>2020-05-15T13:37:16Z</time>
      </trkpt>
      <trkpt lat="45.43422" lon="2.5348">
        <ele>635</ele>
        <time>2020-05-15T13:37:19Z</time>
      </trkpt>
      <trkpt lat="45.43435" lon="2.53485">
        <ele>635</ele>
        <time>2020-05-15T13:37:24Z</time>
      </trkpt>
      <trkpt lat="45.43504" lon="2.53481">
        <ele>635</ele>
        <time>2020-05-15T13:37:47Z</time>
      </trkpt>
      <trkpt lat="45.43559" lon="2.53493">
        <ele>638</ele>
        <time>2020-05-15T13:38:05Z</time>
      </trkpt>
      <trkpt lat="45.43577" lon="2.53495">
        <ele>639</ele>
        <time>2020-05-15T13:38:11Z</time>
      </trkpt>
      <trkpt lat="45.43603" lon="2.5349">
        <ele>640</ele>
        <time>2020-05-15T13:38:20Z</time>
      </trkpt>
      <trkpt lat="45.43635" lon="2.53479">
        <ele>641</ele>
        <time>2020-05-15T13:38:31Z</time>
      </trkpt>
      <trkpt lat="45.43643" lon="2.53476">
        <ele>641</ele>
        <time>2020-05-15T13:38:34Z</time>
      </trkpt>
      <trkpt lat="45.43652" lon="2.53466">
        <ele>641</ele>
        <time>2020-05-15T13:38:38Z</time>
      </trkpt>
      <trkpt lat="45.43659" lon="2.53458">
        <ele>641</ele>
        <time>2020-05-15T13:38:41Z</time>
      </trkpt>
      <trkpt lat="45.43665" lon="2.53449">
        <ele>641</ele>
        <time>2020-05-15T13:38:44Z</time>
      </trkpt>
      <trkpt lat="45.4367" lon="2.5344">
        <ele>641</ele>
        <time>2020-05-15T13:38:46Z</time>
      </trkpt>
      <trkpt lat="45.4368" lon="2.53415">
        <ele>641</ele>
        <time>2020-05-15T13:38:53Z</time>
      </trkpt>
      <trkpt lat="45.43684" lon="2.53406">
        <ele>641</ele>
        <time>2020-05-15T13:38:55Z</time>
      </trkpt>
      <trkpt lat="45.43689" lon="2.53401">
        <ele>640</ele>
        <time>2020-05-15T13:38:57Z</time>
      </trkpt>
      <trkpt lat="45.43698" lon="2.53396">
        <ele>640</ele>
        <time>2020-05-15T13:39:01Z</time>
      </trkpt>
      <trkpt lat="45.43705" lon="2.53396">
        <ele>640</ele>
        <time>2020-05-15T13:39:03Z</time>
      </trkpt>
      <trkpt lat="45.43741" lon="2.5341">
        <ele>640</ele>
        <time>2020-05-15T13:39:15Z</time>
      </trkpt>
      <trkpt lat="45.43749" lon="2.53418">
        <ele>640</ele>
        <time>2020-05-15T13:39:19Z</time>
      </trkpt>
      <trkpt lat="45.43791" lon="2.53457">
        <ele>641</ele>
        <time>2020-05-15T13:39:35Z</time>
      </trkpt>
      <trkpt lat="45.43814" lon="2.53478">
        <ele>642</ele>
        <time>2020-05-15T13:39:45Z</time>
      </trkpt>
      <trkpt lat="45.43817" lon="2.5348">
        <ele>642</ele>
        <time>2020-05-15T13:39:46Z</time>
      </trkpt>
      <trkpt lat="45.43829" lon="2.53485">
        <ele>643</ele>
        <time>2020-05-15T13:39:50Z</time>
      </trkpt>
      <trkpt lat="45.43842" lon="2.53488">
        <ele>643</ele>
        <time>2020-05-15T13:39:54Z</time>
      </trkpt>
      <trkpt lat="45.43867" lon="2.53485">
        <ele>644</ele>
        <time>2020-05-15T13:40:03Z</time>
      </trkpt>
      <trkpt lat="45.4392" lon="2.53464">
        <ele>643</ele>
        <time>2020-05-15T13:40:21Z</time>
      </trkpt>
      <trkpt lat="45.43937" lon="2.53461">
        <ele>643</ele>
        <time>2020-05-15T13:40:27Z</time>
      </trkpt>
      <trkpt lat="45.43953" lon="2.53462">
        <ele>644</ele>
        <time>2020-05-15T13:40:32Z</time>
      </trkpt>
      <trkpt lat="45.43971" lon="2.53467">
        <ele>644</ele>
        <time>2020-05-15T13:40:38Z</time>
      </trkpt>
      <trkpt lat="45.44" lon="2.53478">
        <ele>645</ele>
        <time>2020-05-15T13:40:48Z</time>
      </trkpt>
      <trkpt lat="45.44014" lon="2.53479">
        <ele>646</ele>
        <time>2020-05-15T13:40:53Z</time>
      </trkpt>
      <trkpt lat="45.44038" lon="2.5347">
        <ele>646</ele>
        <time>2020-05-15T13:41:01Z</time>
      </trkpt>
      <trkpt lat="45.44185" lon="2.53381">
        <ele>648</ele>
        <time>2020-05-15T13:41:54Z</time>
      </trkpt>
      <trkpt lat="45.4419" lon="2.53378">
        <ele>648</ele>
        <time>2020-05-15T13:41:56Z</time>
      </trkpt>
      <trkpt lat="45.44203" lon="2.53411">
        <ele>648</ele>
        <time>2020-05-15T13:42:05Z</time>
      </trkpt>
      <trkpt lat="45.4425" lon="2.53527">
        <ele>651</ele>
        <time>2020-05-15T13:42:36Z</time>
      </trkpt>
      <trkpt lat="45.44274" lon="2.53585">
        <ele>652</ele>
        <time>2020-05-15T13:42:52Z</time>
      </trkpt>
      <trkpt lat="45.44295" lon="2.53638">
        <ele>653</ele>
        <time>2020-05-15T13:43:06Z</time>
      </trkpt>
      <trkpt lat="45.44316" lon="2.53697">
        <ele>654</ele>
        <time>2020-05-15T13:43:22Z</time>
      </trkpt>
      <trkpt lat="45.44321" lon="2.53714">
        <ele>653</ele>
        <time>2020-05-15T13:43:26Z</time>
      </trkpt>
      <trkpt lat="45.44323" lon="2.53726">
        <ele>653</ele>
        <time>2020-05-15T13:43:29Z</time>
      </trkpt>
      <trkpt lat="45.44333" lon="2.53776">
        <ele>652</ele>
        <time>2020-05-15T13:43:41Z</time>
      </trkpt>
      <trkpt lat="45.44338" lon="2.53796">
        <ele>651</ele>
        <time>2020-05-15T13:43:46Z</time>
      </trkpt>
      <trkpt lat="45.4435" lon="2.53834">
        <ele>650</ele>
        <time>2020-05-15T13:43:56Z</time>
      </trkpt>
      <trkpt lat="45.44366" lon="2.53881">
        <ele>648</ele>
        <time>2020-05-15T13:44:08Z</time>
      </trkpt>
      <trkpt lat="45.44381" lon="2.53921">
        <ele>645</ele>
        <time>2020-05-15T13:44:19Z</time>
      </trkpt>
      <trkpt lat="45.44394" lon="2.53945">
        <ele>643</ele>
        <time>2020-05-15T13:44:26Z</time>
      </trkpt>
      <trkpt lat="45.4441" lon="2.53972">
        <ele>641</ele>
        <time>2020-05-15T13:44:34Z</time>
      </trkpt>
      <trkpt lat="45.44448" lon="2.54018">
        <ele>636</ele>
        <time>2020-05-15T13:44:51Z</time>
      </trkpt>
      <trkpt lat="45.44493" lon="2.54051">
        <ele>632</ele>
        <time>2020-05-15T13:45:08Z</time>
      </trkpt>
      <trkpt lat="45.44524" lon="2.54066">
        <ele>632</ele>
        <time>2020-05-15T13:45:19Z</time>
      </trkpt>
      <trkpt lat="45.44567" lon="2.54087">
        <ele>638</ele>
        <time>2020-05-15T13:45:34Z</time>
      </trkpt>
      <trkpt lat="45.44587" lon="2.54098">
        <ele>640</ele>
        <time>2020-05-15T13:45:41Z</time>
      </trkpt>
      <trkpt lat="45.44624" lon="2.54121">
        <ele>643</ele>
        <time>2020-05-15T13:45:54Z</time>
      </trkpt>
      <trkpt lat="45.44652" lon="2.54144">
        <ele>646</ele>
        <time>2020-05-15T13:46:05Z</time>
      </trkpt>
      <trkpt lat="45.44824" lon="2.54309">
        <ele>651</ele>
        <time>2020-05-15T13:47:14Z</time>
      </trkpt>
      <trkpt lat="45.44846" lon="2.54333">
        <ele>651</ele>
        <time>2020-05-15T13:47:24Z</time>
      </trkpt>
      <trkpt lat="45.44861" lon="2.54355">
        <ele>651</ele>
        <time>2020-05-15T13:47:31Z</time>
      </trkpt>
      <trkpt lat="45.44911" lon="2.54439">
        <ele>654</ele>
        <time>2020-05-15T13:47:57Z</time>
      </trkpt>
      <trkpt lat="45.44967" lon="2.54536">
        <ele>654</ele>
        <time>2020-05-15T13:48:26Z</time>
      </trkpt>
      <trkpt lat="45.45013" lon="2.54615">
        <ele>653</ele>
        <time>2020-05-15T13:48:50Z</time>
      </trkpt>
      <trkpt lat="45.45053" lon="2.54689">
        <ele>656</ele>
        <time>2020-05-15T13:49:12Z</time>
      </trkpt>
      <trkpt lat="45.45061" lon="2.54704">
        <ele>656</ele>
        <time>2020-05-15T13:49:16Z</time>
      </trkpt>
      <trkpt lat="45.45075" lon="2.54731">
        <ele>656</ele>
        <time>2020-05-15T13:49:24Z</time>
      </trkpt>
      <trkpt lat="45.45086" lon="2.54754">
        <ele>656</ele>
        <time>2020-05-15T13:49:31Z</time>
      </trkpt>
      <trkpt lat="45.45095" lon="2.54772">
        <ele>657</ele>
        <time>2020-05-15T13:49:36Z</time>
      </trkpt>
      <trkpt lat="45.45131" lon="2.54849">
        <ele>656</ele>
        <time>2020-05-15T13:49:58Z</time>
      </trkpt>
      <trkpt lat="45.45152" lon="2.54896">
        <ele>655</ele>
        <time>2020-05-15T13:50:11Z</time>
      </trkpt>
      <trkpt lat="45.45193" lon="2.54986">
        <ele>653</ele>
        <time>2020-05-15T13:50:36Z</time>
      </trkpt>
      <trkpt lat="45.45209" lon="2.55016">
        <ele>653</ele>
        <time>2020-05-15T13:50:44Z</time>
      </trkpt>
      <trkpt lat="45.45219" lon="2.55035">
        <ele>652</ele>
        <time>2020-05-15T13:50:50Z</time>
      </trkpt>
      <trkpt lat="45.45227" lon="2.55049">
        <ele>652</ele>
        <time>2020-05-15T13:50:54Z</time>
      </trkpt>
      <trkpt lat="45.45248" lon="2.55084">
        <ele>650</ele>
        <time>2020-05-15T13:51:05Z</time>
      </trkpt>
      <trkpt lat="45.45254" lon="2.55092">
        <ele>650</ele>
        <time>2020-05-15T13:51:08Z</time>
      </trkpt>
      <trkpt lat="45.45272" lon="2.55116">
        <ele>649</ele>
        <time>2020-05-15T13:51:16Z</time>
      </trkpt>
      <trkpt lat="45.45299" lon="2.55148">
        <ele>647</ele>
        <time>2020-05-15T13:51:28Z</time>
      </trkpt>
      <trkpt lat="45.45308" lon="2.55159">
        <ele>646</ele>
        <time>2020-05-15T13:51:32Z</time>
      </trkpt>
      <trkpt lat="45.45381" lon="2.55243">
        <ele>642</ele>
        <time>2020-05-15T13:52:03Z</time>
      </trkpt>
      <trkpt lat="45.45398" lon="2.55263">
        <ele>642</ele>
        <time>2020-05-15T13:52:10Z</time>
      </trkpt>
      <trkpt lat="45.45414" lon="2.55278">
        <ele>641</ele>
        <time>2020-05-15T13:52:17Z</time>
      </trkpt>
      <trkpt lat="45.45432" lon="2.55294">
        <ele>641</ele>
        <time>2020-05-15T13:52:24Z</time>
      </trkpt>
      <trkpt lat="45.45448" lon="2.55305">
        <ele>642</ele>
        <time>2020-05-15T13:52:30Z</time>
      </trkpt>
      <trkpt lat="45.45455" lon="2.55309">
        <ele>642</ele>
        <time>2020-05-15T13:52:32Z</time>
      </trkpt>
      <trkpt lat="45.45492" lon="2.55332">
        <ele>643</ele>
        <time>2020-05-15T13:52:46Z</time>
      </trkpt>
      <trkpt lat="45.45518" lon="2.55345">
        <ele>645</ele>
        <time>2020-05-15T13:52:55Z</time>
      </trkpt>
      <trkpt lat="45.45544" lon="2.55356">
        <ele>647</ele>
        <time>2020-05-15T13:53:04Z</time>
      </trkpt>
      <trkpt lat="45.45572" lon="2.55366">
        <ele>650</ele>
        <time>2020-05-15T13:53:14Z</time>
      </trkpt>
      <trkpt lat="45.45572" lon="2.55372">
        <ele>649</ele>
        <time>2020-05-15T13:53:15Z</time>
      </trkpt>
      <trkpt lat="45.45573" lon="2.55382">
        <ele>649</ele>
        <time>2020-05-15T13:53:17Z</time>
      </trkpt>
      <trkpt lat="45.45628" lon="2.55465">
        <ele>653</ele>
        <time>2020-05-15T13:53:44Z</time>
      </trkpt>
      <trkpt lat="45.45645" lon="2.55505">
        <ele>653</ele>
        <time>2020-05-15T13:53:55Z</time>
      </trkpt>
      <trkpt lat="45.45653" lon="2.55519">
        <ele>654</ele>
        <time>2020-05-15T13:53:59Z</time>
      </trkpt>
      <trkpt lat="45.45665" lon="2.55528">
        <ele>655</ele>
        <time>2020-05-15T13:54:04Z</time>
      </trkpt>
      <trkpt lat="45.45779" lon="2.55562">
        <ele>663</ele>
        <time>2020-05-15T13:54:43Z</time>
      </trkpt>
      <trkpt lat="45.45793" lon="2.55562">
        <ele>665</ele>
        <time>2020-05-15T13:54:47Z</time>
      </trkpt>
      <trkpt lat="45.45822" lon="2.55558">
        <ele>667</ele>
        <time>2020-05-15T13:54:57Z</time>
      </trkpt>
      <trkpt lat="45.45831" lon="2.55561">
        <ele>668</ele>
        <time>2020-05-15T13:55:00Z</time>
      </trkpt>
      <trkpt lat="45.45839" lon="2.55568">
        <ele>668</ele>
        <time>2020-05-15T13:55:03Z</time>
      </trkpt>
      <trkpt lat="45.45847" lon="2.55582">
        <ele>667</ele>
        <time>2020-05-15T13:55:07Z</time>
      </trkpt>
      <trkpt lat="45.4591" lon="2.55701">
        <ele>663</ele>
        <time>2020-05-15T13:55:42Z</time>
      </trkpt>
      <trkpt lat="45.45973" lon="2.55794">
        <ele>663</ele>
        <time>2020-05-15T13:56:13Z</time>
      </trkpt>
      <trkpt lat="45.45998" lon="2.55837">
        <ele>663</ele>
        <time>2020-05-15T13:56:26Z</time>
      </trkpt>
      <trkpt lat="45.46018" lon="2.55886">
        <ele>663</ele>
        <time>2020-05-15T13:56:39Z</time>
      </trkpt>
      <trkpt lat="45.46049" lon="2.55953">
        <ele>665</ele>
        <time>2020-05-15T13:56:58Z</time>
      </trkpt>
      <trkpt lat="45.46076" lon="2.55998">
        <ele>666</ele>
        <time>2020-05-15T13:57:12Z</time>
      </trkpt>
      <trkpt lat="45.46121" lon="2.56088">
        <ele>671</ele>
        <time>2020-05-15T13:57:37Z</time>
      </trkpt>
      <trkpt lat="45.46169" lon="2.56217">
        <ele>676</ele>
        <time>2020-05-15T13:58:12Z</time>
      </trkpt>
      <trkpt lat="45.46198" lon="2.56287">
        <ele>677</ele>
        <time>2020-05-15T13:58:31Z</time>
      </trkpt>
      <trkpt lat="45.46243" lon="2.56382">
        <ele>678</ele>
        <time>2020-05-15T13:58:57Z</time>
      </trkpt>
      <trkpt lat="45.463" lon="2.56575">
        <ele>674</ele>
        <time>2020-05-15T13:59:46Z</time>
      </trkpt>
      <trkpt lat="45.46343" lon="2.56924">
        <ele>682</ele>
        <time>2020-05-15T14:01:09Z</time>
      </trkpt>
      <trkpt lat="45.46355" lon="2.57064">
        <ele>683</ele>
        <time>2020-05-15T14:01:42Z</time>
      </trkpt>
      <trkpt lat="45.46352" lon="2.57096">
        <ele>681</ele>
        <time>2020-05-15T14:01:50Z</time>
      </trkpt>
      <trkpt lat="45.46343" lon="2.57122">
        <ele>680</ele>
        <time>2020-05-15T14:01:57Z</time>
      </trkpt>
      <trkpt lat="45.46327" lon="2.57133">
        <ele>679</ele>
        <time>2020-05-15T14:02:03Z</time>
      </trkpt>
      <trkpt lat="45.46311" lon="2.57144">
        <ele>681</ele>
        <time>2020-05-15T14:02:09Z</time>
      </trkpt>
      <trkpt lat="45.46299" lon="2.57153">
        <ele>682</ele>
        <time>2020-05-15T14:02:13Z</time>
      </trkpt>
      <trkpt lat="45.46282" lon="2.57184">
        <ele>682</ele>
        <time>2020-05-15T14:02:22Z</time>
      </trkpt>
      <trkpt lat="45.46262" lon="2.57255">
        <ele>683</ele>
        <time>2020-05-15T14:02:40Z</time>
      </trkpt>
      <trkpt lat="45.46251" lon="2.57305">
        <ele>685</ele>
        <time>2020-05-15T14:02:52Z</time>
      </trkpt>
      <trkpt lat="45.46249" lon="2.57325">
        <ele>686</ele>
        <time>2020-05-15T14:02:57Z</time>
      </trkpt>
      <trkpt lat="45.4625" lon="2.57345">
        <ele>687</ele>
        <time>2020-05-15T14:03:02Z</time>
      </trkpt>
      <trkpt lat="45.46255" lon="2.57366">
        <ele>690</ele>
        <time>2020-05-15T14:03:07Z</time>
      </trkpt>
      <trkpt lat="45.46263" lon="2.57383">
        <ele>691</ele>
        <time>2020-05-15T14:03:12Z</time>
      </trkpt>
      <trkpt lat="45.4634" lon="2.57457">
        <ele>698</ele>
        <time>2020-05-15T14:03:43Z</time>
      </trkpt>
      <trkpt lat="45.4637" lon="2.57472">
        <ele>697</ele>
        <time>2020-05-15T14:03:53Z</time>
      </trkpt>
      <trkpt lat="45.46383" lon="2.57486">
        <ele>698</ele>
        <time>2020-05-15T14:03:59Z</time>
      </trkpt>
      <trkpt lat="45.4639" lon="2.57503">
        <ele>699</ele>
        <time>2020-05-15T14:04:03Z</time>
      </trkpt>
      <trkpt lat="45.46402" lon="2.57545">
        <ele>703</ele>
        <time>2020-05-15T14:04:14Z</time>
      </trkpt>
      <trkpt lat="45.46404" lon="2.57648">
        <ele>717</ele>
        <time>2020-05-15T14:04:38Z</time>
      </trkpt>
      <trkpt lat="45.46415" lon="2.5767">
        <ele>718</ele>
        <time>2020-05-15T14:04:45Z</time>
      </trkpt>
      <trkpt lat="45.46498" lon="2.57763">
        <ele>712</ele>
        <time>2020-05-15T14:05:20Z</time>
      </trkpt>
      <trkpt lat="45.46516" lon="2.5779">
        <ele>714</ele>
        <time>2020-05-15T14:05:28Z</time>
      </trkpt>
      <trkpt lat="45.46539" lon="2.57857">
        <ele>719</ele>
        <time>2020-05-15T14:05:46Z</time>
      </trkpt>
      <trkpt lat="45.46543" lon="2.57878">
        <ele>720</ele>
        <time>2020-05-15T14:05:51Z</time>
      </trkpt>
      <trkpt lat="45.46542" lon="2.57898">
        <ele>721</ele>
        <time>2020-05-15T14:05:56Z</time>
      </trkpt>
      <trkpt lat="45.46532" lon="2.57959">
        <ele>726</ele>
        <time>2020-05-15T14:06:10Z</time>
      </trkpt>
      <trkpt lat="45.4653" lon="2.57986">
        <ele>727</ele>
        <time>2020-05-15T14:06:17Z</time>
      </trkpt>
      <trkpt lat="45.4653" lon="2.58014">
        <ele>727</ele>
        <time>2020-05-15T14:06:23Z</time>
      </trkpt>
      <trkpt lat="45.46535" lon="2.58045">
        <ele>727</ele>
        <time>2020-05-15T14:06:31Z</time>
      </trkpt>
      <trkpt lat="45.46557" lon="2.58094">
        <ele>724</ele>
        <time>2020-05-15T14:06:44Z</time>
      </trkpt>
      <trkpt lat="45.46571" lon="2.58123">
        <ele>726</ele>
        <time>2020-05-15T14:06:53Z</time>
      </trkpt>
      <trkpt lat="45.46582" lon="2.58136">
        <ele>725</ele>
        <time>2020-05-15T14:06:57Z</time>
      </trkpt>
      <trkpt lat="45.46597" lon="2.58144">
        <ele>725</ele>
        <time>2020-05-15T14:07:03Z</time>
      </trkpt>
      <trkpt lat="45.46632" lon="2.58152">
        <ele>725</ele>
        <time>2020-05-15T14:07:14Z</time>
      </trkpt>
      <trkpt lat="45.46653" lon="2.5816">
        <ele>724</ele>
        <time>2020-05-15T14:07:22Z</time>
      </trkpt>
      <trkpt lat="45.46667" lon="2.58175">
        <ele>725</ele>
        <time>2020-05-15T14:07:28Z</time>
      </trkpt>
      <trkpt lat="45.46678" lon="2.58192">
        <ele>728</ele>
        <time>2020-05-15T14:07:33Z</time>
      </trkpt>
      <trkpt lat="45.46745" lon="2.58323">
        <ele>734</ele>
        <time>2020-05-15T14:08:11Z</time>
      </trkpt>
      <trkpt lat="45.46769" lon="2.58382">
        <ele>736</ele>
        <time>2020-05-15T14:08:27Z</time>
      </trkpt>
      <trkpt lat="45.4678" lon="2.584">
        <ele>738</ele>
        <time>2020-05-15T14:08:32Z</time>
      </trkpt>
      <trkpt lat="45.46796" lon="2.58423">
        <ele>741</ele>
        <time>2020-05-15T14:08:40Z</time>
      </trkpt>
      <trkpt lat="45.46808" lon="2.58447">
        <ele>743</ele>
        <time>2020-05-15T14:08:47Z</time>
      </trkpt>
      <trkpt lat="45.46855" lon="2.58603">
        <ele>744</ele>
        <time>2020-05-15T14:09:27Z</time>
      </trkpt>
      <trkpt lat="45.46869" lon="2.58671">
        <ele>745</ele>
        <time>2020-05-15T14:09:43Z</time>
      </trkpt>
      <trkpt lat="45.46871" lon="2.58699">
        <ele>745</ele>
        <time>2020-05-15T14:09:50Z</time>
      </trkpt>
      <trkpt lat="45.46876" lon="2.58719">
        <ele>746</ele>
        <time>2020-05-15T14:09:55Z</time>
      </trkpt>
      <trkpt lat="45.46956" lon="2.58906">
        <ele>754</ele>
        <time>2020-05-15T14:10:46Z</time>
      </trkpt>
      <trkpt lat="45.46973" lon="2.58949">
        <ele>757</ele>
        <time>2020-05-15T14:10:58Z</time>
      </trkpt>
      <trkpt lat="45.46983" lon="2.59007">
        <ele>759</ele>
        <time>2020-05-15T14:11:12Z</time>
      </trkpt>
      <trkpt lat="45.46991" lon="2.59027">
        <ele>759</ele>
        <time>2020-05-15T14:11:17Z</time>
      </trkpt>
      <trkpt lat="45.47" lon="2.59046">
        <ele>760</ele>
        <time>2020-05-15T14:11:22Z</time>
      </trkpt>
      <trkpt lat="45.47006" lon="2.59064">
        <ele>761</ele>
        <time>2020-05-15T14:11:27Z</time>
      </trkpt>
      <trkpt lat="45.4701" lon="2.59095">
        <ele>761</ele>
        <time>2020-05-15T14:11:34Z</time>
      </trkpt>
      <trkpt lat="45.47015" lon="2.59115">
        <ele>762</ele>
        <time>2020-05-15T14:11:39Z</time>
      </trkpt>
      <trkpt lat="45.47021" lon="2.59133">
        <ele>763</ele>
        <time>2020-05-15T14:11:44Z</time>
      </trkpt>
      <trkpt lat="45.47065" lon="2.59225">
        <ele>770</ele>
        <time>2020-05-15T14:12:10Z</time>
      </trkpt>
      <trkpt lat="45.47073" lon="2.59247">
        <ele>771</ele>
        <time>2020-05-15T14:12:16Z</time>
      </trkpt>
      <trkpt lat="45.4712" lon="2.59388">
        <ele>777</ele>
        <time>2020-05-15T14:12:52Z</time>
      </trkpt>
      <trkpt lat="45.47137" lon="2.59453">
        <ele>778</ele>
        <time>2020-05-15T14:13:09Z</time>
      </trkpt>
      <trkpt lat="45.47152" lon="2.59525">
        <ele>780</ele>
        <time>2020-05-15T14:13:26Z</time>
      </trkpt>
      <trkpt lat="45.47164" lon="2.59592">
        <ele>782</ele>
        <time>2020-05-15T14:13:42Z</time>
      </trkpt>
      <trkpt lat="45.4718" lon="2.5965">
        <ele>784</ele>
        <time>2020-05-15T14:13:57Z</time>
      </trkpt>
      <trkpt lat="45.47189" lon="2.59674">
        <ele>786</ele>
        <time>2020-05-15T14:14:03Z</time>
      </trkpt>
      <trkpt lat="45.47226" lon="2.59741">
        <ele>790</ele>
        <time>2020-05-15T14:14:23Z</time>
      </trkpt>
      <trkpt lat="45.47236" lon="2.59755">
        <ele>791</ele>
        <time>2020-05-15T14:14:28Z</time>
      </trkpt>
      <trkpt lat="45.47246" lon="2.59765">
        <ele>792</ele>
        <time>2020-05-15T14:14:32Z</time>
      </trkpt>
      <trkpt lat="45.47294" lon="2.59794">
        <ele>795</ele>
        <time>2020-05-15T14:14:49Z</time>
      </trkpt>
      <trkpt lat="45.47301" lon="2.598">
        <ele>795</ele>
        <time>2020-05-15T14:14:52Z</time>
      </trkpt>
      <trkpt lat="45.47307" lon="2.59809">
        <ele>796</ele>
        <time>2020-05-15T14:14:55Z</time>
      </trkpt>
      <trkpt lat="45.47316" lon="2.59835">
        <ele>796</ele>
        <time>2020-05-15T14:15:02Z</time>
      </trkpt>
      <trkpt lat="45.47431" lon="2.60259">
        <ele>802</ele>
        <time>2020-05-15T14:16:48Z</time>
      </trkpt>
      <trkpt lat="45.4744" lon="2.60284">
        <ele>802</ele>
        <time>2020-05-15T14:16:55Z</time>
      </trkpt>
      <trkpt lat="45.47449" lon="2.60301">
        <ele>802</ele>
        <time>2020-05-15T14:17:00Z</time>
      </trkpt>
      <trkpt lat="45.47546" lon="2.60438">
        <ele>804</ele>
        <time>2020-05-15T14:17:45Z</time>
      </trkpt>
      <trkpt lat="45.47555" lon="2.60449">
        <ele>805</ele>
        <time>2020-05-15T14:17:49Z</time>
      </trkpt>
      <trkpt lat="45.4763" lon="2.60496">
        <ele>812</ele>
        <time>2020-05-15T14:18:17Z</time>
      </trkpt>
      <trkpt lat="45.47689" lon="2.60524">
        <ele>819</ele>
        <time>2020-05-15T14:18:37Z</time>
      </trkpt>
      <trkpt lat="45.47736" lon="2.60557">
        <ele>824</ele>
        <time>2020-05-15T14:18:55Z</time>
      </trkpt>
      <trkpt lat="45.47785" lon="2.60601">
        <ele>831</ele>
        <time>2020-05-15T14:19:14Z</time>
      </trkpt>
      <trkpt lat="45.47791" lon="2.60604">
        <ele>831</ele>
        <time>2020-05-15T14:19:16Z</time>
      </trkpt>
      <trkpt lat="45.47798" lon="2.60605">
        <ele>831</ele>
        <time>2020-05-15T14:19:19Z</time>
      </trkpt>
      <trkpt lat="45.47809" lon="2.60603">
        <ele>831</ele>
        <time>2020-05-15T14:19:22Z</time>
      </trkpt>
      <trkpt lat="45.4787" lon="2.60575">
        <ele>828</ele>
        <time>2020-05-15T14:19:44Z</time>
      </trkpt>
      <trkpt lat="45.47885" lon="2.60574">
        <ele>829</ele>
        <time>2020-05-15T14:19:49Z</time>
      </trkpt>
      <trkpt lat="45.47912" lon="2.60581">
        <ele>832</ele>
        <time>2020-05-15T14:19:58Z</time>
      </trkpt>
      <trkpt lat="45.48004" lon="2.60646">
        <ele>828</ele>
        <time>2020-05-15T14:20:32Z</time>
      </trkpt>
      <trkpt lat="45.48011" lon="2.60654">
        <ele>829</ele>
        <time>2020-05-15T14:20:35Z</time>
      </trkpt>
      <trkpt lat="45.48017" lon="2.60664">
        <ele>831</ele>
        <time>2020-05-15T14:20:38Z</time>
      </trkpt>
      <trkpt lat="45.48042" lon="2.6073">
        <ele>837</ele>
        <time>2020-05-15T14:20:56Z</time>
      </trkpt>
      <trkpt lat="45.48049" lon="2.60744">
        <ele>838</ele>
        <time>2020-05-15T14:21:00Z</time>
      </trkpt>
      <trkpt lat="45.48057" lon="2.60753">
        <ele>837</ele>
        <time>2020-05-15T14:21:03Z</time>
      </trkpt>
      <trkpt lat="45.48072" lon="2.60759">
        <ele>834</ele>
        <time>2020-05-15T14:21:08Z</time>
      </trkpt>
      <trkpt lat="45.48092" lon="2.60759">
        <ele>832</ele>
        <time>2020-05-15T14:21:15Z</time>
      </trkpt>
      <trkpt lat="45.48162" lon="2.60742">
        <ele>826</ele>
        <time>2020-05-15T14:21:39Z</time>
      </trkpt>
      <trkpt lat="45.48174" lon="2.60743">
        <ele>825</ele>
        <time>2020-05-15T14:21:43Z</time>
      </trkpt>
      <trkpt lat="45.48185" lon="2.60751">
        <ele>824</ele>
        <time>2020-05-15T14:21:47Z</time>
      </trkpt>
      <trkpt lat="45.48194" lon="2.60765">
        <ele>824</ele>
        <time>2020-05-15T14:21:51Z</time>
      </trkpt>
      <trkpt lat="45.48238" lon="2.60877">
        <ele>823</ele>
        <time>2020-05-15T14:22:21Z</time>
      </trkpt>
      <trkpt lat="45.48245" lon="2.60926">
        <ele>823</ele>
        <time>2020-05-15T14:22:33Z</time>
      </trkpt>
      <trkpt lat="45.48246" lon="2.61025">
        <ele>820</ele>
        <time>2020-05-15T14:22:56Z</time>
      </trkpt>
      <trkpt lat="45.48239" lon="2.61064">
        <ele>818</ele>
        <time>2020-05-15T14:23:06Z</time>
      </trkpt>
      <trkpt lat="45.48183" lon="2.61204">
        <ele>808</ele>
        <time>2020-05-15T14:23:43Z</time>
      </trkpt>
      <trkpt lat="45.48168" lon="2.61253">
        <ele>802</ele>
        <time>2020-05-15T14:23:56Z</time>
      </trkpt>
      <trkpt lat="45.48165" lon="2.61266">
        <ele>801</ele>
        <time>2020-05-15T14:23:59Z</time>
      </trkpt>
      <trkpt lat="45.48165" lon="2.61278">
        <ele>800</ele>
        <time>2020-05-15T14:24:02Z</time>
      </trkpt>
      <trkpt lat="45.48171" lon="2.61303">
        <ele>798</ele>
        <time>2020-05-15T14:24:08Z</time>
      </trkpt>
      <trkpt lat="45.4828" lon="2.6154">
        <ele>796</ele>
        <time>2020-05-15T14:25:14Z</time>
      </trkpt>
      <trkpt lat="45.4829" lon="2.61575">
        <ele>797</ele>
        <time>2020-05-15T14:25:23Z</time>
      </trkpt>
      <trkpt lat="45.48291" lon="2.61588">
        <ele>797</ele>
        <time>2020-05-15T14:25:26Z</time>
      </trkpt>
      <trkpt lat="45.48288" lon="2.61611">
        <ele>800</ele>
        <time>2020-05-15T14:25:32Z</time>
      </trkpt>
      <trkpt lat="45.48283" lon="2.61621">
        <ele>801</ele>
        <time>2020-05-15T14:25:34Z</time>
      </trkpt>
      <trkpt lat="45.4826" lon="2.61658">
        <ele>802</ele>
        <time>2020-05-15T14:25:46Z</time>
      </trkpt>
      <trkpt lat="45.48255" lon="2.61673">
        <ele>803</ele>
        <time>2020-05-15T14:25:50Z</time>
      </trkpt>
      <trkpt lat="45.48255" lon="2.6169">
        <ele>804</ele>
        <time>2020-05-15T14:25:54Z</time>
      </trkpt>
      <trkpt lat="45.48261" lon="2.61739">
        <ele>808</ele>
        <time>2020-05-15T14:26:06Z</time>
      </trkpt>
      <trkpt lat="45.48258" lon="2.61754">
        <ele>809</ele>
        <time>2020-05-15T14:26:09Z</time>
      </trkpt>
      <trkpt lat="45.4824" lon="2.6179">
        <ele>807</ele>
        <time>2020-05-15T14:26:20Z</time>
      </trkpt>
      <trkpt lat="45.48237" lon="2.61809">
        <ele>807</ele>
        <time>2020-05-15T14:26:24Z</time>
      </trkpt>
      <trkpt lat="45.4824" lon="2.61827">
        <ele>808</ele>
        <time>2020-05-15T14:26:28Z</time>
      </trkpt>
      <trkpt lat="45.48255" lon="2.61871">
        <ele>810</ele>
        <time>2020-05-15T14:26:40Z</time>
      </trkpt>
      <trkpt lat="45.48319" lon="2.62">
        <ele>821</ele>
        <time>2020-05-15T14:27:17Z</time>
      </trkpt>
      <trkpt lat="45.48385" lon="2.62107">
        <ele>826</ele>
        <time>2020-05-15T14:27:50Z</time>
      </trkpt>
      <trkpt lat="45.48412" lon="2.62138">
        <ele>831</ele>
        <time>2020-05-15T14:28:02Z</time>
      </trkpt>
      <trkpt lat="45.48424" lon="2.62165">
        <ele>832</ele>
        <time>2020-05-15T14:28:09Z</time>
      </trkpt>
      <trkpt lat="45.48431" lon="2.62192">
        <ele>834</ele>
        <time>2020-05-15T14:28:16Z</time>
      </trkpt>
      <trkpt lat="45.48432" lon="2.62211">
        <ele>834</ele>
        <time>2020-05-15T14:28:20Z</time>
      </trkpt>
      <trkpt lat="45.48422" lon="2.62244">
        <ele>831</ele>
        <time>2020-05-15T14:28:29Z</time>
      </trkpt>
      <trkpt lat="45.48416" lon="2.62278">
        <ele>830</ele>
        <time>2020-05-15T14:28:37Z</time>
      </trkpt>
      <trkpt lat="45.48416" lon="2.62294">
        <ele>830</ele>
        <time>2020-05-15T14:28:41Z</time>
      </trkpt>
      <trkpt lat="45.48421" lon="2.62319">
        <ele>831</ele>
        <time>2020-05-15T14:28:47Z</time>
      </trkpt>
      <trkpt lat="45.48465" lon="2.6237">
        <ele>836</ele>
        <time>2020-05-15T14:29:06Z</time>
      </trkpt>
      <trkpt lat="45.48474" lon="2.62396">
        <ele>836</ele>
        <time>2020-05-15T14:29:13Z</time>
      </trkpt>
      <trkpt lat="45.48504" lon="2.62529">
        <ele>842</ele>
        <time>2020-05-15T14:29:45Z</time>
      </trkpt>
      <trkpt lat="45.48513" lon="2.62544">
        <ele>843</ele>
        <time>2020-05-15T14:29:50Z</time>
      </trkpt>
      <trkpt lat="45.48522" lon="2.62552">
        <ele>843</ele>
        <time>2020-05-15T14:29:53Z</time>
      </trkpt>
      <trkpt lat="45.4854" lon="2.62562">
        <ele>842</ele>
        <time>2020-05-15T14:30:00Z</time>
      </trkpt>
      <trkpt lat="45.48698" lon="2.62632">
        <ele>839</ele>
        <time>2020-05-15T14:30:55Z</time>
      </trkpt>
      <trkpt lat="45.48724" lon="2.62633">
        <ele>839</ele>
        <time>2020-05-15T14:31:04Z</time>
      </trkpt>
      <trkpt lat="45.48858" lon="2.62606">
        <ele>837</ele>
        <time>2020-05-15T14:31:49Z</time>
      </trkpt>
      <trkpt lat="45.48915" lon="2.62597">
        <ele>835</ele>
        <time>2020-05-15T14:32:08Z</time>
      </trkpt>
      <trkpt lat="45.48968" lon="2.62603">
        <ele>832</ele>
        <time>2020-05-15T14:32:26Z</time>
      </trkpt>
      <trkpt lat="45.49045" lon="2.62622">
        <ele>828</ele>
        <time>2020-05-15T14:32:52Z</time>
      </trkpt>
      <trkpt lat="45.49105" lon="2.62638">
        <ele>827</ele>
        <time>2020-05-15T14:33:12Z</time>
      </trkpt>
      <trkpt lat="45.49148" lon="2.62654">
        <ele>828</ele>
        <time>2020-05-15T14:33:27Z</time>
      </trkpt>
      <trkpt lat="45.4924" lon="2.62677">
        <ele>831</ele>
        <time>2020-05-15T14:33:58Z</time>
      </trkpt>
      <trkpt lat="45.49346" lon="2.6271">
        <ele>834</ele>
        <time>2020-05-15T14:34:34Z</time>
      </trkpt>
      <trkpt lat="45.49369" lon="2.62723">
        <ele>834</ele>
        <time>2020-05-15T14:34:43Z</time>
      </trkpt>
      <trkpt lat="45.49498" lon="2.62814">
        <ele>834</ele>
        <time>2020-05-15T14:35:31Z</time>
      </trkpt>
      <trkpt lat="45.49553" lon="2.62834">
        <ele>838</ele>
        <time>2020-05-15T14:35:49Z</time>
      </trkpt>
      <trkpt lat="45.49652" lon="2.62853">
        <ele>843</ele>
        <time>2020-05-15T14:36:23Z</time>
      </trkpt>
      <trkpt lat="45.4966" lon="2.62858">
        <ele>843</ele>
        <time>2020-05-15T14:36:26Z</time>
      </trkpt>
      <trkpt lat="45.49667" lon="2.62869">
        <ele>844</ele>
        <time>2020-05-15T14:36:29Z</time>
      </trkpt>
      <trkpt lat="45.4968" lon="2.62908">
        <ele>845</ele>
        <time>2020-05-15T14:36:39Z</time>
      </trkpt>
      <trkpt lat="45.49692" lon="2.62949">
        <ele>847</ele>
        <time>2020-05-15T14:36:50Z</time>
      </trkpt>
      <trkpt lat="45.497" lon="2.62982">
        <ele>849</ele>
        <time>2020-05-15T14:36:58Z</time>
      </trkpt>
      <trkpt lat="45.4971" lon="2.63017">
        <ele>851</ele>
        <time>2020-05-15T14:37:07Z</time>
      </trkpt>
      <trkpt lat="45.49723" lon="2.63042">
        <ele>851</ele>
        <time>2020-05-15T14:37:14Z</time>
      </trkpt>
      <trkpt lat="45.49855" lon="2.63137">
        <ele>857</ele>
        <time>2020-05-15T14:38:03Z</time>
      </trkpt>
      <trkpt lat="45.49893" lon="2.63168">
        <ele>860</ele>
        <time>2020-05-15T14:38:18Z</time>
      </trkpt>
      <trkpt lat="45.49911" lon="2.63179">
        <ele>861</ele>
        <time>2020-05-15T14:38:24Z</time>
      </trkpt>
      <trkpt lat="45.4997" lon="2.63174">
        <ele>863</ele>
        <time>2020-05-15T14:38:44Z</time>
      </trkpt>
      <trkpt lat="45.50007" lon="2.63176">
        <ele>865</ele>
        <time>2020-05-15T14:38:57Z</time>
      </trkpt>
      <trkpt lat="45.50023" lon="2.63187">
        <ele>866</ele>
        <time>2020-05-15T14:39:02Z</time>
      </trkpt>
      <trkpt lat="45.50085" lon="2.63275">
        <ele>870</ele>
        <time>2020-05-15T14:39:32Z</time>
      </trkpt>
      <trkpt lat="45.50097" lon="2.63299">
        <ele>871</ele>
        <time>2020-05-15T14:39:39Z</time>
      </trkpt>
      <trkpt lat="45.50102" lon="2.63322">
        <ele>872</ele>
        <time>2020-05-15T14:39:44Z</time>
      </trkpt>
      <trkpt lat="45.50111" lon="2.63382">
        <ele>873</ele>
        <time>2020-05-15T14:39:58Z</time>
      </trkpt>
      <trkpt lat="45.50117" lon="2.63411">
        <ele>874</ele>
        <time>2020-05-15T14:40:06Z</time>
      </trkpt>
      <trkpt lat="45.50123" lon="2.63429">
        <ele>875</ele>
        <time>2020-05-15T14:40:10Z</time>
      </trkpt>
      <trkpt lat="45.50154" lon="2.63498">
        <ele>879</ele>
        <time>2020-05-15T14:40:29Z</time>
      </trkpt>
      <trkpt lat="45.50159" lon="2.63513">
        <ele>879</ele>
        <time>2020-05-15T14:40:33Z</time>
      </trkpt>
      <trkpt lat="45.50161" lon="2.63532">
        <ele>880</ele>
        <time>2020-05-15T14:40:38Z</time>
      </trkpt>
      <trkpt lat="45.50162" lon="2.63601">
        <ele>882</ele>
        <time>2020-05-15T14:40:54Z</time>
      </trkpt>
      <trkpt lat="45.5017" lon="2.63656">
        <ele>886</ele>
        <time>2020-05-15T14:41:07Z</time>
      </trkpt>
      <trkpt lat="45.5017" lon="2.63671">
        <ele>887</ele>
        <time>2020-05-15T14:41:11Z</time>
      </trkpt>
      <trkpt lat="45.50162" lon="2.63706">
        <ele>887</ele>
        <time>2020-05-15T14:41:19Z</time>
      </trkpt>
      <trkpt lat="45.5016" lon="2.63723">
        <ele>887</ele>
        <time>2020-05-15T14:41:23Z</time>
      </trkpt>
      <trkpt lat="45.50162" lon="2.63739">
        <ele>888</ele>
        <time>2020-05-15T14:41:27Z</time>
      </trkpt>
      <trkpt lat="45.50175" lon="2.6379">
        <ele>894</ele>
        <time>2020-05-15T14:41:40Z</time>
      </trkpt>
      <trkpt lat="45.5018" lon="2.63819">
        <ele>896</ele>
        <time>2020-05-15T14:41:47Z</time>
      </trkpt>
      <trkpt lat="45.5018" lon="2.63843">
        <ele>898</ele>
        <time>2020-05-15T14:41:52Z</time>
      </trkpt>
      <trkpt lat="45.50157" lon="2.63984">
        <ele>901</ele>
        <time>2020-05-15T14:42:26Z</time>
      </trkpt>
      <trkpt lat="45.50158" lon="2.64035">
        <ele>902</ele>
        <time>2020-05-15T14:42:38Z</time>
      </trkpt>
      <trkpt lat="45.50167" lon="2.64151">
        <ele>905</ele>
        <time>2020-05-15T14:43:05Z</time>
      </trkpt>
      <trkpt lat="45.50193" lon="2.64234">
        <ele>908</ele>
        <time>2020-05-15T14:43:27Z</time>
      </trkpt>
      <trkpt lat="45.50196" lon="2.64262">
        <ele>908</ele>
        <time>2020-05-15T14:43:33Z</time>
      </trkpt>
      <trkpt lat="45.50196" lon="2.64298">
        <ele>909</ele>
        <time>2020-05-15T14:43:42Z</time>
      </trkpt>
      <trkpt lat="45.50202" lon="2.64339">
        <ele>909</ele>
        <time>2020-05-15T14:43:51Z</time>
      </trkpt>
      <trkpt lat="45.50228" lon="2.64384">
        <ele>910</ele>
        <time>2020-05-15T14:44:05Z</time>
      </trkpt>
      <trkpt lat="45.50297" lon="2.64434">
        <ele>912</ele>
        <time>2020-05-15T14:44:31Z</time>
      </trkpt>
      <trkpt lat="45.50314" lon="2.64457">
        <ele>913</ele>
        <time>2020-05-15T14:44:39Z</time>
      </trkpt>
      <trkpt lat="45.50328" lon="2.64485">
        <ele>915</ele>
        <time>2020-05-15T14:44:47Z</time>
      </trkpt>
      <trkpt lat="45.50338" lon="2.64527">
        <ele>917</ele>
        <time>2020-05-15T14:44:57Z</time>
      </trkpt>
      <trkpt lat="45.50348" lon="2.64552">
        <ele>918</ele>
        <time>2020-05-15T14:45:04Z</time>
      </trkpt>
      <trkpt lat="45.50354" lon="2.64561">
        <ele>918</ele>
        <time>2020-05-15T14:45:07Z</time>
      </trkpt>
      <trkpt lat="45.50378" lon="2.64576">
        <ele>918</ele>
        <time>2020-05-15T14:45:15Z</time>
      </trkpt>
      <trkpt lat="45.50708" lon="2.64711">
        <ele>918</ele>
        <time>2020-05-15T14:47:10Z</time>
      </trkpt>
      <trkpt lat="45.50732" lon="2.64727">
        <ele>917</ele>
        <time>2020-05-15T14:47:19Z</time>
      </trkpt>
      <trkpt lat="45.50779" lon="2.64789">
        <ele>916</ele>
        <time>2020-05-15T14:47:40Z</time>
      </trkpt>
      <trkpt lat="45.50896" lon="2.64964">
        <ele>922</ele>
        <time>2020-05-15T14:48:37Z</time>
      </trkpt>
      <trkpt lat="45.50943" lon="2.65008">
        <ele>922</ele>
        <time>2020-05-15T14:48:55Z</time>
      </trkpt>
      <trkpt lat="45.51144" lon="2.65175">
        <ele>906</ele>
        <time>2020-05-15T14:50:13Z</time>
      </trkpt>
      <trkpt lat="45.51357" lon="2.65308">
        <ele>902</ele>
        <time>2020-05-15T14:51:31Z</time>
      </trkpt>
      <trkpt lat="45.51409" lon="2.65334">
        <ele>903</ele>
        <time>2020-05-15T14:51:49Z</time>
      </trkpt>
      <trkpt lat="45.51462" lon="2.65374">
        <ele>902</ele>
        <time>2020-05-15T14:52:09Z</time>
      </trkpt>
      <trkpt lat="45.51493" lon="2.65408">
        <ele>900</ele>
        <time>2020-05-15T14:52:22Z</time>
      </trkpt>
      <trkpt lat="45.51511" lon="2.65424">
        <ele>901</ele>
        <time>2020-05-15T14:52:29Z</time>
      </trkpt>
      <trkpt lat="45.51523" lon="2.65429">
        <ele>902</ele>
        <time>2020-05-15T14:52:33Z</time>
      </trkpt>
      <trkpt lat="45.51536" lon="2.65429">
        <ele>903</ele>
        <time>2020-05-15T14:52:38Z</time>
      </trkpt>
      <trkpt lat="45.51547" lon="2.65422">
        <ele>903</ele>
        <time>2020-05-15T14:52:42Z</time>
      </trkpt>
      <trkpt lat="45.51562" lon="2.65404">
        <ele>903</ele>
        <time>2020-05-15T14:52:48Z</time>
      </trkpt>
      <trkpt lat="45.51577" lon="2.65391">
        <ele>903</ele>
        <time>2020-05-15T14:52:54Z</time>
      </trkpt>
      <trkpt lat="45.51594" lon="2.65384">
        <ele>903</ele>
        <time>2020-05-15T14:53:00Z</time>
      </trkpt>
      <trkpt lat="45.51669" lon="2.65388">
        <ele>899</ele>
        <time>2020-05-15T14:53:25Z</time>
      </trkpt>
      <trkpt lat="45.51686" lon="2.654">
        <ele>897</ele>
        <time>2020-05-15T14:53:31Z</time>
      </trkpt>
      <trkpt lat="45.51698" lon="2.65422">
        <ele>896</ele>
        <time>2020-05-15T14:53:38Z</time>
      </trkpt>
      <trkpt lat="45.51701" lon="2.65448">
        <ele>894</ele>
        <time>2020-05-15T14:53:44Z</time>
      </trkpt>
      <trkpt lat="45.51695" lon="2.65481">
        <ele>895</ele>
        <time>2020-05-15T14:53:52Z</time>
      </trkpt>
      <trkpt lat="45.51681" lon="2.65508">
        <ele>898</ele>
        <time>2020-05-15T14:54:00Z</time>
      </trkpt>
      <trkpt lat="45.51653" lon="2.65543">
        <ele>901</ele>
        <time>2020-05-15T14:54:12Z</time>
      </trkpt>
      <trkpt lat="45.51635" lon="2.65587">
        <ele>900</ele>
        <time>2020-05-15T14:54:24Z</time>
      </trkpt>
      <trkpt lat="45.51618" lon="2.65666">
        <ele>895</ele>
        <time>2020-05-15T14:54:43Z</time>
      </trkpt>
      <trkpt lat="45.51585" lon="2.65857">
        <ele>887</ele>
        <time>2020-05-15T14:55:29Z</time>
      </trkpt>
      <trkpt lat="45.51565" lon="2.65987">
        <ele>879</ele>
        <time>2020-05-15T14:56:01Z</time>
      </trkpt>
      <trkpt lat="45.51563" lon="2.66013">
        <ele>878</ele>
        <time>2020-05-15T14:56:07Z</time>
      </trkpt>
      <trkpt lat="45.51564" lon="2.66036">
        <ele>876</ele>
        <time>2020-05-15T14:56:12Z</time>
      </trkpt>
      <trkpt lat="45.51569" lon="2.66059">
        <ele>873</ele>
        <time>2020-05-15T14:56:18Z</time>
      </trkpt>
      <trkpt lat="45.51579" lon="2.6608">
        <ele>871</ele>
        <time>2020-05-15T14:56:24Z</time>
      </trkpt>
      <trkpt lat="45.51594" lon="2.661">
        <ele>869</ele>
        <time>2020-05-15T14:56:31Z</time>
      </trkpt>
      <trkpt lat="45.51612" lon="2.66113">
        <ele>869</ele>
        <time>2020-05-15T14:56:37Z</time>
      </trkpt>
      <trkpt lat="45.52027" lon="2.663">
        <ele>876</ele>
        <time>2020-05-15T14:59:02Z</time>
      </trkpt>
      <trkpt lat="45.5207" lon="2.66334">
        <ele>875</ele>
        <time>2020-05-15T14:59:19Z</time>
      </trkpt>
      <trkpt lat="45.52111" lon="2.6639">
        <ele>874</ele>
        <time>2020-05-15T14:59:38Z</time>
      </trkpt>
      <trkpt lat="45.52146" lon="2.66455">
        <ele>874</ele>
        <time>2020-05-15T14:59:57Z</time>
      </trkpt>
      <trkpt lat="45.52262" lon="2.66804">
        <ele>878</ele>
        <time>2020-05-15T15:01:27Z</time>
      </trkpt>
      <trkpt lat="45.5227" lon="2.66841">
        <ele>878</ele>
        <time>2020-05-15T15:01:36Z</time>
      </trkpt>
      <trkpt lat="45.52272" lon="2.66867">
        <ele>878</ele>
        <time>2020-05-15T15:01:42Z</time>
      </trkpt>
      <trkpt lat="45.52265" lon="2.66992">
        <ele>876</ele>
        <time>2020-05-15T15:02:12Z</time>
      </trkpt>
      <trkpt lat="45.52269" lon="2.67032">
        <ele>877</ele>
        <time>2020-05-15T15:02:21Z</time>
      </trkpt>
      <trkpt lat="45.52279" lon="2.67077">
        <ele>877</ele>
        <time>2020-05-15T15:02:32Z</time>
      </trkpt>
      <trkpt lat="45.52295" lon="2.67129">
        <ele>876</ele>
        <time>2020-05-15T15:02:45Z</time>
      </trkpt>
      <trkpt lat="45.52331" lon="2.67179">
        <ele>873</ele>
        <time>2020-05-15T15:03:02Z</time>
      </trkpt>
      <trkpt lat="45.52363" lon="2.67207">
        <ele>877</ele>
        <time>2020-05-15T15:03:15Z</time>
      </trkpt>
      <trkpt lat="45.52378" lon="2.67221">
        <ele>879</ele>
        <time>2020-05-15T15:03:21Z</time>
      </trkpt>
      <trkpt lat="45.52386" lon="2.67225">
        <ele>880</ele>
        <time>2020-05-15T15:03:24Z</time>
      </trkpt>
      <trkpt lat="45.52396" lon="2.67227">
        <ele>880</ele>
        <time>2020-05-15T15:03:27Z</time>
      </trkpt>
      <trkpt lat="45.52455" lon="2.67197">
        <ele>880</ele>
        <time>2020-05-15T15:03:48Z</time>
      </trkpt>
      <trkpt lat="45.52487" lon="2.67198">
        <ele>883</ele>
        <time>2020-05-15T15:03:58Z</time>
      </trkpt>
      <trkpt lat="45.52532" lon="2.67211">
        <ele>885</ele>
        <time>2020-05-15T15:04:14Z</time>
      </trkpt>
      <trkpt lat="45.52568" lon="2.67237">
        <ele>885</ele>
        <time>2020-05-15T15:04:27Z</time>
      </trkpt>
      <trkpt lat="45.52609" lon="2.67274">
        <ele>883</ele>
        <time>2020-05-15T15:04:43Z</time>
      </trkpt>
      <trkpt lat="45.52654" lon="2.67323">
        <ele>877</ele>
        <time>2020-05-15T15:05:02Z</time>
      </trkpt>
      <trkpt lat="45.52694" lon="2.67362">
        <ele>872</ele>
        <time>2020-05-15T15:05:18Z</time>
      </trkpt>
      <trkpt lat="45.5272" lon="2.6738">
        <ele>870</ele>
        <time>2020-05-15T15:05:28Z</time>
      </trkpt>
      <trkpt lat="45.52729" lon="2.67382">
        <ele>870</ele>
        <time>2020-05-15T15:05:31Z</time>
      </trkpt>
      <trkpt lat="45.52753" lon="2.67384">
        <ele>868</ele>
        <time>2020-05-15T15:05:39Z</time>
      </trkpt>
      <trkpt lat="45.52781" lon="2.67374">
        <ele>870</ele>
        <time>2020-05-15T15:05:49Z</time>
      </trkpt>
      <trkpt lat="45.52851" lon="2.67332">
        <ele>875</ele>
        <time>2020-05-15T15:06:14Z</time>
      </trkpt>
      <trkpt lat="45.52906" lon="2.67301">
        <ele>879</ele>
        <time>2020-05-15T15:06:34Z</time>
      </trkpt>
      <trkpt lat="45.52924" lon="2.67291">
        <ele>880</ele>
        <time>2020-05-15T15:06:40Z</time>
      </trkpt>
      <trkpt lat="45.5294" lon="2.67289">
        <ele>881</ele>
        <time>2020-05-15T15:06:46Z</time>
      </trkpt>
      <trkpt lat="45.52953" lon="2.67294">
        <ele>882</ele>
        <time>2020-05-15T15:06:50Z</time>
      </trkpt>
      <trkpt lat="45.52963" lon="2.67304">
        <ele>882</ele>
        <time>2020-05-15T15:06:54Z</time>
      </trkpt>
      <trkpt lat="45.52969" lon="2.67314">
        <ele>882</ele>
        <time>2020-05-15T15:06:57Z</time>
      </trkpt>
      <trkpt lat="45.52975" lon="2.67336">
        <ele>882</ele>
        <time>2020-05-15T15:07:03Z</time>
      </trkpt>
      <trkpt lat="45.52977" lon="2.67479">
        <ele>885</ele>
        <time>2020-05-15T15:07:36Z</time>
      </trkpt>
      <trkpt lat="45.5298" lon="2.67517">
        <ele>887</ele>
        <time>2020-05-15T15:07:45Z</time>
      </trkpt>
      <trkpt lat="45.52986" lon="2.67539">
        <ele>889</ele>
        <time>2020-05-15T15:07:51Z</time>
      </trkpt>
      <trkpt lat="45.52997" lon="2.67559">
        <ele>891</ele>
        <time>2020-05-15T15:07:57Z</time>
      </trkpt>
      <trkpt lat="45.53018" lon="2.67586">
        <ele>892</ele>
        <time>2020-05-15T15:08:06Z</time>
      </trkpt>
      <trkpt lat="45.53028" lon="2.67602">
        <ele>893</ele>
        <time>2020-05-15T15:08:11Z</time>
      </trkpt>
      <trkpt lat="45.53036" lon="2.67624">
        <ele>894</ele>
        <time>2020-05-15T15:08:17Z</time>
      </trkpt>
      <trkpt lat="45.53059" lon="2.67737">
        <ele>896</ele>
        <time>2020-05-15T15:08:44Z</time>
      </trkpt>
      <trkpt lat="45.53067" lon="2.67752">
        <ele>897</ele>
        <time>2020-05-15T15:08:49Z</time>
      </trkpt>
      <trkpt lat="45.53076" lon="2.67762">
        <ele>898</ele>
        <time>2020-05-15T15:08:53Z</time>
      </trkpt>
      <trkpt lat="45.53101" lon="2.67779">
        <ele>900</ele>
        <time>2020-05-15T15:09:02Z</time>
      </trkpt>
      <trkpt lat="45.53114" lon="2.67792">
        <ele>902</ele>
        <time>2020-05-15T15:09:07Z</time>
      </trkpt>
      <trkpt lat="45.53124" lon="2.67814">
        <ele>903</ele>
        <time>2020-05-15T15:09:13Z</time>
      </trkpt>
      <trkpt lat="45.53128" lon="2.67836">
        <ele>905</ele>
        <time>2020-05-15T15:09:19Z</time>
      </trkpt>
      <trkpt lat="45.53126" lon="2.67862">
        <ele>906</ele>
        <time>2020-05-15T15:09:25Z</time>
      </trkpt>
      <trkpt lat="45.53118" lon="2.67886">
        <ele>906</ele>
        <time>2020-05-15T15:09:31Z</time>
      </trkpt>
      <trkpt lat="45.53099" lon="2.67929">
        <ele>906</ele>
        <time>2020-05-15T15:09:43Z</time>
      </trkpt>
      <trkpt lat="45.53093" lon="2.67951">
        <ele>906</ele>
        <time>2020-05-15T15:09:48Z</time>
      </trkpt>
      <trkpt lat="45.53091" lon="2.67971">
        <ele>907</ele>
        <time>2020-05-15T15:09:53Z</time>
      </trkpt>
      <trkpt lat="45.53091" lon="2.67991">
        <ele>908</ele>
        <time>2020-05-15T15:09:58Z</time>
      </trkpt>
      <trkpt lat="45.53093" lon="2.68011">
        <ele>909</ele>
        <time>2020-05-15T15:10:02Z</time>
      </trkpt>
      <trkpt lat="45.53096" lon="2.6803">
        <ele>910</ele>
        <time>2020-05-15T15:10:07Z</time>
      </trkpt>
      <trkpt lat="45.53111" lon="2.68084">
        <ele>914</ele>
        <time>2020-05-15T15:10:21Z</time>
      </trkpt>
      <trkpt lat="45.5314" lon="2.68394">
        <ele>928</ele>
        <time>2020-05-15T15:11:34Z</time>
      </trkpt>
      <trkpt lat="45.53153" lon="2.6848">
        <ele>931</ele>
        <time>2020-05-15T15:11:54Z</time>
      </trkpt>
      <trkpt lat="45.53155" lon="2.68488">
        <ele>931</ele>
        <time>2020-05-15T15:11:56Z</time>
      </trkpt>
      <trkpt lat="45.53167" lon="2.68544">
        <ele>934</ele>
        <time>2020-05-15T15:12:10Z</time>
      </trkpt>
      <trkpt lat="45.53187" lon="2.68619">
        <ele>935</ele>
        <time>2020-05-15T15:12:29Z</time>
      </trkpt>
      <trkpt lat="45.53199" lon="2.68667">
        <ele>935</ele>
        <time>2020-05-15T15:12:41Z</time>
      </trkpt>
      <trkpt lat="45.53203" lon="2.68682">
        <ele>936</ele>
        <time>2020-05-15T15:12:44Z</time>
      </trkpt>
      <trkpt lat="45.53212" lon="2.68709">
        <ele>937</ele>
        <time>2020-05-15T15:12:51Z</time>
      </trkpt>
      <trkpt lat="45.53224" lon="2.68733">
        <ele>939</ele>
        <time>2020-05-15T15:12:58Z</time>
      </trkpt>
      <trkpt lat="45.53232" lon="2.68753">
        <ele>941</ele>
        <time>2020-05-15T15:13:04Z</time>
      </trkpt>
      <trkpt lat="45.53219" lon="2.68765">
        <ele>942</ele>
        <time>2020-05-15T15:13:09Z</time>
      </trkpt>
      <trkpt lat="45.53218" lon="2.68766">
        <ele>942</ele>
        <time>2020-05-15T15:13:09Z</time>
      </trkpt>
      <trkpt lat="45.53219" lon="2.68765">
        <ele>942</ele>
        <time>2020-05-15T15:13:10Z</time>
      </trkpt>
      <trkpt lat="45.53232" lon="2.68753">
        <ele>941</ele>
        <time>2020-05-15T15:13:15Z</time>
      </trkpt>
      <trkpt lat="45.53253" lon="2.68745">
        <ele>941</ele>
        <time>2020-05-15T15:13:22Z</time>
      </trkpt>
      <trkpt lat="45.53259" lon="2.68744">
        <ele>941</ele>
        <time>2020-05-15T15:13:24Z</time>
      </trkpt>
      <trkpt lat="45.53267" lon="2.68744">
        <ele>941</ele>
        <time>2020-05-15T15:13:27Z</time>
      </trkpt>
      <trkpt lat="45.53276" lon="2.68745">
        <ele>940</ele>
        <time>2020-05-15T15:13:30Z</time>
      </trkpt>
      <trkpt lat="45.53275" lon="2.68764">
        <ele>943</ele>
        <time>2020-05-15T15:13:34Z</time>
      </trkpt>
      <trkpt lat="45.53282" lon="2.68781">
        <ele>945</ele>
        <time>2020-05-15T15:13:39Z</time>
      </trkpt>
      <trkpt lat="45.53285" lon="2.6879">
        <ele>947</ele>
        <time>2020-05-15T15:13:41Z</time>
      </trkpt>
      <trkpt lat="45.53296" lon="2.68818">
        <ele>950</ele>
        <time>2020-05-15T15:13:49Z</time>
      </trkpt>
      <trkpt lat="45.533" lon="2.68853">
        <ele>956</ele>
        <time>2020-05-15T15:13:57Z</time>
      </trkpt>
      <trkpt lat="45.53302" lon="2.68881">
        <ele>960</ele>
        <time>2020-05-15T15:14:03Z</time>
      </trkpt>
      <trkpt lat="45.53305" lon="2.68891">
        <ele>961</ele>
        <time>2020-05-15T15:14:06Z</time>
      </trkpt>
      <trkpt lat="45.53315" lon="2.68909">
        <ele>963</ele>
        <time>2020-05-15T15:14:11Z</time>
      </trkpt>
      <trkpt lat="45.53311" lon="2.68916">
        <ele>964</ele>
        <time>2020-05-15T15:14:13Z</time>
      </trkpt>
      <trkpt lat="45.53311" lon="2.68917">
        <ele>965</ele>
        <time>2020-05-15T15:14:14Z</time>
      </trkpt>
      <trkpt lat="45.53308" lon="2.68933">
        <ele>967</ele>
        <time>2020-05-15T15:14:18Z</time>
      </trkpt>
      <trkpt lat="45.53305" lon="2.68967">
        <ele>972</ele>
        <time>2020-05-15T15:14:26Z</time>
      </trkpt>
      <trkpt lat="45.53308" lon="2.68983">
        <ele>973</ele>
        <time>2020-05-15T15:14:29Z</time>
      </trkpt>
      <trkpt lat="45.53308" lon="2.68995">
        <ele>975</ele>
        <time>2020-05-15T15:14:32Z</time>
      </trkpt>
      <trkpt lat="45.53305" lon="2.69016">
        <ele>977</ele>
        <time>2020-05-15T15:14:37Z</time>
      </trkpt>
      <trkpt lat="45.53305" lon="2.69018">
        <ele>977</ele>
        <time>2020-05-15T15:14:38Z</time>
      </trkpt>
      <trkpt lat="45.53303" lon="2.69041">
        <ele>980</ele>
        <time>2020-05-15T15:14:43Z</time>
      </trkpt>
      <trkpt lat="45.53304" lon="2.69053">
        <ele>981</ele>
        <time>2020-05-15T15:14:46Z</time>
      </trkpt>
      <trkpt lat="45.53311" lon="2.69065">
        <ele>982</ele>
        <time>2020-05-15T15:14:50Z</time>
      </trkpt>
      <trkpt lat="45.53325" lon="2.69095">
        <ele>984</ele>
        <time>2020-05-15T15:14:58Z</time>
      </trkpt>
      <trkpt lat="45.53329" lon="2.69108">
        <ele>986</ele>
        <time>2020-05-15T15:15:01Z</time>
      </trkpt>
      <trkpt lat="45.53337" lon="2.69118">
        <ele>987</ele>
        <time>2020-05-15T15:15:05Z</time>
      </trkpt>
      <trkpt lat="45.53357" lon="2.69131">
        <ele>986</ele>
        <time>2020-05-15T15:15:12Z</time>
      </trkpt>
      <trkpt lat="45.53367" lon="2.6914">
        <ele>986</ele>
        <time>2020-05-15T15:15:16Z</time>
      </trkpt>
      <trkpt lat="45.53375" lon="2.69153">
        <ele>986</ele>
        <time>2020-05-15T15:15:20Z</time>
      </trkpt>
      <trkpt lat="45.53442" lon="2.69295">
        <ele>986</ele>
        <time>2020-05-15T15:16:00Z</time>
      </trkpt>
      <trkpt lat="45.53461" lon="2.69346">
        <ele>987</ele>
        <time>2020-05-15T15:16:14Z</time>
      </trkpt>
      <trkpt lat="45.53527" lon="2.69612">
        <ele>999</ele>
        <time>2020-05-15T15:17:20Z</time>
      </trkpt>
      <trkpt lat="45.53547" lon="2.69762">
        <ele>1004</ele>
        <time>2020-05-15T15:17:55Z</time>
      </trkpt>
      <trkpt lat="45.53552" lon="2.69789">
        <ele>1005</ele>
        <time>2020-05-15T15:18:02Z</time>
      </trkpt>
      <trkpt lat="45.53561" lon="2.69811">
        <ele>1007</ele>
        <time>2020-05-15T15:18:08Z</time>
      </trkpt>
      <trkpt lat="45.53573" lon="2.69828">
        <ele>1008</ele>
        <time>2020-05-15T15:18:13Z</time>
      </trkpt>
      <trkpt lat="45.53652" lon="2.69869">
        <ele>1013</ele>
        <time>2020-05-15T15:18:41Z</time>
      </trkpt>
      <trkpt lat="45.53679" lon="2.69891">
        <ele>1016</ele>
        <time>2020-05-15T15:18:52Z</time>
      </trkpt>
      <trkpt lat="45.53766" lon="2.69842">
        <ele>1023</ele>
        <time>2020-05-15T15:19:23Z</time>
      </trkpt>
      <trkpt lat="45.53784" lon="2.69827">
        <ele>1024</ele>
        <time>2020-05-15T15:19:30Z</time>
      </trkpt>
      <trkpt lat="45.53799" lon="2.69807">
        <ele>1024</ele>
        <time>2020-05-15T15:19:37Z</time>
      </trkpt>
      <trkpt lat="45.53838" lon="2.69736">
        <ele>1025</ele>
        <time>2020-05-15T15:19:58Z</time>
      </trkpt>
      <trkpt lat="45.53851" lon="2.69718">
        <ele>1026</ele>
        <time>2020-05-15T15:20:04Z</time>
      </trkpt>
      <trkpt lat="45.53863" lon="2.69705">
        <ele>1026</ele>
        <time>2020-05-15T15:20:09Z</time>
      </trkpt>
      <trkpt lat="45.53876" lon="2.69697">
        <ele>1027</ele>
        <time>2020-05-15T15:20:14Z</time>
      </trkpt>
      <trkpt lat="45.53889" lon="2.69692">
        <ele>1028</ele>
        <time>2020-05-15T15:20:18Z</time>
      </trkpt>
      <trkpt lat="45.53902" lon="2.69689">
        <ele>1029</ele>
        <time>2020-05-15T15:20:23Z</time>
      </trkpt>
      <trkpt lat="45.53963" lon="2.69694">
        <ele>1032</ele>
        <time>2020-05-15T15:20:43Z</time>
      </trkpt>
      <trkpt lat="45.53991" lon="2.69699">
        <ele>1033</ele>
        <time>2020-05-15T15:20:52Z</time>
      </trkpt>
      <trkpt lat="45.54025" lon="2.69712">
        <ele>1035</ele>
        <time>2020-05-15T15:21:04Z</time>
      </trkpt>
      <trkpt lat="45.54053" lon="2.69728">
        <ele>1037</ele>
        <time>2020-05-15T15:21:14Z</time>
      </trkpt>
      <trkpt lat="45.54144" lon="2.69796">
        <ele>1046</ele>
        <time>2020-05-15T15:21:48Z</time>
      </trkpt>
      <trkpt lat="45.54179" lon="2.69832">
        <ele>1048</ele>
        <time>2020-05-15T15:22:03Z</time>
      </trkpt>
      <trkpt lat="45.54237" lon="2.69904">
        <ele>1051</ele>
        <time>2020-05-15T15:22:29Z</time>
      </trkpt>
      <trkpt lat="45.54312" lon="2.70009">
        <ele>1059</ele>
        <time>2020-05-15T15:23:04Z</time>
      </trkpt>
      <trkpt lat="45.54337" lon="2.70034">
        <ele>1059</ele>
        <time>2020-05-15T15:23:14Z</time>
      </trkpt>
      <trkpt lat="45.54384" lon="2.70067">
        <ele>1061</ele>
        <time>2020-05-15T15:23:31Z</time>
      </trkpt>
      <trkpt lat="45.54421" lon="2.70098">
        <ele>1062</ele>
        <time>2020-05-15T15:23:46Z</time>
      </trkpt>
      <trkpt lat="45.54459" lon="2.70145">
        <ele>1062</ele>
        <time>2020-05-15T15:24:02Z</time>
      </trkpt>
      <trkpt lat="45.54519" lon="2.70233">
        <ele>1063</ele>
        <time>2020-05-15T15:24:31Z</time>
      </trkpt>
      <trkpt lat="45.54538" lon="2.70257">
        <ele>1063</ele>
        <time>2020-05-15T15:24:39Z</time>
      </trkpt>
      <trkpt lat="45.54553" lon="2.7027">
        <ele>1063</ele>
        <time>2020-05-15T15:24:45Z</time>
      </trkpt>
      <trkpt lat="45.54567" lon="2.70277">
        <ele>1062</ele>
        <time>2020-05-15T15:24:50Z</time>
      </trkpt>
      <trkpt lat="45.5458" lon="2.70278">
        <ele>1060</ele>
        <time>2020-05-15T15:24:55Z</time>
      </trkpt>
      <trkpt lat="45.54596" lon="2.70276">
        <ele>1061</ele>
        <time>2020-05-15T15:25:00Z</time>
      </trkpt>
      <trkpt lat="45.54618" lon="2.70264">
        <ele>1062</ele>
        <time>2020-05-15T15:25:08Z</time>
      </trkpt>
      <trkpt lat="45.54787" lon="2.70149">
        <ele>1070</ele>
        <time>2020-05-15T15:26:10Z</time>
      </trkpt>
      <trkpt lat="45.54817" lon="2.70131">
        <ele>1069</ele>
        <time>2020-05-15T15:26:21Z</time>
      </trkpt>
      <trkpt lat="45.5485" lon="2.7012">
        <ele>1067</ele>
        <time>2020-05-15T15:26:32Z</time>
      </trkpt>
      <trkpt lat="45.54878" lon="2.70117">
        <ele>1064</ele>
        <time>2020-05-15T15:26:42Z</time>
      </trkpt>
      <trkpt lat="45.54919" lon="2.70119">
        <ele>1061</ele>
        <time>2020-05-15T15:26:55Z</time>
      </trkpt>
      <trkpt lat="45.5494" lon="2.70131">
        <ele>1060</ele>
        <time>2020-05-15T15:27:03Z</time>
      </trkpt>
      <trkpt lat="45.54954" lon="2.70145">
        <ele>1059</ele>
        <time>2020-05-15T15:27:09Z</time>
      </trkpt>
      <trkpt lat="45.54967" lon="2.70166">
        <ele>1059</ele>
        <time>2020-05-15T15:27:15Z</time>
      </trkpt>
      <trkpt lat="45.54975" lon="2.7019">
        <ele>1059</ele>
        <time>2020-05-15T15:27:21Z</time>
      </trkpt>
      <trkpt lat="45.54978" lon="2.70215">
        <ele>1059</ele>
        <time>2020-05-15T15:27:27Z</time>
      </trkpt>
      <trkpt lat="45.5498" lon="2.70282">
        <ele>1061</ele>
        <time>2020-05-15T15:27:43Z</time>
      </trkpt>
      <trkpt lat="45.54987" lon="2.70314">
        <ele>1061</ele>
        <time>2020-05-15T15:27:51Z</time>
      </trkpt>
      <trkpt lat="45.54999" lon="2.70331">
        <ele>1059</ele>
        <time>2020-05-15T15:27:57Z</time>
      </trkpt>
      <trkpt lat="45.55015" lon="2.70337">
        <ele>1059</ele>
        <time>2020-05-15T15:28:02Z</time>
      </trkpt>
      <trkpt lat="45.55032" lon="2.70334">
        <ele>1059</ele>
        <time>2020-05-15T15:28:08Z</time>
      </trkpt>
      <trkpt lat="45.55047" lon="2.70323">
        <ele>1059</ele>
        <time>2020-05-15T15:28:13Z</time>
      </trkpt>
      <trkpt lat="45.55058" lon="2.70304">
        <ele>1058</ele>
        <time>2020-05-15T15:28:19Z</time>
      </trkpt>
      <trkpt lat="45.55104" lon="2.70139">
        <ele>1060</ele>
        <time>2020-05-15T15:29:01Z</time>
      </trkpt>
      <trkpt lat="45.55116" lon="2.70107">
        <ele>1062</ele>
        <time>2020-05-15T15:29:09Z</time>
      </trkpt>
      <trkpt lat="45.5513" lon="2.70086">
        <ele>1065</ele>
        <time>2020-05-15T15:29:16Z</time>
      </trkpt>
      <trkpt lat="45.55158" lon="2.70062">
        <ele>1071</ele>
        <time>2020-05-15T15:29:27Z</time>
      </trkpt>
      <trkpt lat="45.5517" lon="2.70048">
        <ele>1073</ele>
        <time>2020-05-15T15:29:32Z</time>
      </trkpt>
      <trkpt lat="45.55178" lon="2.70027">
        <ele>1074</ele>
        <time>2020-05-15T15:29:38Z</time>
      </trkpt>
      <trkpt lat="45.5518" lon="2.69996">
        <ele>1074</ele>
        <time>2020-05-15T15:29:45Z</time>
      </trkpt>
      <trkpt lat="45.55176" lon="2.69978">
        <ele>1074</ele>
        <time>2020-05-15T15:29:49Z</time>
      </trkpt>
      <trkpt lat="45.55158" lon="2.6993">
        <ele>1073</ele>
        <time>2020-05-15T15:30:02Z</time>
      </trkpt>
      <trkpt lat="45.55154" lon="2.69903">
        <ele>1073</ele>
        <time>2020-05-15T15:30:08Z</time>
      </trkpt>
      <trkpt lat="45.55157" lon="2.69877">
        <ele>1074</ele>
        <time>2020-05-15T15:30:15Z</time>
      </trkpt>
      <trkpt lat="45.55164" lon="2.69861">
        <ele>1075</ele>
        <time>2020-05-15T15:30:19Z</time>
      </trkpt>
      <trkpt lat="45.55171" lon="2.6985">
        <ele>1076</ele>
        <time>2020-05-15T15:30:22Z</time>
      </trkpt>
      <trkpt lat="45.55185" lon="2.69842">
        <ele>1077</ele>
        <time>2020-05-15T15:30:27Z</time>
      </trkpt>
      <trkpt lat="45.55204" lon="2.69845">
        <ele>1079</ele>
        <time>2020-05-15T15:30:34Z</time>
      </trkpt>
      <trkpt lat="45.55221" lon="2.69857">
        <ele>1080</ele>
        <time>2020-05-15T15:30:40Z</time>
      </trkpt>
      <trkpt lat="45.55241" lon="2.69895">
        <ele>1085</ele>
        <time>2020-05-15T15:30:51Z</time>
      </trkpt>
      <trkpt lat="45.55254" lon="2.69909">
        <ele>1087</ele>
        <time>2020-05-15T15:30:57Z</time>
      </trkpt>
      <trkpt lat="45.55263" lon="2.69914">
        <ele>1088</ele>
        <time>2020-05-15T15:31:00Z</time>
      </trkpt>
      <trkpt lat="45.55273" lon="2.69915">
        <ele>1088</ele>
        <time>2020-05-15T15:31:03Z</time>
      </trkpt>
      <trkpt lat="45.55293" lon="2.69911">
        <ele>1088</ele>
        <time>2020-05-15T15:31:10Z</time>
      </trkpt>
      <trkpt lat="45.55329" lon="2.69907">
        <ele>1088</ele>
        <time>2020-05-15T15:31:22Z</time>
      </trkpt>
      <trkpt lat="45.55351" lon="2.69916">
        <ele>1089</ele>
        <time>2020-05-15T15:31:30Z</time>
      </trkpt>
      <trkpt lat="45.55362" lon="2.69925">
        <ele>1089</ele>
        <time>2020-05-15T15:31:34Z</time>
      </trkpt>
      <trkpt lat="45.55373" lon="2.69937">
        <ele>1090</ele>
        <time>2020-05-15T15:31:39Z</time>
      </trkpt>
      <trkpt lat="45.55407" lon="2.70002">
        <ele>1094</ele>
        <time>2020-05-15T15:31:58Z</time>
      </trkpt>
      <trkpt lat="45.55421" lon="2.70024">
        <ele>1095</ele>
        <time>2020-05-15T15:32:04Z</time>
      </trkpt>
      <trkpt lat="45.55435" lon="2.70036">
        <ele>1096</ele>
        <time>2020-05-15T15:32:10Z</time>
      </trkpt>
      <trkpt lat="45.55459" lon="2.70048">
        <ele>1097</ele>
        <time>2020-05-15T15:32:18Z</time>
      </trkpt>
      <trkpt lat="45.55653" lon="2.70098">
        <ele>1105</ele>
        <time>2020-05-15T15:33:24Z</time>
      </trkpt>
      <trkpt lat="45.55682" lon="2.70104">
        <ele>1107</ele>
        <time>2020-05-15T15:33:34Z</time>
      </trkpt>
      <trkpt lat="45.55705" lon="2.701">
        <ele>1109</ele>
        <time>2020-05-15T15:33:42Z</time>
      </trkpt>
      <trkpt lat="45.55752" lon="2.70081">
        <ele>1111</ele>
        <time>2020-05-15T15:33:58Z</time>
      </trkpt>
      <trkpt lat="45.55802" lon="2.70055">
        <ele>1113</ele>
        <time>2020-05-15T15:34:16Z</time>
      </trkpt>
      <trkpt lat="45.55819" lon="2.7005">
        <ele>1114</ele>
        <time>2020-05-15T15:34:21Z</time>
      </trkpt>
      <trkpt lat="45.55836" lon="2.70048">
        <ele>1115</ele>
        <time>2020-05-15T15:34:27Z</time>
      </trkpt>
      <trkpt lat="45.55854" lon="2.70053">
        <ele>1115</ele>
        <time>2020-05-15T15:34:33Z</time>
      </trkpt>
      <trkpt lat="45.5588" lon="2.70073">
        <ele>1116</ele>
        <time>2020-05-15T15:34:43Z</time>
      </trkpt>
      <trkpt lat="45.55899" lon="2.70097">
        <ele>1117</ele>
        <time>2020-05-15T15:34:52Z</time>
      </trkpt>
      <trkpt lat="45.56147" lon="2.70491">
        <ele>1144</ele>
        <time>2020-05-15T15:36:55Z</time>
      </trkpt>
      <trkpt lat="45.56167" lon="2.70517">
        <ele>1144</ele>
        <time>2020-05-15T15:37:04Z</time>
      </trkpt>
      <trkpt lat="45.56211" lon="2.70563">
        <ele>1145</ele>
        <time>2020-05-15T15:37:23Z</time>
      </trkpt>
      <trkpt lat="45.56246" lon="2.70608">
        <ele>1146</ele>
        <time>2020-05-15T15:37:38Z</time>
      </trkpt>
      <trkpt lat="45.56278" lon="2.70658">
        <ele>1151</ele>
        <time>2020-05-15T15:37:54Z</time>
      </trkpt>
      <trkpt lat="45.56306" lon="2.70693">
        <ele>1153</ele>
        <time>2020-05-15T15:38:07Z</time>
      </trkpt>
      <trkpt lat="45.56454" lon="2.70811">
        <ele>1154</ele>
        <time>2020-05-15T15:39:03Z</time>
      </trkpt>
      <trkpt lat="45.56481" lon="2.70835">
        <ele>1153</ele>
        <time>2020-05-15T15:39:14Z</time>
      </trkpt>
      <trkpt lat="45.56507" lon="2.70871">
        <ele>1152</ele>
        <time>2020-05-15T15:39:26Z</time>
      </trkpt>
      <trkpt lat="45.56592" lon="2.71008">
        <ele>1146</ele>
        <time>2020-05-15T15:40:09Z</time>
      </trkpt>
      <trkpt lat="45.56618" lon="2.71058">
        <ele>1145</ele>
        <time>2020-05-15T15:40:23Z</time>
      </trkpt>
      <trkpt lat="45.56629" lon="2.71097">
        <ele>1145</ele>
        <time>2020-05-15T15:40:33Z</time>
      </trkpt>
      <trkpt lat="45.56653" lon="2.7121">
        <ele>1139</ele>
        <time>2020-05-15T15:41:00Z</time>
      </trkpt>
      <trkpt lat="45.56662" lon="2.71236">
        <ele>1137</ele>
        <time>2020-05-15T15:41:07Z</time>
      </trkpt>
      <trkpt lat="45.56676" lon="2.7126">
        <ele>1137</ele>
        <time>2020-05-15T15:41:15Z</time>
      </trkpt>
      <trkpt lat="45.56781" lon="2.71372">
        <ele>1129</ele>
        <time>2020-05-15T15:41:58Z</time>
      </trkpt>
      <trkpt lat="45.56804" lon="2.71395">
        <ele>1127</ele>
        <time>2020-05-15T15:42:08Z</time>
      </trkpt>
      <trkpt lat="45.56873" lon="2.7143">
        <ele>1121</ele>
        <time>2020-05-15T15:42:32Z</time>
      </trkpt>
      <trkpt lat="45.56925" lon="2.71449">
        <ele>1118</ele>
        <time>2020-05-15T15:42:50Z</time>
      </trkpt>
      <trkpt lat="45.56948" lon="2.71451">
        <ele>1115</ele>
        <time>2020-05-15T15:42:58Z</time>
      </trkpt>
      <trkpt lat="45.56971" lon="2.7144">
        <ele>1114</ele>
        <time>2020-05-15T15:43:06Z</time>
      </trkpt>
      <trkpt lat="45.57086" lon="2.71361">
        <ele>1109</ele>
        <time>2020-05-15T15:43:48Z</time>
      </trkpt>
      <trkpt lat="45.57138" lon="2.71313">
        <ele>1106</ele>
        <time>2020-05-15T15:44:09Z</time>
      </trkpt>
      <trkpt lat="45.57171" lon="2.713">
        <ele>1103</ele>
        <time>2020-05-15T15:44:20Z</time>
      </trkpt>
      <trkpt lat="45.57207" lon="2.71294">
        <ele>1103</ele>
        <time>2020-05-15T15:44:32Z</time>
      </trkpt>
      <trkpt lat="45.5723" lon="2.71282">
        <ele>1103</ele>
        <time>2020-05-15T15:44:41Z</time>
      </trkpt>
      <trkpt lat="45.57248" lon="2.71261">
        <ele>1102</ele>
        <time>2020-05-15T15:44:48Z</time>
      </trkpt>
      <trkpt lat="45.5726" lon="2.71225">
        <ele>1103</ele>
        <time>2020-05-15T15:44:58Z</time>
      </trkpt>
      <trkpt lat="45.57282" lon="2.71113">
        <ele>1107</ele>
        <time>2020-05-15T15:45:25Z</time>
      </trkpt>
      <trkpt lat="45.57305" lon="2.71029">
        <ele>1106</ele>
        <time>2020-05-15T15:45:46Z</time>
      </trkpt>
      <trkpt lat="45.5736" lon="2.70888">
        <ele>1103</ele>
        <time>2020-05-15T15:46:24Z</time>
      </trkpt>
      <trkpt lat="45.57389" lon="2.70801">
        <ele>1101</ele>
        <time>2020-05-15T15:46:46Z</time>
      </trkpt>
      <trkpt lat="45.57422" lon="2.70648">
        <ele>1098</ele>
        <time>2020-05-15T15:47:24Z</time>
      </trkpt>
      <trkpt lat="45.57442" lon="2.70577">
        <ele>1096</ele>
        <time>2020-05-15T15:47:41Z</time>
      </trkpt>
      <trkpt lat="45.57464" lon="2.70521">
        <ele>1095</ele>
        <time>2020-05-15T15:47:56Z</time>
      </trkpt>
      <trkpt lat="45.57573" lon="2.70266">
        <ele>1084</ele>
        <time>2020-05-15T15:49:06Z</time>
      </trkpt>
      <trkpt lat="45.57592" lon="2.70237">
        <ele>1083</ele>
        <time>2020-05-15T15:49:15Z</time>
      </trkpt>
      <trkpt lat="45.57615" lon="2.70219">
        <ele>1083</ele>
        <time>2020-05-15T15:49:24Z</time>
      </trkpt>
      <trkpt lat="45.57641" lon="2.7021">
        <ele>1083</ele>
        <time>2020-05-15T15:49:33Z</time>
      </trkpt>
      <trkpt lat="45.57672" lon="2.70211">
        <ele>1084</ele>
        <time>2020-05-15T15:49:43Z</time>
      </trkpt>
      <trkpt lat="45.57816" lon="2.70296">
        <ele>1079</ele>
        <time>2020-05-15T15:50:35Z</time>
      </trkpt>
      <trkpt lat="45.5784" lon="2.70307">
        <ele>1079</ele>
        <time>2020-05-15T15:50:44Z</time>
      </trkpt>
      <trkpt lat="45.57865" lon="2.70315">
        <ele>1078</ele>
        <time>2020-05-15T15:50:52Z</time>
      </trkpt>
      <trkpt lat="45.57896" lon="2.70314">
        <ele>1076</ele>
        <time>2020-05-15T15:51:03Z</time>
      </trkpt>
      <trkpt lat="45.57961" lon="2.70302">
        <ele>1070</ele>
        <time>2020-05-15T15:51:25Z</time>
      </trkpt>
      <trkpt lat="45.57983" lon="2.70303">
        <ele>1069</ele>
        <time>2020-05-15T15:51:32Z</time>
      </trkpt>
      <trkpt lat="45.58" lon="2.70311">
        <ele>1069</ele>
        <time>2020-05-15T15:51:38Z</time>
      </trkpt>
      <trkpt lat="45.58014" lon="2.70326">
        <ele>1067</ele>
        <time>2020-05-15T15:51:44Z</time>
      </trkpt>
      <trkpt lat="45.58027" lon="2.70346">
        <ele>1066</ele>
        <time>2020-05-15T15:51:50Z</time>
      </trkpt>
      <trkpt lat="45.5805" lon="2.70416">
        <ele>1068</ele>
        <time>2020-05-15T15:52:08Z</time>
      </trkpt>
      <trkpt lat="45.58061" lon="2.7044">
        <ele>1068</ele>
        <time>2020-05-15T15:52:15Z</time>
      </trkpt>
      <trkpt lat="45.58073" lon="2.70456">
        <ele>1068</ele>
        <time>2020-05-15T15:52:20Z</time>
      </trkpt>
      <trkpt lat="45.5811" lon="2.70493">
        <ele>1064</ele>
        <time>2020-05-15T15:52:35Z</time>
      </trkpt>
      <trkpt lat="45.5812" lon="2.70506">
        <ele>1063</ele>
        <time>2020-05-15T15:52:40Z</time>
      </trkpt>
      <trkpt lat="45.5813" lon="2.70523">
        <ele>1063</ele>
        <time>2020-05-15T15:52:45Z</time>
      </trkpt>
      <trkpt lat="45.58157" lon="2.70586">
        <ele>1065</ele>
        <time>2020-05-15T15:53:02Z</time>
      </trkpt>
      <trkpt lat="45.58168" lon="2.706">
        <ele>1064</ele>
        <time>2020-05-15T15:53:07Z</time>
      </trkpt>
      <trkpt lat="45.58189" lon="2.70611">
        <ele>1062</ele>
        <time>2020-05-15T15:53:15Z</time>
      </trkpt>
      <trkpt lat="45.58244" lon="2.70628">
        <ele>1055</ele>
        <time>2020-05-15T15:53:34Z</time>
      </trkpt>
      <trkpt lat="45.58267" lon="2.70642">
        <ele>1053</ele>
        <time>2020-05-15T15:53:42Z</time>
      </trkpt>
      <trkpt lat="45.58291" lon="2.70665">
        <ele>1052</ele>
        <time>2020-05-15T15:53:52Z</time>
      </trkpt>
      <trkpt lat="45.58314" lon="2.70694">
        <ele>1051</ele>
        <time>2020-05-15T15:54:02Z</time>
      </trkpt>
      <trkpt lat="45.58392" lon="2.70827">
        <ele>1047</ele>
        <time>2020-05-15T15:54:42Z</time>
      </trkpt>
      <trkpt lat="45.58401" lon="2.70853">
        <ele>1044</ele>
        <time>2020-05-15T15:54:49Z</time>
      </trkpt>
      <trkpt lat="45.58402" lon="2.70876">
        <ele>1043</ele>
        <time>2020-05-15T15:54:54Z</time>
      </trkpt>
      <trkpt lat="45.58399" lon="2.70904">
        <ele>1041</ele>
        <time>2020-05-15T15:55:01Z</time>
      </trkpt>
      <trkpt lat="45.58379" lon="2.71013">
        <ele>1036</ele>
        <time>2020-05-15T15:55:27Z</time>
      </trkpt>
      <trkpt lat="45.58368" lon="2.7104">
        <ele>1035</ele>
        <time>2020-05-15T15:55:35Z</time>
      </trkpt>
      <trkpt lat="45.58327" lon="2.71074">
        <ele>1039</ele>
        <time>2020-05-15T15:55:50Z</time>
      </trkpt>
      <trkpt lat="45.58317" lon="2.71095">
        <ele>1039</ele>
        <time>2020-05-15T15:55:56Z</time>
      </trkpt>
      <trkpt lat="45.58313" lon="2.71116">
        <ele>1037</ele>
        <time>2020-05-15T15:56:01Z</time>
      </trkpt>
      <trkpt lat="45.58317" lon="2.71146">
        <ele>1033</ele>
        <time>2020-05-15T15:56:09Z</time>
      </trkpt>
      <trkpt lat="45.58338" lon="2.71209">
        <ele>1026</ele>
        <time>2020-05-15T15:56:25Z</time>
      </trkpt>
      <trkpt lat="45.58342" lon="2.71252">
        <ele>1024</ele>
        <time>2020-05-15T15:56:35Z</time>
      </trkpt>
      <trkpt lat="45.58343" lon="2.71382">
        <ele>1021</ele>
        <time>2020-05-15T15:57:05Z</time>
      </trkpt>
      <trkpt lat="45.58329" lon="2.71393">
        <ele>1023</ele>
        <time>2020-05-15T15:57:11Z</time>
      </trkpt>
      <trkpt lat="45.5831" lon="2.71447">
        <ele>1023</ele>
        <time>2020-05-15T15:57:25Z</time>
      </trkpt>
      <trkpt lat="45.58285" lon="2.715">
        <ele>1023</ele>
        <time>2020-05-15T15:57:40Z</time>
      </trkpt>
      <trkpt lat="45.58261" lon="2.71532">
        <ele>1025</ele>
        <time>2020-05-15T15:57:51Z</time>
      </trkpt>
      <trkpt lat="45.58275" lon="2.71765">
        <ele>1019</ele>
        <time>2020-05-15T15:58:45Z</time>
      </trkpt>
      <trkpt lat="45.58289" lon="2.71821">
        <ele>1017</ele>
        <time>2020-05-15T15:58:59Z</time>
      </trkpt>
      <trkpt lat="45.58313" lon="2.7195">
        <ele>1015</ele>
        <time>2020-05-15T15:59:30Z</time>
      </trkpt>
      <trkpt lat="45.58325" lon="2.72009">
        <ele>1014</ele>
        <time>2020-05-15T15:59:45Z</time>
      </trkpt>
      <trkpt lat="45.58324" lon="2.72026">
        <ele>1013</ele>
        <time>2020-05-15T15:59:49Z</time>
      </trkpt>
      <trkpt lat="45.5832" lon="2.72043">
        <ele>1012</ele>
        <time>2020-05-15T15:59:53Z</time>
      </trkpt>
      <trkpt lat="45.5831" lon="2.72065">
        <ele>1011</ele>
        <time>2020-05-15T15:59:59Z</time>
      </trkpt>
      <trkpt lat="45.58298" lon="2.72082">
        <ele>1010</ele>
        <time>2020-05-15T16:00:05Z</time>
      </trkpt>
      <trkpt lat="45.5828" lon="2.72101">
        <ele>1008</ele>
        <time>2020-05-15T16:00:12Z</time>
      </trkpt>
      <trkpt lat="45.5828" lon="2.72115">
        <ele>1007</ele>
        <time>2020-05-15T16:00:15Z</time>
      </trkpt>
      <trkpt lat="45.58286" lon="2.72143">
        <ele>1005</ele>
        <time>2020-05-15T16:00:22Z</time>
      </trkpt>
      <trkpt lat="45.58286" lon="2.72154">
        <ele>1004</ele>
        <time>2020-05-15T16:00:25Z</time>
      </trkpt>
      <trkpt lat="45.58283" lon="2.72163">
        <ele>1003</ele>
        <time>2020-05-15T16:00:27Z</time>
      </trkpt>
      <trkpt lat="45.58277" lon="2.72169">
        <ele>1002</ele>
        <time>2020-05-15T16:00:30Z</time>
      </trkpt>
      <trkpt lat="45.5827" lon="2.72169">
        <ele>1002</ele>
        <time>2020-05-15T16:00:32Z</time>
      </trkpt>
      <trkpt lat="45.58262" lon="2.72164">
        <ele>1002</ele>
        <time>2020-05-15T16:00:35Z</time>
      </trkpt>
      <trkpt lat="45.5825" lon="2.72154">
        <ele>1002</ele>
        <time>2020-05-15T16:00:39Z</time>
      </trkpt>
      <trkpt lat="45.58241" lon="2.72149">
        <ele>1004</ele>
        <time>2020-05-15T16:00:43Z</time>
      </trkpt>
      <trkpt lat="45.58225" lon="2.72149">
        <ele>1005</ele>
        <time>2020-05-15T16:00:48Z</time>
      </trkpt>
      <trkpt lat="45.58211" lon="2.72158">
        <ele>1006</ele>
        <time>2020-05-15T16:00:53Z</time>
      </trkpt>
      <trkpt lat="45.58204" lon="2.72173">
        <ele>1006</ele>
        <time>2020-05-15T16:00:57Z</time>
      </trkpt>
      <trkpt lat="45.58188" lon="2.72268">
        <ele>995</ele>
        <time>2020-05-15T16:01:20Z</time>
      </trkpt>
      <trkpt lat="45.58183" lon="2.72281">
        <ele>992</ele>
        <time>2020-05-15T16:01:24Z</time>
      </trkpt>
      <trkpt lat="45.58176" lon="2.7229">
        <ele>991</ele>
        <time>2020-05-15T16:01:27Z</time>
      </trkpt>
      <trkpt lat="45.58167" lon="2.72291">
        <ele>991</ele>
        <time>2020-05-15T16:01:30Z</time>
      </trkpt>
      <trkpt lat="45.58132" lon="2.72281">
        <ele>995</ele>
        <time>2020-05-15T16:01:42Z</time>
      </trkpt>
      <trkpt lat="45.58121" lon="2.72282">
        <ele>996</ele>
        <time>2020-05-15T16:01:45Z</time>
      </trkpt>
      <trkpt lat="45.58072" lon="2.72302">
        <ele>995</ele>
        <time>2020-05-15T16:02:02Z</time>
      </trkpt>
      <trkpt lat="45.58059" lon="2.72317">
        <ele>994</ele>
        <time>2020-05-15T16:02:08Z</time>
      </trkpt>
      <trkpt lat="45.58029" lon="2.72366">
        <ele>990</ele>
        <time>2020-05-15T16:02:23Z</time>
      </trkpt>
      <trkpt lat="45.58022" lon="2.72386">
        <ele>988</ele>
        <time>2020-05-15T16:02:28Z</time>
      </trkpt>
      <trkpt lat="45.58021" lon="2.72393">
        <ele>987</ele>
        <time>2020-05-15T16:02:30Z</time>
      </trkpt>
      <trkpt lat="45.58024" lon="2.72398">
        <ele>985</ele>
        <time>2020-05-15T16:02:32Z</time>
      </trkpt>
      <trkpt lat="45.5803" lon="2.72397">
        <ele>985</ele>
        <time>2020-05-15T16:02:34Z</time>
      </trkpt>
      <trkpt lat="45.58054" lon="2.72373">
        <ele>985</ele>
        <time>2020-05-15T16:02:43Z</time>
      </trkpt>
      <trkpt lat="45.5808" lon="2.72354">
        <ele>983</ele>
        <time>2020-05-15T16:02:53Z</time>
      </trkpt>
      <trkpt lat="45.58107" lon="2.72341">
        <ele>983</ele>
        <time>2020-05-15T16:03:03Z</time>
      </trkpt>
      <trkpt lat="45.58126" lon="2.72344">
        <ele>982</ele>
        <time>2020-05-15T16:03:09Z</time>
      </trkpt>
      <trkpt lat="45.58146" lon="2.72361">
        <ele>978</ele>
        <time>2020-05-15T16:03:17Z</time>
      </trkpt>
      <trkpt lat="45.58168" lon="2.72395">
        <ele>972</ele>
        <time>2020-05-15T16:03:28Z</time>
      </trkpt>
      <trkpt lat="45.5818" lon="2.72407">
        <ele>970</ele>
        <time>2020-05-15T16:03:32Z</time>
      </trkpt>
      <trkpt lat="45.58211" lon="2.72421">
        <ele>969</ele>
        <time>2020-05-15T16:03:43Z</time>
      </trkpt>
      <trkpt lat="45.58254" lon="2.72457">
        <ele>963</ele>
        <time>2020-05-15T16:04:00Z</time>
      </trkpt>
      <trkpt lat="45.58293" lon="2.72468">
        <ele>963</ele>
        <time>2020-05-15T16:04:13Z</time>
      </trkpt>
      <trkpt lat="45.58312" lon="2.72485">
        <ele>960</ele>
        <time>2020-05-15T16:04:21Z</time>
      </trkpt>
      <trkpt lat="45.58329" lon="2.72508">
        <ele>957</ele>
        <time>2020-05-15T16:04:28Z</time>
      </trkpt>
      <trkpt lat="45.58344" lon="2.72513">
        <ele>958</ele>
        <time>2020-05-15T16:04:34Z</time>
      </trkpt>
      <trkpt lat="45.58364" lon="2.72514">
        <ele>960</ele>
        <time>2020-05-15T16:04:40Z</time>
      </trkpt>
      <trkpt lat="45.58445" lon="2.72587">
        <ele>949</ele>
        <time>2020-05-15T16:05:12Z</time>
      </trkpt>
      <trkpt lat="45.58456" lon="2.72607">
        <ele>948</ele>
        <time>2020-05-15T16:05:18Z</time>
      </trkpt>
      <trkpt lat="45.58491" lon="2.72693">
        <ele>935</ele>
        <time>2020-05-15T16:05:41Z</time>
      </trkpt>
      <trkpt lat="45.58498" lon="2.72714">
        <ele>932</ele>
        <time>2020-05-15T16:05:47Z</time>
      </trkpt>
      <trkpt lat="45.5851" lon="2.72731">
        <ele>930</ele>
        <time>2020-05-15T16:05:52Z</time>
      </trkpt>
      <trkpt lat="45.58525" lon="2.72739">
        <ele>928</ele>
        <time>2020-05-15T16:05:58Z</time>
      </trkpt>
      <trkpt lat="45.58587" lon="2.7275">
        <ele>924</ele>
        <time>2020-05-15T16:06:19Z</time>
      </trkpt>
      <trkpt lat="45.586" lon="2.72746">
        <ele>922</ele>
        <time>2020-05-15T16:06:23Z</time>
      </trkpt>
      <trkpt lat="45.58618" lon="2.72733">
        <ele>922</ele>
        <time>2020-05-15T16:06:30Z</time>
      </trkpt>
      <trkpt lat="45.58635" lon="2.72732">
        <ele>920</ele>
        <time>2020-05-15T16:06:35Z</time>
      </trkpt>
      <trkpt lat="45.58676" lon="2.72757">
        <ele>913</ele>
        <time>2020-05-15T16:06:50Z</time>
      </trkpt>
      <trkpt lat="45.58696" lon="2.72755">
        <ele>909</ele>
        <time>2020-05-15T16:06:57Z</time>
      </trkpt>
      <trkpt lat="45.58708" lon="2.7276">
        <ele>907</ele>
        <time>2020-05-15T16:07:01Z</time>
      </trkpt>
      <trkpt lat="45.58749" lon="2.72807">
        <ele>898</ele>
        <time>2020-05-15T16:07:19Z</time>
      </trkpt>
      <trkpt lat="45.58769" lon="2.72838">
        <ele>891</ele>
        <time>2020-05-15T16:07:29Z</time>
      </trkpt>
      <trkpt lat="45.58774" lon="2.72837">
        <ele>890</ele>
        <time>2020-05-15T16:07:30Z</time>
      </trkpt>
      <trkpt lat="45.58789" lon="2.72864">
        <ele>885</ele>
        <time>2020-05-15T16:07:38Z</time>
      </trkpt>
      <trkpt lat="45.58792" lon="2.72884">
        <ele>882</ele>
        <time>2020-05-15T16:07:43Z</time>
      </trkpt>
      <trkpt lat="45.58786" lon="2.72904">
        <ele>882</ele>
        <time>2020-05-15T16:07:48Z</time>
      </trkpt>
      <trkpt lat="45.58758" lon="2.72928">
        <ele>886</ele>
        <time>2020-05-15T16:07:59Z</time>
      </trkpt>
      <trkpt lat="45.58721" lon="2.72998">
        <ele>886</ele>
        <time>2020-05-15T16:08:20Z</time>
      </trkpt>
      <trkpt lat="45.58712" lon="2.73023">
        <ele>885</ele>
        <time>2020-05-15T16:08:26Z</time>
      </trkpt>
      <trkpt lat="45.58711" lon="2.73044">
        <ele>882</ele>
        <time>2020-05-15T16:08:31Z</time>
      </trkpt>
      <trkpt lat="45.58728" lon="2.73158">
        <ele>867</ele>
        <time>2020-05-15T16:08:58Z</time>
      </trkpt>
      <trkpt lat="45.58728" lon="2.73179">
        <ele>866</ele>
        <time>2020-05-15T16:09:03Z</time>
      </trkpt>
      <trkpt lat="45.58725" lon="2.73189">
        <ele>866</ele>
        <time>2020-05-15T16:09:06Z</time>
      </trkpt>
      <trkpt lat="45.5872" lon="2.73207">
        <ele>866</ele>
        <time>2020-05-15T16:09:10Z</time>
      </trkpt>
      <trkpt lat="45.58717" lon="2.73236">
        <ele>865</ele>
        <time>2020-05-15T16:09:17Z</time>
      </trkpt>
      <trkpt lat="45.58686" lon="2.73335">
        <ele>857</ele>
        <time>2020-05-15T16:09:42Z</time>
      </trkpt>
      <trkpt lat="45.58655" lon="2.73423">
        <ele>854</ele>
        <time>2020-05-15T16:10:05Z</time>
      </trkpt>
      <trkpt lat="45.58653" lon="2.73435">
        <ele>856</ele>
        <time>2020-05-15T16:10:08Z</time>
      </trkpt>
      <trkpt lat="45.58657" lon="2.73439">
        <ele>855</ele>
        <time>2020-05-15T16:10:10Z</time>
      </trkpt>
      <trkpt lat="45.58673" lon="2.73459">
        <ele>854</ele>
        <time>2020-05-15T16:10:17Z</time>
      </trkpt>
      <trkpt lat="45.58677" lon="2.73463">
        <ele>854</ele>
        <time>2020-05-15T16:10:19Z</time>
      </trkpt>
      <trkpt lat="45.58687" lon="2.73504">
        <ele>856</ele>
        <time>2020-05-15T16:10:29Z</time>
      </trkpt>
      <trkpt lat="45.58699" lon="2.73523">
        <ele>857</ele>
        <time>2020-05-15T16:10:35Z</time>
      </trkpt>
      <trkpt lat="45.58725" lon="2.73555">
        <ele>856</ele>
        <time>2020-05-15T16:10:46Z</time>
      </trkpt>
      <trkpt lat="45.5873" lon="2.73562">
        <ele>855</ele>
        <time>2020-05-15T16:10:48Z</time>
      </trkpt>
      <trkpt lat="45.58746" lon="2.73579">
        <ele>854</ele>
        <time>2020-05-15T16:10:55Z</time>
      </trkpt>
      <trkpt lat="45.58745" lon="2.73572">
        <ele>854</ele>
        <time>2020-05-15T16:10:57Z</time>
      </trkpt>
      <trkpt lat="45.58738" lon="2.73455">
        <ele>853</ele>
        <time>2020-05-15T16:11:24Z</time>
      </trkpt>
      <trkpt lat="45.58731" lon="2.73361">
        <ele>853</ele>
        <time>2020-05-15T16:11:46Z</time>
      </trkpt>
      <trkpt lat="45.58728" lon="2.7336">
        <ele>853</ele>
        <time>2020-05-15T16:11:47Z</time>
      </trkpt>
      <trkpt lat="45.58711" lon="2.73358">
        <ele>854</ele>
        <time>2020-05-15T16:11:53Z</time>
      </trkpt>
      <trkpt lat="45.58712" lon="2.73361">
        <ele>854</ele>
        <time>2020-05-15T16:11:54Z</time>
      </trkpt>
      <trkpt lat="45.58727" lon="2.73543">
        <ele>855</ele>
        <time>2020-05-15T16:12:37Z</time>
      </trkpt>
      <trkpt lat="45.58725" lon="2.73555">
        <ele>856</ele>
        <time>2020-05-15T16:12:39Z</time>
      </trkpt>
      <trkpt lat="45.5873" lon="2.73562">
        <ele>855</ele>
        <time>2020-05-15T16:12:42Z</time>
      </trkpt>
      <trkpt lat="45.58746" lon="2.73579">
        <ele>854</ele>
        <time>2020-05-15T16:12:48Z</time>
      </trkpt>
      <trkpt lat="45.58753" lon="2.73591">
        <ele>853</ele>
        <time>2020-05-15T16:12:52Z</time>
      </trkpt>
      <trkpt lat="45.58758" lon="2.73599">
        <ele>853</ele>
        <time>2020-05-15T16:12:55Z</time>
      </trkpt>
      <trkpt lat="45.5876" lon="2.73602">
        <ele>853</ele>
        <time>2020-05-15T16:12:56Z</time>
      </trkpt>
      <trkpt lat="45.58757" lon="2.73611">
        <ele>853</ele>
        <time>2020-05-15T16:12:58Z</time>
      </trkpt>
      <trkpt lat="45.58758" lon="2.73619">
        <ele>853</ele>
        <time>2020-05-15T16:13:00Z</time>
      </trkpt>
      <trkpt lat="45.58759" lon="2.73622">
        <ele>853</ele>
        <time>2020-05-15T16:13:01Z</time>
      </trkpt>
      <trkpt lat="45.58767" lon="2.73627">
        <ele>853</ele>
        <time>2020-05-15T16:13:03Z</time>
      </trkpt>
      <trkpt lat="45.58769" lon="2.73627">
        <ele>853</ele>
        <time>2020-05-15T16:13:04Z</time>
      </trkpt>
      <trkpt lat="45.58776" lon="2.7363">
        <ele>853</ele>
        <time>2020-05-15T16:13:07Z</time>
      </trkpt>
      <trkpt lat="45.58784" lon="2.73636">
        <ele>853</ele>
        <time>2020-05-15T16:13:10Z</time>
      </trkpt>
      <trkpt lat="45.58785" lon="2.7364">
        <ele>853</ele>
        <time>2020-05-15T16:13:11Z</time>
      </trkpt>
      <trkpt lat="45.58796" lon="2.73665">
        <ele>851</ele>
        <time>2020-05-15T16:13:17Z</time>
      </trkpt>
      <trkpt lat="45.58815" lon="2.73712">
        <ele>850</ele>
        <time>2020-05-15T16:13:30Z</time>
      </trkpt>
      <trkpt lat="45.58817" lon="2.73716">
        <ele>850</ele>
        <time>2020-05-15T16:13:31Z</time>
      </trkpt>
      <trkpt lat="45.58822" lon="2.73727">
        <ele>850</ele>
        <time>2020-05-15T16:13:34Z</time>
      </trkpt>
      <trkpt lat="45.58827" lon="2.73738">
        <ele>849</ele>
        <time>2020-05-15T16:13:37Z</time>
      </trkpt>
      <trkpt lat="45.58827" lon="2.73739">
        <ele>849</ele>
        <time>2020-05-15T16:13:38Z</time>
      </trkpt>
      <trkpt lat="45.58837" lon="2.73763">
        <ele>850</ele>
        <time>2020-05-15T16:13:44Z</time>
      </trkpt>
      <trkpt lat="45.58846" lon="2.73781">
        <ele>852</ele>
        <time>2020-05-15T16:13:49Z</time>
      </trkpt>
      <trkpt lat="45.5885" lon="2.73798">
        <ele>853</ele>
        <time>2020-05-15T16:13:54Z</time>
      </trkpt>
      <trkpt lat="45.58859" lon="2.73851">
        <ele>855</ele>
        <time>2020-05-15T16:14:06Z</time>
      </trkpt>
      <trkpt lat="45.58863" lon="2.73872">
        <ele>855</ele>
        <time>2020-05-15T16:14:11Z</time>
      </trkpt>
      <trkpt lat="45.58865" lon="2.73881">
        <ele>856</ele>
        <time>2020-05-15T16:14:14Z</time>
      </trkpt>
      <trkpt lat="45.58875" lon="2.73937">
        <ele>856</ele>
        <time>2020-05-15T16:14:27Z</time>
      </trkpt>
      <trkpt lat="45.58877" lon="2.73952">
        <ele>856</ele>
        <time>2020-05-15T16:14:31Z</time>
      </trkpt>
      <trkpt lat="45.58879" lon="2.73968">
        <ele>856</ele>
        <time>2020-05-15T16:14:34Z</time>
      </trkpt>
      <trkpt lat="45.58894" lon="2.74092">
        <ele>856</ele>
        <time>2020-05-15T16:15:04Z</time>
      </trkpt>
      <trkpt lat="45.58896" lon="2.74111">
        <ele>856</ele>
        <time>2020-05-15T16:15:08Z</time>
      </trkpt>
      <trkpt lat="45.58899" lon="2.7413">
        <ele>856</ele>
        <time>2020-05-15T16:15:13Z</time>
      </trkpt>
      <trkpt lat="45.58906" lon="2.74188">
        <ele>856</ele>
        <time>2020-05-15T16:15:27Z</time>
      </trkpt>
      <trkpt lat="45.58909" lon="2.7421">
        <ele>856</ele>
        <time>2020-05-15T16:15:32Z</time>
      </trkpt>
      <trkpt lat="45.58912" lon="2.74234">
        <ele>856</ele>
        <time>2020-05-15T16:15:37Z</time>
      </trkpt>
      <trkpt lat="45.58913" lon="2.74256">
        <ele>856</ele>
        <time>2020-05-15T16:15:43Z</time>
      </trkpt>
      <trkpt lat="45.58916" lon="2.743">
        <ele>857</ele>
        <time>2020-05-15T16:15:53Z</time>
      </trkpt>
      <trkpt lat="45.58916" lon="2.74313">
        <ele>858</ele>
        <time>2020-05-15T16:15:56Z</time>
      </trkpt>
      <trkpt lat="45.58912" lon="2.74321">
        <ele>858</ele>
        <time>2020-05-15T16:15:58Z</time>
      </trkpt>
      <trkpt lat="45.58899" lon="2.7433">
        <ele>859</ele>
        <time>2020-05-15T16:16:03Z</time>
      </trkpt>
      <trkpt lat="45.58889" lon="2.74337">
        <ele>859</ele>
        <time>2020-05-15T16:16:07Z</time>
      </trkpt>
      <trkpt lat="45.58894" lon="2.74348">
        <ele>859</ele>
        <time>2020-05-15T16:16:10Z</time>
      </trkpt>
      <trkpt lat="45.58906" lon="2.74379">
        <ele>858</ele>
        <time>2020-05-15T16:16:18Z</time>
      </trkpt>
      <trkpt lat="45.58921" lon="2.7442">
        <ele>857</ele>
        <time>2020-05-15T16:16:29Z</time>
      </trkpt>
      <trkpt lat="45.58934" lon="2.74455">
        <ele>858</ele>
        <time>2020-05-15T16:16:38Z</time>
      </trkpt>
      <trkpt lat="45.58938" lon="2.74464">
        <ele>858</ele>
        <time>2020-05-15T16:16:41Z</time>
      </trkpt>
      <trkpt lat="45.58963" lon="2.74532">
        <ele>859</ele>
        <time>2020-05-15T16:16:59Z</time>
      </trkpt>
      <trkpt lat="45.58968" lon="2.74545">
        <ele>859</ele>
        <time>2020-05-15T16:17:02Z</time>
      </trkpt>
      <trkpt lat="45.58981" lon="2.74587">
        <ele>859</ele>
        <time>2020-05-15T16:17:13Z</time>
      </trkpt>
      <trkpt lat="45.58987" lon="2.74622">
        <ele>860</ele>
        <time>2020-05-15T16:17:21Z</time>
      </trkpt>
      <trkpt lat="45.5899" lon="2.74647">
        <ele>860</ele>
        <time>2020-05-15T16:17:27Z</time>
      </trkpt>
      <trkpt lat="45.58992" lon="2.74682">
        <ele>860</ele>
        <time>2020-05-15T16:17:35Z</time>
      </trkpt>
      <trkpt lat="45.58993" lon="2.74689">
        <ele>861</ele>
        <time>2020-05-15T16:17:37Z</time>
      </trkpt>
      <trkpt lat="45.59004" lon="2.74825">
        <ele>861</ele>
        <time>2020-05-15T16:18:09Z</time>
      </trkpt>
      <trkpt lat="45.59004" lon="2.74839">
        <ele>861</ele>
        <time>2020-05-15T16:18:12Z</time>
      </trkpt>
      <trkpt lat="45.59005" lon="2.75025">
        <ele>864</ele>
        <time>2020-05-15T16:18:56Z</time>
      </trkpt>
      <trkpt lat="45.59005" lon="2.75029">
        <ele>864</ele>
        <time>2020-05-15T16:18:57Z</time>
      </trkpt>
      <trkpt lat="45.59007" lon="2.75252">
        <ele>867</ele>
        <time>2020-05-15T16:19:49Z</time>
      </trkpt>
      <trkpt lat="45.5901" lon="2.75746">
        <ele>875</ele>
        <time>2020-05-15T16:21:44Z</time>
      </trkpt>
      <trkpt lat="45.59011" lon="2.75783">
        <ele>876</ele>
        <time>2020-05-15T16:21:53Z</time>
      </trkpt>
      <trkpt lat="45.59012" lon="2.75799">
        <ele>876</ele>
        <time>2020-05-15T16:21:56Z</time>
      </trkpt>
      <trkpt lat="45.59036" lon="2.75938">
        <ele>882</ele>
        <time>2020-05-15T16:22:30Z</time>
      </trkpt>
      <trkpt lat="45.59051" lon="2.7604">
        <ele>883</ele>
        <time>2020-05-15T16:22:54Z</time>
      </trkpt>
      <trkpt lat="45.59052" lon="2.76075">
        <ele>883</ele>
        <time>2020-05-15T16:23:02Z</time>
      </trkpt>
      <trkpt lat="45.59046" lon="2.76145">
        <ele>883</ele>
        <time>2020-05-15T16:23:19Z</time>
      </trkpt>
      <trkpt lat="45.59027" lon="2.76234">
        <ele>884</ele>
        <time>2020-05-15T16:23:40Z</time>
      </trkpt>
      <trkpt lat="45.59015" lon="2.76294">
        <ele>885</ele>
        <time>2020-05-15T16:23:55Z</time>
      </trkpt>
      <trkpt lat="45.58959" lon="2.76568">
        <ele>892</ele>
        <time>2020-05-15T16:25:02Z</time>
      </trkpt>
      <trkpt lat="45.5894" lon="2.76641">
        <ele>894</ele>
        <time>2020-05-15T16:25:20Z</time>
      </trkpt>
      <trkpt lat="45.58937" lon="2.76641">
        <ele>894</ele>
        <time>2020-05-15T16:25:21Z</time>
      </trkpt>
      <trkpt lat="45.58932" lon="2.76642">
        <ele>894</ele>
        <time>2020-05-15T16:25:23Z</time>
      </trkpt>
      <trkpt lat="45.58928" lon="2.76648">
        <ele>894</ele>
        <time>2020-05-15T16:25:25Z</time>
      </trkpt>
      <trkpt lat="45.58927" lon="2.76655">
        <ele>894</ele>
        <time>2020-05-15T16:25:26Z</time>
      </trkpt>
      <trkpt lat="45.58929" lon="2.76663">
        <ele>894</ele>
        <time>2020-05-15T16:25:28Z</time>
      </trkpt>
      <trkpt lat="45.58935" lon="2.76668">
        <ele>894</ele>
        <time>2020-05-15T16:25:30Z</time>
      </trkpt>
      <trkpt lat="45.58925" lon="2.76739">
        <ele>896</ele>
        <time>2020-05-15T16:25:47Z</time>
      </trkpt>
      <trkpt lat="45.58897" lon="2.76889">
        <ele>906</ele>
        <time>2020-05-15T16:26:24Z</time>
      </trkpt>
      <trkpt lat="45.58883" lon="2.76978">
        <ele>920</ele>
        <time>2020-05-15T16:26:45Z</time>
      </trkpt>
      <trkpt lat="45.58877" lon="2.77065">
        <ele>928</ele>
        <time>2020-05-15T16:27:05Z</time>
      </trkpt>
      <trkpt lat="45.58854" lon="2.77187">
        <ele>940</ele>
        <time>2020-05-15T16:27:35Z</time>
      </trkpt>
      <trkpt lat="45.58853" lon="2.7722">
        <ele>940</ele>
        <time>2020-05-15T16:27:43Z</time>
      </trkpt>
      <trkpt lat="45.58856" lon="2.7725">
        <ele>939</ele>
        <time>2020-05-15T16:27:50Z</time>
      </trkpt>
      <trkpt lat="45.58857" lon="2.77287">
        <ele>936</ele>
        <time>2020-05-15T16:27:58Z</time>
      </trkpt>
      <trkpt lat="45.5885" lon="2.77328">
        <ele>936</ele>
        <time>2020-05-15T16:28:08Z</time>
      </trkpt>
      <trkpt lat="45.5884" lon="2.77356">
        <ele>936</ele>
        <time>2020-05-15T16:28:15Z</time>
      </trkpt>
      <trkpt lat="45.58808" lon="2.77402">
        <ele>949</ele>
        <time>2020-05-15T16:28:31Z</time>
      </trkpt>
      <trkpt lat="45.58798" lon="2.77419">
        <ele>953</ele>
        <time>2020-05-15T16:28:36Z</time>
      </trkpt>
      <trkpt lat="45.58791" lon="2.77444">
        <ele>955</ele>
        <time>2020-05-15T16:28:42Z</time>
      </trkpt>
      <trkpt lat="45.58775" lon="2.77531">
        <ele>953</ele>
        <time>2020-05-15T16:29:03Z</time>
      </trkpt>
      <trkpt lat="45.58713" lon="2.77734">
        <ele>947</ele>
        <time>2020-05-15T16:29:55Z</time>
      </trkpt>
      <trkpt lat="45.58694" lon="2.7779">
        <ele>955</ele>
        <time>2020-05-15T16:30:09Z</time>
      </trkpt>
      <trkpt lat="45.58689" lon="2.77814">
        <ele>956</ele>
        <time>2020-05-15T16:30:15Z</time>
      </trkpt>
      <trkpt lat="45.58689" lon="2.77832">
        <ele>956</ele>
        <time>2020-05-15T16:30:19Z</time>
      </trkpt>
      <trkpt lat="45.58693" lon="2.77915">
        <ele>958</ele>
        <time>2020-05-15T16:30:39Z</time>
      </trkpt>
      <trkpt lat="45.58688" lon="2.77962">
        <ele>963</ele>
        <time>2020-05-15T16:30:50Z</time>
      </trkpt>
      <trkpt lat="45.58687" lon="2.78034">
        <ele>962</ele>
        <time>2020-05-15T16:31:07Z</time>
      </trkpt>
      <trkpt lat="45.58682" lon="2.78052">
        <ele>963</ele>
        <time>2020-05-15T16:31:11Z</time>
      </trkpt>
      <trkpt lat="45.58671" lon="2.78075">
        <ele>967</ele>
        <time>2020-05-15T16:31:18Z</time>
      </trkpt>
      <trkpt lat="45.58661" lon="2.78115">
        <ele>965</ele>
        <time>2020-05-15T16:31:28Z</time>
      </trkpt>
      <trkpt lat="45.58649" lon="2.78171">
        <ele>963</ele>
        <time>2020-05-15T16:31:41Z</time>
      </trkpt>
      <trkpt lat="45.58638" lon="2.78213">
        <ele>966</ele>
        <time>2020-05-15T16:31:52Z</time>
      </trkpt>
      <trkpt lat="45.58613" lon="2.78264">
        <ele>976</ele>
        <time>2020-05-15T16:32:06Z</time>
      </trkpt>
      <trkpt lat="45.58605" lon="2.78298">
        <ele>977</ele>
        <time>2020-05-15T16:32:15Z</time>
      </trkpt>
      <trkpt lat="45.586" lon="2.78328">
        <ele>976</ele>
        <time>2020-05-15T16:32:22Z</time>
      </trkpt>
      <trkpt lat="45.58611" lon="2.78404">
        <ele>967</ele>
        <time>2020-05-15T16:32:40Z</time>
      </trkpt>
      <trkpt lat="45.58612" lon="2.78444">
        <ele>966</ele>
        <time>2020-05-15T16:32:49Z</time>
      </trkpt>
      <trkpt lat="45.58607" lon="2.78524">
        <ele>967</ele>
        <time>2020-05-15T16:33:08Z</time>
      </trkpt>
      <trkpt lat="45.58606" lon="2.78579">
        <ele>968</ele>
        <time>2020-05-15T16:33:21Z</time>
      </trkpt>
      <trkpt lat="45.58619" lon="2.78665">
        <ele>973</ele>
        <time>2020-05-15T16:33:42Z</time>
      </trkpt>
      <trkpt lat="45.5862" lon="2.78718">
        <ele>973</ele>
        <time>2020-05-15T16:33:54Z</time>
      </trkpt>
      <trkpt lat="45.58614" lon="2.78751">
        <ele>975</ele>
        <time>2020-05-15T16:34:02Z</time>
      </trkpt>
      <trkpt lat="45.58593" lon="2.7883">
        <ele>979</ele>
        <time>2020-05-15T16:34:22Z</time>
      </trkpt>
      <trkpt lat="45.58588" lon="2.78867">
        <ele>980</ele>
        <time>2020-05-15T16:34:30Z</time>
      </trkpt>
      <trkpt lat="45.58588" lon="2.78916">
        <ele>979</ele>
        <time>2020-05-15T16:34:42Z</time>
      </trkpt>
      <trkpt lat="45.5859" lon="2.78939">
        <ele>979</ele>
        <time>2020-05-15T16:34:47Z</time>
      </trkpt>
      <trkpt lat="45.58595" lon="2.78967">
        <ele>980</ele>
        <time>2020-05-15T16:34:54Z</time>
      </trkpt>
      <trkpt lat="45.58617" lon="2.79036">
        <ele>978</ele>
        <time>2020-05-15T16:35:12Z</time>
      </trkpt>
      <trkpt lat="45.58622" lon="2.79066">
        <ele>979</ele>
        <time>2020-05-15T16:35:19Z</time>
      </trkpt>
      <trkpt lat="45.58627" lon="2.7913">
        <ele>984</ele>
        <time>2020-05-15T16:35:34Z</time>
      </trkpt>
      <trkpt lat="45.58634" lon="2.79152">
        <ele>985</ele>
        <time>2020-05-15T16:35:40Z</time>
      </trkpt>
      <trkpt lat="45.58664" lon="2.79229">
        <ele>978</ele>
        <time>2020-05-15T16:36:00Z</time>
      </trkpt>
      <trkpt lat="45.58667" lon="2.79259">
        <ele>978</ele>
        <time>2020-05-15T16:36:07Z</time>
      </trkpt>
      <trkpt lat="45.58666" lon="2.79297">
        <ele>977</ele>
        <time>2020-05-15T16:36:16Z</time>
      </trkpt>
      <trkpt lat="45.58568" lon="2.79837">
        <ele>985</ele>
        <time>2020-05-15T16:38:26Z</time>
      </trkpt>
      <trkpt lat="45.58556" lon="2.79883">
        <ele>986</ele>
        <time>2020-05-15T16:38:38Z</time>
      </trkpt>
      <trkpt lat="45.58542" lon="2.7992">
        <ele>987</ele>
        <time>2020-05-15T16:38:48Z</time>
      </trkpt>
      <trkpt lat="45.58526" lon="2.79948">
        <ele>987</ele>
        <time>2020-05-15T16:38:56Z</time>
      </trkpt>
      <trkpt lat="45.585" lon="2.79989">
        <ele>985</ele>
        <time>2020-05-15T16:39:09Z</time>
      </trkpt>
      <trkpt lat="45.58481" lon="2.80012">
        <ele>987</ele>
        <time>2020-05-15T16:39:17Z</time>
      </trkpt>
      <trkpt lat="45.5846" lon="2.80032">
        <ele>990</ele>
        <time>2020-05-15T16:39:26Z</time>
      </trkpt>
      <trkpt lat="45.58437" lon="2.80046">
        <ele>991</ele>
        <time>2020-05-15T16:39:34Z</time>
      </trkpt>
      <trkpt lat="45.58196" lon="2.80113">
        <ele>1016</ele>
        <time>2020-05-15T16:40:56Z</time>
      </trkpt>
      <trkpt lat="45.58161" lon="2.8013">
        <ele>1017</ele>
        <time>2020-05-15T16:41:08Z</time>
      </trkpt>
      <trkpt lat="45.58112" lon="2.80159">
        <ele>1014</ele>
        <time>2020-05-15T16:41:26Z</time>
      </trkpt>
      <trkpt lat="45.58076" lon="2.80176">
        <ele>1016</ele>
        <time>2020-05-15T16:41:39Z</time>
      </trkpt>
      <trkpt lat="45.57907" lon="2.80236">
        <ele>1020</ele>
        <time>2020-05-15T16:42:37Z</time>
      </trkpt>
      <trkpt lat="45.57844" lon="2.80278">
        <ele>1018</ele>
        <time>2020-05-15T16:43:00Z</time>
      </trkpt>
      <trkpt lat="45.57813" lon="2.80295">
        <ele>1020</ele>
        <time>2020-05-15T16:43:11Z</time>
      </trkpt>
      <trkpt lat="45.57726" lon="2.80353">
        <ele>1022</ele>
        <time>2020-05-15T16:43:43Z</time>
      </trkpt>
      <trkpt lat="45.57614" lon="2.80425">
        <ele>1033</ele>
        <time>2020-05-15T16:44:24Z</time>
      </trkpt>
      <trkpt lat="45.57594" lon="2.80441">
        <ele>1035</ele>
        <time>2020-05-15T16:44:32Z</time>
      </trkpt>
      <trkpt lat="45.57579" lon="2.80463">
        <ele>1034</ele>
        <time>2020-05-15T16:44:39Z</time>
      </trkpt>
      <trkpt lat="45.57568" lon="2.80464">
        <ele>1036</ele>
        <time>2020-05-15T16:44:42Z</time>
      </trkpt>
      <trkpt lat="45.57398" lon="2.80658">
        <ele>1045</ele>
        <time>2020-05-15T16:45:55Z</time>
      </trkpt>
      <trkpt lat="45.5735" lon="2.80717">
        <ele>1048</ele>
        <time>2020-05-15T16:46:16Z</time>
      </trkpt>
      <trkpt lat="45.57307" lon="2.80778">
        <ele>1049</ele>
        <time>2020-05-15T16:46:36Z</time>
      </trkpt>
      <trkpt lat="45.57296" lon="2.80736">
        <ele>1055</ele>
        <time>2020-05-15T16:46:47Z</time>
      </trkpt>
      <trkpt lat="45.57315" lon="2.80695">
        <ele>1057</ele>
        <time>2020-05-15T16:46:58Z</time>
      </trkpt>
      <trkpt lat="45.57326" lon="2.80672">
        <ele>1057</ele>
        <time>2020-05-15T16:47:05Z</time>
      </trkpt>
      <trkpt lat="45.57341" lon="2.80648">
        <ele>1059</ele>
        <time>2020-05-15T16:47:12Z</time>
      </trkpt>
      <trkpt lat="45.57352" lon="2.80639">
        <ele>1058</ele>
        <time>2020-05-15T16:47:17Z</time>
      </trkpt>
      <trkpt lat="45.57387" lon="2.8061">
        <ele>1055</ele>
        <time>2020-05-15T16:47:30Z</time>
      </trkpt>
      <trkpt lat="45.57392" lon="2.80604">
        <ele>1055</ele>
        <time>2020-05-15T16:47:32Z</time>
      </trkpt>
      <trkpt lat="45.57396" lon="2.80598">
        <ele>1055</ele>
        <time>2020-05-15T16:47:34Z</time>
      </trkpt>
      <trkpt lat="45.57407" lon="2.80557">
        <ele>1059</ele>
        <time>2020-05-15T16:47:44Z</time>
      </trkpt>
      <trkpt lat="45.57407" lon="2.80556">
        <ele>1059</ele>
        <time>2020-05-15T16:47:45Z</time>
      </trkpt>
      <trkpt lat="45.5746" lon="2.80436">
        <ele>1069</ele>
        <time>2020-05-15T16:48:18Z</time>
      </trkpt>
      <trkpt lat="45.57469" lon="2.80417">
        <ele>1071</ele>
        <time>2020-05-15T16:48:23Z</time>
      </trkpt>
      <trkpt lat="45.5748" lon="2.80403">
        <ele>1074</ele>
        <time>2020-05-15T16:48:28Z</time>
      </trkpt>
      <trkpt lat="45.57497" lon="2.80388">
        <ele>1075</ele>
        <time>2020-05-15T16:48:35Z</time>
      </trkpt>
      <trkpt lat="45.5751" lon="2.80382">
        <ele>1074</ele>
        <time>2020-05-15T16:48:39Z</time>
      </trkpt>
      <trkpt lat="45.57524" lon="2.8037">
        <ele>1074</ele>
        <time>2020-05-15T16:48:45Z</time>
      </trkpt>
      <trkpt lat="45.57552" lon="2.80335">
        <ele>1079</ele>
        <time>2020-05-15T16:48:57Z</time>
      </trkpt>
      <trkpt lat="45.57594" lon="2.8027">
        <ele>1083</ele>
        <time>2020-05-15T16:49:18Z</time>
      </trkpt>
      <trkpt lat="45.57599" lon="2.80259">
        <ele>1084</ele>
        <time>2020-05-15T16:49:21Z</time>
      </trkpt>
      <trkpt lat="45.57602" lon="2.80246">
        <ele>1086</ele>
        <time>2020-05-15T16:49:24Z</time>
      </trkpt>
      <trkpt lat="45.57602" lon="2.80232">
        <ele>1088</ele>
        <time>2020-05-15T16:49:27Z</time>
      </trkpt>
      <trkpt lat="45.57598" lon="2.80215">
        <ele>1092</ele>
        <time>2020-05-15T16:49:32Z</time>
      </trkpt>
      <trkpt lat="45.57597" lon="2.8019">
        <ele>1097</ele>
        <time>2020-05-15T16:49:37Z</time>
      </trkpt>
      <trkpt lat="45.5762" lon="2.80099">
        <ele>1105</ele>
        <time>2020-05-15T16:50:00Z</time>
      </trkpt>
      <trkpt lat="45.57645" lon="2.80048">
        <ele>1102</ele>
        <time>2020-05-15T16:50:15Z</time>
      </trkpt>
      <trkpt lat="45.57648" lon="2.80032">
        <ele>1103</ele>
        <time>2020-05-15T16:50:18Z</time>
      </trkpt>
      <trkpt lat="45.57651" lon="2.7998">
        <ele>1112</ele>
        <time>2020-05-15T16:50:31Z</time>
      </trkpt>
      <trkpt lat="45.57656" lon="2.79953">
        <ele>1118</ele>
        <time>2020-05-15T16:50:37Z</time>
      </trkpt>
      <trkpt lat="45.57668" lon="2.79934">
        <ele>1118</ele>
        <time>2020-05-15T16:50:43Z</time>
      </trkpt>
      <trkpt lat="45.57702" lon="2.79907">
        <ele>1119</ele>
        <time>2020-05-15T16:50:56Z</time>
      </trkpt>
      <trkpt lat="45.57721" lon="2.799">
        <ele>1118</ele>
        <time>2020-05-15T16:51:03Z</time>
      </trkpt>
      <trkpt lat="45.57741" lon="2.799">
        <ele>1114</ele>
        <time>2020-05-15T16:51:09Z</time>
      </trkpt>
      <trkpt lat="45.57755" lon="2.79893">
        <ele>1115</ele>
        <time>2020-05-15T16:51:14Z</time>
      </trkpt>
      <trkpt lat="45.57774" lon="2.79872">
        <ele>1125</ele>
        <time>2020-05-15T16:51:22Z</time>
      </trkpt>
      <trkpt lat="45.57783" lon="2.79869">
        <ele>1126</ele>
        <time>2020-05-15T16:51:25Z</time>
      </trkpt>
      <trkpt lat="45.57795" lon="2.79871">
        <ele>1125</ele>
        <time>2020-05-15T16:51:29Z</time>
      </trkpt>
      <trkpt lat="45.57809" lon="2.79884">
        <ele>1120</ele>
        <time>2020-05-15T16:51:35Z</time>
      </trkpt>
      <trkpt lat="45.57822" lon="2.79889">
        <ele>1118</ele>
        <time>2020-05-15T16:51:39Z</time>
      </trkpt>
      <trkpt lat="45.57841" lon="2.79891">
        <ele>1117</ele>
        <time>2020-05-15T16:51:46Z</time>
      </trkpt>
      <trkpt lat="45.57847" lon="2.79893">
        <ele>1116</ele>
        <time>2020-05-15T16:51:48Z</time>
      </trkpt>
      <trkpt lat="45.57865" lon="2.79914">
        <ele>1110</ele>
        <time>2020-05-15T16:51:56Z</time>
      </trkpt>
      <trkpt lat="45.57873" lon="2.79919">
        <ele>1108</ele>
        <time>2020-05-15T16:51:59Z</time>
      </trkpt>
      <trkpt lat="45.57887" lon="2.79919">
        <ele>1109</ele>
        <time>2020-05-15T16:52:03Z</time>
      </trkpt>
      <trkpt lat="45.57895" lon="2.79915">
        <ele>1110</ele>
        <time>2020-05-15T16:52:06Z</time>
      </trkpt>
      <trkpt lat="45.57939" lon="2.79873">
        <ele>1118</ele>
        <time>2020-05-15T16:52:24Z</time>
      </trkpt>
      <trkpt lat="45.58032" lon="2.79804">
        <ele>1129</ele>
        <time>2020-05-15T16:52:59Z</time>
      </trkpt>
      <trkpt lat="45.58084" lon="2.79773">
        <ele>1135</ele>
        <time>2020-05-15T16:53:17Z</time>
      </trkpt>
      <trkpt lat="45.58139" lon="2.79746">
        <ele>1142</ele>
        <time>2020-05-15T16:53:37Z</time>
      </trkpt>
      <trkpt lat="45.58223" lon="2.79709">
        <ele>1140</ele>
        <time>2020-05-15T16:54:06Z</time>
      </trkpt>
      <trkpt lat="45.58247" lon="2.79694">
        <ele>1140</ele>
        <time>2020-05-15T16:54:15Z</time>
      </trkpt>
      <trkpt lat="45.58257" lon="2.79681">
        <ele>1141</ele>
        <time>2020-05-15T16:54:19Z</time>
      </trkpt>
      <trkpt lat="45.58268" lon="2.79663">
        <ele>1142</ele>
        <time>2020-05-15T16:54:25Z</time>
      </trkpt>
      <trkpt lat="45.58277" lon="2.79636">
        <ele>1142</ele>
        <time>2020-05-15T16:54:32Z</time>
      </trkpt>
      <trkpt lat="45.5828" lon="2.79615">
        <ele>1143</ele>
        <time>2020-05-15T16:54:37Z</time>
      </trkpt>
      <trkpt lat="45.5828" lon="2.79595">
        <ele>1144</ele>
        <time>2020-05-15T16:54:42Z</time>
      </trkpt>
      <trkpt lat="45.58277" lon="2.79573">
        <ele>1144</ele>
        <time>2020-05-15T16:54:47Z</time>
      </trkpt>
      <trkpt lat="45.58271" lon="2.79552">
        <ele>1145</ele>
        <time>2020-05-15T16:54:52Z</time>
      </trkpt>
      <trkpt lat="45.58261" lon="2.7953">
        <ele>1145</ele>
        <time>2020-05-15T16:54:58Z</time>
      </trkpt>
      <trkpt lat="45.58245" lon="2.79512">
        <ele>1146</ele>
        <time>2020-05-15T16:55:05Z</time>
      </trkpt>
      <trkpt lat="45.57969" lon="2.79248">
        <ele>1152</ele>
        <time>2020-05-15T16:56:56Z</time>
      </trkpt>
      <trkpt lat="45.57948" lon="2.79232">
        <ele>1152</ele>
        <time>2020-05-15T16:57:04Z</time>
      </trkpt>
      <trkpt lat="45.5786" lon="2.79195">
        <ele>1147</ele>
        <time>2020-05-15T16:57:34Z</time>
      </trkpt>
      <trkpt lat="45.57833" lon="2.79193">
        <ele>1145</ele>
        <time>2020-05-15T16:57:43Z</time>
      </trkpt>
      <trkpt lat="45.57819" lon="2.79197">
        <ele>1144</ele>
        <time>2020-05-15T16:57:48Z</time>
      </trkpt>
      <trkpt lat="45.57655" lon="2.79273">
        <ele>1143</ele>
        <time>2020-05-15T16:58:46Z</time>
      </trkpt>
      <trkpt lat="45.57646" lon="2.79275">
        <ele>1143</ele>
        <time>2020-05-15T16:58:49Z</time>
      </trkpt>
      <trkpt lat="45.5762" lon="2.79273">
        <ele>1145</ele>
        <time>2020-05-15T16:58:57Z</time>
      </trkpt>
      <trkpt lat="45.57592" lon="2.79263">
        <ele>1144</ele>
        <time>2020-05-15T16:59:07Z</time>
      </trkpt>
      <trkpt lat="45.57564" lon="2.7925">
        <ele>1145</ele>
        <time>2020-05-15T16:59:17Z</time>
      </trkpt>
      <trkpt lat="45.57528" lon="2.79228">
        <ele>1144</ele>
        <time>2020-05-15T16:59:30Z</time>
      </trkpt>
      <trkpt lat="45.57495" lon="2.79203">
        <ele>1143</ele>
        <time>2020-05-15T16:59:42Z</time>
      </trkpt>
      <trkpt lat="45.57452" lon="2.79166">
        <ele>1140</ele>
        <time>2020-05-15T16:59:59Z</time>
      </trkpt>
      <trkpt lat="45.57426" lon="2.79127">
        <ele>1134</ele>
        <time>2020-05-15T17:00:12Z</time>
      </trkpt>
      <trkpt lat="45.57392" lon="2.79082">
        <ele>1129</ele>
        <time>2020-05-15T17:00:27Z</time>
      </trkpt>
      <trkpt lat="45.57361" lon="2.7906">
        <ele>1128</ele>
        <time>2020-05-15T17:00:39Z</time>
      </trkpt>
      <trkpt lat="45.57321" lon="2.79042">
        <ele>1128</ele>
        <time>2020-05-15T17:00:53Z</time>
      </trkpt>
      <trkpt lat="45.57274" lon="2.79033">
        <ele>1128</ele>
        <time>2020-05-15T17:01:09Z</time>
      </trkpt>
      <trkpt lat="45.57237" lon="2.79036">
        <ele>1129</ele>
        <time>2020-05-15T17:01:21Z</time>
      </trkpt>
      <trkpt lat="45.57047" lon="2.79066">
        <ele>1114</ele>
        <time>2020-05-15T17:02:25Z</time>
      </trkpt>
      <trkpt lat="45.5702" lon="2.79084">
        <ele>1113</ele>
        <time>2020-05-15T17:02:35Z</time>
      </trkpt>
      <trkpt lat="45.57004" lon="2.79093">
        <ele>1114</ele>
        <time>2020-05-15T17:02:40Z</time>
      </trkpt>
      <trkpt lat="45.5699" lon="2.79095">
        <ele>1114</ele>
        <time>2020-05-15T17:02:45Z</time>
      </trkpt>
      <trkpt lat="45.56975" lon="2.79091">
        <ele>1113</ele>
        <time>2020-05-15T17:02:50Z</time>
      </trkpt>
      <trkpt lat="45.56953" lon="2.7908">
        <ele>1111</ele>
        <time>2020-05-15T17:02:58Z</time>
      </trkpt>
      <trkpt lat="45.56929" lon="2.79075">
        <ele>1111</ele>
        <time>2020-05-15T17:03:06Z</time>
      </trkpt>
      <trkpt lat="45.56905" lon="2.79076">
        <ele>1112</ele>
        <time>2020-05-15T17:03:14Z</time>
      </trkpt>
      <trkpt lat="45.56838" lon="2.7909">
        <ele>1115</ele>
        <time>2020-05-15T17:03:37Z</time>
      </trkpt>
      <trkpt lat="45.56827" lon="2.79087">
        <ele>1115</ele>
        <time>2020-05-15T17:03:40Z</time>
      </trkpt>
      <trkpt lat="45.56822" lon="2.79078">
        <ele>1115</ele>
        <time>2020-05-15T17:03:43Z</time>
      </trkpt>
      <trkpt lat="45.5682" lon="2.79066">
        <ele>1115</ele>
        <time>2020-05-15T17:03:46Z</time>
      </trkpt>
      <trkpt lat="45.56821" lon="2.79053">
        <ele>1115</ele>
        <time>2020-05-15T17:03:49Z</time>
      </trkpt>
      <trkpt lat="45.5683" lon="2.79035">
        <ele>1113</ele>
        <time>2020-05-15T17:03:54Z</time>
      </trkpt>
      <trkpt lat="45.56842" lon="2.79013">
        <ele>1112</ele>
        <time>2020-05-15T17:04:01Z</time>
      </trkpt>
      <trkpt lat="45.56843" lon="2.78997">
        <ele>1111</ele>
        <time>2020-05-15T17:04:04Z</time>
      </trkpt>
      <trkpt lat="45.56839" lon="2.78967">
        <ele>1113</ele>
        <time>2020-05-15T17:04:12Z</time>
      </trkpt>
      <trkpt lat="45.56824" lon="2.78912">
        <ele>1118</ele>
        <time>2020-05-15T17:04:25Z</time>
      </trkpt>
      <trkpt lat="45.56818" lon="2.78873">
        <ele>1122</ele>
        <time>2020-05-15T17:04:35Z</time>
      </trkpt>
      <trkpt lat="45.56816" lon="2.78841">
        <ele>1125</ele>
        <time>2020-05-15T17:04:42Z</time>
      </trkpt>
      <trkpt lat="45.56803" lon="2.78791">
        <ele>1132</ele>
        <time>2020-05-15T17:04:55Z</time>
      </trkpt>
      <trkpt lat="45.56804" lon="2.78783">
        <ele>1133</ele>
        <time>2020-05-15T17:04:57Z</time>
      </trkpt>
      <trkpt lat="45.56811" lon="2.78771">
        <ele>1133</ele>
        <time>2020-05-15T17:05:00Z</time>
      </trkpt>
      <trkpt lat="45.56816" lon="2.78767">
        <ele>1133</ele>
        <time>2020-05-15T17:05:02Z</time>
      </trkpt>
      <trkpt lat="45.56829" lon="2.78766">
        <ele>1131</ele>
        <time>2020-05-15T17:05:06Z</time>
      </trkpt>
      <trkpt lat="45.56852" lon="2.78771">
        <ele>1128</ele>
        <time>2020-05-15T17:05:14Z</time>
      </trkpt>
      <trkpt lat="45.56865" lon="2.7877">
        <ele>1127</ele>
        <time>2020-05-15T17:05:19Z</time>
      </trkpt>
      <trkpt lat="45.5691" lon="2.78732">
        <ele>1131</ele>
        <time>2020-05-15T17:05:36Z</time>
      </trkpt>
      <trkpt lat="45.56937" lon="2.78705">
        <ele>1134</ele>
        <time>2020-05-15T17:05:47Z</time>
      </trkpt>
      <trkpt lat="45.56985" lon="2.78645">
        <ele>1139</ele>
        <time>2020-05-15T17:06:08Z</time>
      </trkpt>
      <trkpt lat="45.57003" lon="2.78608">
        <ele>1142</ele>
        <time>2020-05-15T17:06:19Z</time>
      </trkpt>
      <trkpt lat="45.57037" lon="2.78522">
        <ele>1149</ele>
        <time>2020-05-15T17:06:42Z</time>
      </trkpt>
      <trkpt lat="45.57086" lon="2.7842">
        <ele>1150</ele>
        <time>2020-05-15T17:07:11Z</time>
      </trkpt>
      <trkpt lat="45.57107" lon="2.78381">
        <ele>1152</ele>
        <time>2020-05-15T17:07:22Z</time>
      </trkpt>
      <trkpt lat="45.57139" lon="2.78337">
        <ele>1150</ele>
        <time>2020-05-15T17:07:37Z</time>
      </trkpt>
      <trkpt lat="45.5716" lon="2.78317">
        <ele>1148</ele>
        <time>2020-05-15T17:07:45Z</time>
      </trkpt>
      <trkpt lat="45.57168" lon="2.78303">
        <ele>1149</ele>
        <time>2020-05-15T17:07:50Z</time>
      </trkpt>
      <trkpt lat="45.57179" lon="2.78273">
        <ele>1153</ele>
        <time>2020-05-15T17:07:58Z</time>
      </trkpt>
      <trkpt lat="45.57187" lon="2.78261">
        <ele>1154</ele>
        <time>2020-05-15T17:08:01Z</time>
      </trkpt>
      <trkpt lat="45.572" lon="2.78251">
        <ele>1153</ele>
        <time>2020-05-15T17:08:06Z</time>
      </trkpt>
      <trkpt lat="45.57216" lon="2.78233">
        <ele>1151</ele>
        <time>2020-05-15T17:08:13Z</time>
      </trkpt>
      <trkpt lat="45.57224" lon="2.78219">
        <ele>1151</ele>
        <time>2020-05-15T17:08:17Z</time>
      </trkpt>
      <trkpt lat="45.57229" lon="2.78199">
        <ele>1153</ele>
        <time>2020-05-15T17:08:22Z</time>
      </trkpt>
      <trkpt lat="45.57232" lon="2.78179">
        <ele>1155</ele>
        <time>2020-05-15T17:08:27Z</time>
      </trkpt>
      <trkpt lat="45.57229" lon="2.7814">
        <ele>1161</ele>
        <time>2020-05-15T17:08:36Z</time>
      </trkpt>
      <trkpt lat="45.57221" lon="2.78111">
        <ele>1166</ele>
        <time>2020-05-15T17:08:44Z</time>
      </trkpt>
      <trkpt lat="45.57211" lon="2.78083">
        <ele>1172</ele>
        <time>2020-05-15T17:08:51Z</time>
      </trkpt>
      <trkpt lat="45.57208" lon="2.78062">
        <ele>1175</ele>
        <time>2020-05-15T17:08:56Z</time>
      </trkpt>
      <trkpt lat="45.5721" lon="2.78052">
        <ele>1175</ele>
        <time>2020-05-15T17:08:58Z</time>
      </trkpt>
      <trkpt lat="45.57215" lon="2.78041">
        <ele>1175</ele>
        <time>2020-05-15T17:09:01Z</time>
      </trkpt>
      <trkpt lat="45.57222" lon="2.78033">
        <ele>1174</ele>
        <time>2020-05-15T17:09:04Z</time>
      </trkpt>
      <trkpt lat="45.57233" lon="2.78029">
        <ele>1172</ele>
        <time>2020-05-15T17:09:08Z</time>
      </trkpt>
      <trkpt lat="45.57265" lon="2.78033">
        <ele>1165</ele>
        <time>2020-05-15T17:09:19Z</time>
      </trkpt>
      <trkpt lat="45.57275" lon="2.78032">
        <ele>1164</ele>
        <time>2020-05-15T17:09:22Z</time>
      </trkpt>
      <trkpt lat="45.57283" lon="2.78026">
        <ele>1163</ele>
        <time>2020-05-15T17:09:25Z</time>
      </trkpt>
      <trkpt lat="45.57297" lon="2.77995">
        <ele>1166</ele>
        <time>2020-05-15T17:09:34Z</time>
      </trkpt>
      <trkpt lat="45.57308" lon="2.77964">
        <ele>1167</ele>
        <time>2020-05-15T17:09:42Z</time>
      </trkpt>
      <trkpt lat="45.57341" lon="2.77891">
        <ele>1166</ele>
        <time>2020-05-15T17:10:02Z</time>
      </trkpt>
      <trkpt lat="45.57354" lon="2.77855">
        <ele>1168</ele>
        <time>2020-05-15T17:10:12Z</time>
      </trkpt>
      <trkpt lat="45.57365" lon="2.77812">
        <ele>1170</ele>
        <time>2020-05-15T17:10:22Z</time>
      </trkpt>
      <trkpt lat="45.57378" lon="2.77786">
        <ele>1170</ele>
        <time>2020-05-15T17:10:30Z</time>
      </trkpt>
      <trkpt lat="45.57396" lon="2.77758">
        <ele>1169</ele>
        <time>2020-05-15T17:10:39Z</time>
      </trkpt>
      <trkpt lat="45.57404" lon="2.77739">
        <ele>1169</ele>
        <time>2020-05-15T17:10:44Z</time>
      </trkpt>
      <trkpt lat="45.57445" lon="2.77608">
        <ele>1171</ele>
        <time>2020-05-15T17:11:17Z</time>
      </trkpt>
      <trkpt lat="45.57457" lon="2.77538">
        <ele>1171</ele>
        <time>2020-05-15T17:11:34Z</time>
      </trkpt>
      <trkpt lat="45.57461" lon="2.77464">
        <ele>1173</ele>
        <time>2020-05-15T17:11:52Z</time>
      </trkpt>
      <trkpt lat="45.57462" lon="2.77425">
        <ele>1174</ele>
        <time>2020-05-15T17:12:01Z</time>
      </trkpt>
      <trkpt lat="45.57459" lon="2.77361">
        <ele>1175</ele>
        <time>2020-05-15T17:12:16Z</time>
      </trkpt>
      <trkpt lat="45.57447" lon="2.77297">
        <ele>1175</ele>
        <time>2020-05-15T17:12:31Z</time>
      </trkpt>
      <trkpt lat="45.57441" lon="2.77253">
        <ele>1174</ele>
        <time>2020-05-15T17:12:42Z</time>
      </trkpt>
      <trkpt lat="45.57441" lon="2.77195">
        <ele>1173</ele>
        <time>2020-05-15T17:12:55Z</time>
      </trkpt>
      <trkpt lat="45.5744" lon="2.77176">
        <ele>1173</ele>
        <time>2020-05-15T17:13:00Z</time>
      </trkpt>
      <trkpt lat="45.57433" lon="2.77151">
        <ele>1173</ele>
        <time>2020-05-15T17:13:06Z</time>
      </trkpt>
      <trkpt lat="45.57425" lon="2.77132">
        <ele>1173</ele>
        <time>2020-05-15T17:13:11Z</time>
      </trkpt>
      <trkpt lat="45.57416" lon="2.77118">
        <ele>1173</ele>
        <time>2020-05-15T17:13:16Z</time>
      </trkpt>
      <trkpt lat="45.57373" lon="2.77074">
        <ele>1176</ele>
        <time>2020-05-15T17:13:33Z</time>
      </trkpt>
      <trkpt lat="45.57347" lon="2.7704">
        <ele>1177</ele>
        <time>2020-05-15T17:13:45Z</time>
      </trkpt>
      <trkpt lat="45.5733" lon="2.77001">
        <ele>1176</ele>
        <time>2020-05-15T17:13:56Z</time>
      </trkpt>
      <trkpt lat="45.57323" lon="2.76967">
        <ele>1175</ele>
        <time>2020-05-15T17:14:04Z</time>
      </trkpt>
      <trkpt lat="45.57315" lon="2.76939">
        <ele>1175</ele>
        <time>2020-05-15T17:14:11Z</time>
      </trkpt>
      <trkpt lat="45.57308" lon="2.76921">
        <ele>1175</ele>
        <time>2020-05-15T17:14:16Z</time>
      </trkpt>
      <trkpt lat="45.57299" lon="2.76905">
        <ele>1175</ele>
        <time>2020-05-15T17:14:21Z</time>
      </trkpt>
      <trkpt lat="45.57281" lon="2.76883">
        <ele>1177</ele>
        <time>2020-05-15T17:14:29Z</time>
      </trkpt>
      <trkpt lat="45.5726" lon="2.76869">
        <ele>1178</ele>
        <time>2020-05-15T17:14:36Z</time>
      </trkpt>
      <trkpt lat="45.57239" lon="2.76869">
        <ele>1178</ele>
        <time>2020-05-15T17:14:43Z</time>
      </trkpt>
      <trkpt lat="45.5717" lon="2.76902">
        <ele>1176</ele>
        <time>2020-05-15T17:15:08Z</time>
      </trkpt>
      <trkpt lat="45.5713" lon="2.76918">
        <ele>1175</ele>
        <time>2020-05-15T17:15:21Z</time>
      </trkpt>
      <trkpt lat="45.57118" lon="2.76919">
        <ele>1175</ele>
        <time>2020-05-15T17:15:25Z</time>
      </trkpt>
      <trkpt lat="45.57106" lon="2.76916">
        <ele>1175</ele>
        <time>2020-05-15T17:15:30Z</time>
      </trkpt>
      <trkpt lat="45.57074" lon="2.76898">
        <ele>1174</ele>
        <time>2020-05-15T17:15:41Z</time>
      </trkpt>
      <trkpt lat="45.57044" lon="2.76876">
        <ele>1174</ele>
        <time>2020-05-15T17:15:52Z</time>
      </trkpt>
      <trkpt lat="45.57034" lon="2.76865">
        <ele>1174</ele>
        <time>2020-05-15T17:15:56Z</time>
      </trkpt>
      <trkpt lat="45.57026" lon="2.76851">
        <ele>1173</ele>
        <time>2020-05-15T17:16:01Z</time>
      </trkpt>
      <trkpt lat="45.5697" lon="2.76711">
        <ele>1171</ele>
        <time>2020-05-15T17:16:38Z</time>
      </trkpt>
      <trkpt lat="45.56956" lon="2.76692">
        <ele>1172</ele>
        <time>2020-05-15T17:16:45Z</time>
      </trkpt>
      <trkpt lat="45.56915" lon="2.76649">
        <ele>1173</ele>
        <time>2020-05-15T17:17:02Z</time>
      </trkpt>
      <trkpt lat="45.56894" lon="2.76621">
        <ele>1177</ele>
        <time>2020-05-15T17:17:11Z</time>
      </trkpt>
      <trkpt lat="45.56886" lon="2.76608">
        <ele>1178</ele>
        <time>2020-05-15T17:17:15Z</time>
      </trkpt>
      <trkpt lat="45.5687" lon="2.76557">
        <ele>1178</ele>
        <time>2020-05-15T17:17:28Z</time>
      </trkpt>
      <trkpt lat="45.5685" lon="2.76476">
        <ele>1175</ele>
        <time>2020-05-15T17:17:48Z</time>
      </trkpt>
      <trkpt lat="45.56843" lon="2.76423">
        <ele>1175</ele>
        <time>2020-05-15T17:18:01Z</time>
      </trkpt>
      <trkpt lat="45.56837" lon="2.76388">
        <ele>1174</ele>
        <time>2020-05-15T17:18:09Z</time>
      </trkpt>
      <trkpt lat="45.56797" lon="2.76287">
        <ele>1175</ele>
        <time>2020-05-15T17:18:37Z</time>
      </trkpt>
      <trkpt lat="45.56778" lon="2.7625">
        <ele>1176</ele>
        <time>2020-05-15T17:18:47Z</time>
      </trkpt>
      <trkpt lat="45.56731" lon="2.76177">
        <ele>1179</ele>
        <time>2020-05-15T17:19:10Z</time>
      </trkpt>
      <trkpt lat="45.56702" lon="2.76124">
        <ele>1179</ele>
        <time>2020-05-15T17:19:26Z</time>
      </trkpt>
      <trkpt lat="45.56652" lon="2.76017">
        <ele>1179</ele>
        <time>2020-05-15T17:19:56Z</time>
      </trkpt>
      <trkpt lat="45.5664" lon="2.75976">
        <ele>1176</ele>
        <time>2020-05-15T17:20:07Z</time>
      </trkpt>
      <trkpt lat="45.56638" lon="2.75952">
        <ele>1172</ele>
        <time>2020-05-15T17:20:12Z</time>
      </trkpt>
      <trkpt lat="45.56639" lon="2.75923">
        <ele>1165</ele>
        <time>2020-05-15T17:20:19Z</time>
      </trkpt>
      <trkpt lat="45.56637" lon="2.75908">
        <ele>1163</ele>
        <time>2020-05-15T17:20:23Z</time>
      </trkpt>
      <trkpt lat="45.56629" lon="2.75889">
        <ele>1163</ele>
        <time>2020-05-15T17:20:28Z</time>
      </trkpt>
      <trkpt lat="45.56616" lon="2.75866">
        <ele>1163</ele>
        <time>2020-05-15T17:20:35Z</time>
      </trkpt>
      <trkpt lat="45.56589" lon="2.75829">
        <ele>1163</ele>
        <time>2020-05-15T17:20:47Z</time>
      </trkpt>
      <trkpt lat="45.56519" lon="2.75743">
        <ele>1155</ele>
        <time>2020-05-15T17:21:18Z</time>
      </trkpt>
      <trkpt lat="45.56485" lon="2.75718">
        <ele>1154</ele>
        <time>2020-05-15T17:21:31Z</time>
      </trkpt>
      <trkpt lat="45.5644" lon="2.75696">
        <ele>1156</ele>
        <time>2020-05-15T17:21:47Z</time>
      </trkpt>
      <trkpt lat="45.56376" lon="2.75692">
        <ele>1164</ele>
        <time>2020-05-15T17:22:08Z</time>
      </trkpt>
      <trkpt lat="45.56357" lon="2.75683">
        <ele>1164</ele>
        <time>2020-05-15T17:22:15Z</time>
      </trkpt>
      <trkpt lat="45.56332" lon="2.75676">
        <ele>1164</ele>
        <time>2020-05-15T17:22:23Z</time>
      </trkpt>
      <trkpt lat="45.56243" lon="2.75658">
        <ele>1169</ele>
        <time>2020-05-15T17:22:53Z</time>
      </trkpt>
      <trkpt lat="45.56125" lon="2.75643">
        <ele>1164</ele>
        <time>2020-05-15T17:23:33Z</time>
      </trkpt>
      <trkpt lat="45.56081" lon="2.75634">
        <ele>1162</ele>
        <time>2020-05-15T17:23:47Z</time>
      </trkpt>
      <trkpt lat="45.55969" lon="2.75654">
        <ele>1160</ele>
        <time>2020-05-15T17:24:25Z</time>
      </trkpt>
      <trkpt lat="45.55924" lon="2.75675">
        <ele>1161</ele>
        <time>2020-05-15T17:24:41Z</time>
      </trkpt>
      <trkpt lat="45.55875" lon="2.75706">
        <ele>1161</ele>
        <time>2020-05-15T17:24:59Z</time>
      </trkpt>
      <trkpt lat="45.55836" lon="2.7574">
        <ele>1160</ele>
        <time>2020-05-15T17:25:14Z</time>
      </trkpt>
      <trkpt lat="45.55788" lon="2.75748">
        <ele>1158</ele>
        <time>2020-05-15T17:25:30Z</time>
      </trkpt>
      <trkpt lat="45.55766" lon="2.75778">
        <ele>1160</ele>
        <time>2020-05-15T17:25:40Z</time>
      </trkpt>
      <trkpt lat="45.55699" lon="2.75834">
        <ele>1160</ele>
        <time>2020-05-15T17:26:06Z</time>
      </trkpt>
      <trkpt lat="45.55672" lon="2.75872">
        <ele>1164</ele>
        <time>2020-05-15T17:26:19Z</time>
      </trkpt>
      <trkpt lat="45.55658" lon="2.75877">
        <ele>1164</ele>
        <time>2020-05-15T17:26:24Z</time>
      </trkpt>
      <trkpt lat="45.55646" lon="2.75875">
        <ele>1164</ele>
        <time>2020-05-15T17:26:28Z</time>
      </trkpt>
      <trkpt lat="45.55637" lon="2.75868">
        <ele>1163</ele>
        <time>2020-05-15T17:26:31Z</time>
      </trkpt>
      <trkpt lat="45.5562" lon="2.75846">
        <ele>1161</ele>
        <time>2020-05-15T17:26:39Z</time>
      </trkpt>
      <trkpt lat="45.55582" lon="2.75911">
        <ele>1169</ele>
        <time>2020-05-15T17:26:59Z</time>
      </trkpt>
      <trkpt lat="45.55554" lon="2.75985">
        <ele>1184</ele>
        <time>2020-05-15T17:27:18Z</time>
      </trkpt>
      <trkpt lat="45.5554" lon="2.75969">
        <ele>1185</ele>
        <time>2020-05-15T17:27:24Z</time>
      </trkpt>
      <trkpt lat="45.55517" lon="2.75959">
        <ele>1189</ele>
        <time>2020-05-15T17:27:32Z</time>
      </trkpt>
      <trkpt lat="45.55497" lon="2.75957">
        <ele>1194</ele>
        <time>2020-05-15T17:27:39Z</time>
      </trkpt>
      <trkpt lat="45.55479" lon="2.75943">
        <ele>1196</ele>
        <time>2020-05-15T17:27:46Z</time>
      </trkpt>
      <trkpt lat="45.5547" lon="2.75929">
        <ele>1196</ele>
        <time>2020-05-15T17:27:50Z</time>
      </trkpt>
      <trkpt lat="45.55468" lon="2.7588">
        <ele>1191</ele>
        <time>2020-05-15T17:28:02Z</time>
      </trkpt>
      <trkpt lat="45.55458" lon="2.75871">
        <ele>1192</ele>
        <time>2020-05-15T17:28:06Z</time>
      </trkpt>
      <trkpt lat="45.55433" lon="2.75856">
        <ele>1196</ele>
        <time>2020-05-15T17:28:15Z</time>
      </trkpt>
      <trkpt lat="45.55428" lon="2.75844">
        <ele>1195</ele>
        <time>2020-05-15T17:28:18Z</time>
      </trkpt>
      <trkpt lat="45.55425" lon="2.75802">
        <ele>1193</ele>
        <time>2020-05-15T17:28:28Z</time>
      </trkpt>
      <trkpt lat="45.55405" lon="2.75688">
        <ele>1198</ele>
        <time>2020-05-15T17:28:55Z</time>
      </trkpt>
      <trkpt lat="45.55395" lon="2.75655">
        <ele>1202</ele>
        <time>2020-05-15T17:29:04Z</time>
      </trkpt>
      <trkpt lat="45.5539" lon="2.75613">
        <ele>1207</ele>
        <time>2020-05-15T17:29:14Z</time>
      </trkpt>
      <trkpt lat="45.55391" lon="2.75596">
        <ele>1207</ele>
        <time>2020-05-15T17:29:18Z</time>
      </trkpt>
      <trkpt lat="45.55397" lon="2.75584">
        <ele>1207</ele>
        <time>2020-05-15T17:29:21Z</time>
      </trkpt>
      <trkpt lat="45.55407" lon="2.75574">
        <ele>1204</ele>
        <time>2020-05-15T17:29:25Z</time>
      </trkpt>
      <trkpt lat="45.55415" lon="2.75573">
        <ele>1202</ele>
        <time>2020-05-15T17:29:28Z</time>
      </trkpt>
      <trkpt lat="45.55419" lon="2.75569">
        <ele>1201</ele>
        <time>2020-05-15T17:29:29Z</time>
      </trkpt>
      <trkpt lat="45.55425" lon="2.75558">
        <ele>1200</ele>
        <time>2020-05-15T17:29:33Z</time>
      </trkpt>
      <trkpt lat="45.55422" lon="2.75512">
        <ele>1202</ele>
        <time>2020-05-15T17:29:43Z</time>
      </trkpt>
      <trkpt lat="45.55402" lon="2.75485">
        <ele>1211</ele>
        <time>2020-05-15T17:29:53Z</time>
      </trkpt>
      <trkpt lat="45.55396" lon="2.7547">
        <ele>1214</ele>
        <time>2020-05-15T17:29:57Z</time>
      </trkpt>
      <trkpt lat="45.55396" lon="2.75456">
        <ele>1216</ele>
        <time>2020-05-15T17:30:00Z</time>
      </trkpt>
      <trkpt lat="45.55403" lon="2.75441">
        <ele>1215</ele>
        <time>2020-05-15T17:30:04Z</time>
      </trkpt>
      <trkpt lat="45.55418" lon="2.75428">
        <ele>1211</ele>
        <time>2020-05-15T17:30:10Z</time>
      </trkpt>
      <trkpt lat="45.55425" lon="2.75424">
        <ele>1210</ele>
        <time>2020-05-15T17:30:13Z</time>
      </trkpt>
      <trkpt lat="45.55431" lon="2.75419">
        <ele>1209</ele>
        <time>2020-05-15T17:30:15Z</time>
      </trkpt>
      <trkpt lat="45.55434" lon="2.75409">
        <ele>1210</ele>
        <time>2020-05-15T17:30:17Z</time>
      </trkpt>
      <trkpt lat="45.55435" lon="2.75389">
        <ele>1214</ele>
        <time>2020-05-15T17:30:22Z</time>
      </trkpt>
      <trkpt lat="45.55425" lon="2.75363">
        <ele>1221</ele>
        <time>2020-05-15T17:30:29Z</time>
      </trkpt>
      <trkpt lat="45.55423" lon="2.75351">
        <ele>1223</ele>
        <time>2020-05-15T17:30:32Z</time>
      </trkpt>
      <trkpt lat="45.55439" lon="2.75331">
        <ele>1223</ele>
        <time>2020-05-15T17:30:39Z</time>
      </trkpt>
      <trkpt lat="45.55459" lon="2.75287">
        <ele>1225</ele>
        <time>2020-05-15T17:30:51Z</time>
      </trkpt>
      <trkpt lat="45.55478" lon="2.75233">
        <ele>1229</ele>
        <time>2020-05-15T17:31:05Z</time>
      </trkpt>
      <trkpt lat="45.55486" lon="2.75216">
        <ele>1231</ele>
        <time>2020-05-15T17:31:10Z</time>
      </trkpt>
      <trkpt lat="45.55496" lon="2.75205">
        <ele>1231</ele>
        <time>2020-05-15T17:31:14Z</time>
      </trkpt>
      <trkpt lat="45.55507" lon="2.75197">
        <ele>1230</ele>
        <time>2020-05-15T17:31:18Z</time>
      </trkpt>
      <trkpt lat="45.55535" lon="2.75186">
        <ele>1226</ele>
        <time>2020-05-15T17:31:28Z</time>
      </trkpt>
      <trkpt lat="45.55545" lon="2.75179">
        <ele>1225</ele>
        <time>2020-05-15T17:31:32Z</time>
      </trkpt>
      <trkpt lat="45.55549" lon="2.75169">
        <ele>1226</ele>
        <time>2020-05-15T17:31:35Z</time>
      </trkpt>
      <trkpt lat="45.55549" lon="2.75152">
        <ele>1228</ele>
        <time>2020-05-15T17:31:39Z</time>
      </trkpt>
      <trkpt lat="45.55539" lon="2.75126">
        <ele>1233</ele>
        <time>2020-05-15T17:31:45Z</time>
      </trkpt>
      <trkpt lat="45.55542" lon="2.75108">
        <ele>1235</ele>
        <time>2020-05-15T17:31:50Z</time>
      </trkpt>
      <trkpt lat="45.55554" lon="2.75069">
        <ele>1237</ele>
        <time>2020-05-15T17:32:00Z</time>
      </trkpt>
      <trkpt lat="45.55555" lon="2.75054">
        <ele>1238</ele>
        <time>2020-05-15T17:32:03Z</time>
      </trkpt>
      <trkpt lat="45.55549" lon="2.75039">
        <ele>1240</ele>
        <time>2020-05-15T17:32:07Z</time>
      </trkpt>
      <trkpt lat="45.55549" lon="2.75021">
        <ele>1242</ele>
        <time>2020-05-15T17:32:11Z</time>
      </trkpt>
      <trkpt lat="45.55564" lon="2.75003">
        <ele>1242</ele>
        <time>2020-05-15T17:32:18Z</time>
      </trkpt>
      <trkpt lat="45.55595" lon="2.74993">
        <ele>1238</ele>
        <time>2020-05-15T17:32:29Z</time>
      </trkpt>
      <trkpt lat="45.55605" lon="2.74984">
        <ele>1237</ele>
        <time>2020-05-15T17:32:33Z</time>
      </trkpt>
      <trkpt lat="45.55615" lon="2.74966">
        <ele>1236</ele>
        <time>2020-05-15T17:32:38Z</time>
      </trkpt>
      <trkpt lat="45.55619" lon="2.74942">
        <ele>1236</ele>
        <time>2020-05-15T17:32:44Z</time>
      </trkpt>
      <trkpt lat="45.55617" lon="2.74878">
        <ele>1238</ele>
        <time>2020-05-15T17:32:59Z</time>
      </trkpt>
      <trkpt lat="45.55614" lon="2.74859">
        <ele>1238</ele>
        <time>2020-05-15T17:33:03Z</time>
      </trkpt>
      <trkpt lat="45.55615" lon="2.74838">
        <ele>1238</ele>
        <time>2020-05-15T17:33:08Z</time>
      </trkpt>
      <trkpt lat="45.55611" lon="2.74819">
        <ele>1238</ele>
        <time>2020-05-15T17:33:13Z</time>
      </trkpt>
      <trkpt lat="45.55604" lon="2.748">
        <ele>1239</ele>
        <time>2020-05-15T17:33:18Z</time>
      </trkpt>
      <trkpt lat="45.55568" lon="2.7475">
        <ele>1242</ele>
        <time>2020-05-15T17:33:35Z</time>
      </trkpt>
      <trkpt lat="45.55549" lon="2.74711">
        <ele>1244</ele>
        <time>2020-05-15T17:33:46Z</time>
      </trkpt>
      <trkpt lat="45.55526" lon="2.74677">
        <ele>1246</ele>
        <time>2020-05-15T17:33:57Z</time>
      </trkpt>
      <trkpt lat="45.55519" lon="2.74652">
        <ele>1247</ele>
        <time>2020-05-15T17:34:03Z</time>
      </trkpt>
      <trkpt lat="45.55513" lon="2.74615">
        <ele>1249</ele>
        <time>2020-05-15T17:34:12Z</time>
      </trkpt>
      <trkpt lat="45.55513" lon="2.74576">
        <ele>1250</ele>
        <time>2020-05-15T17:34:21Z</time>
      </trkpt>
      <trkpt lat="45.55516" lon="2.74531">
        <ele>1250</ele>
        <time>2020-05-15T17:34:31Z</time>
      </trkpt>
      <trkpt lat="45.55513" lon="2.74506">
        <ele>1251</ele>
        <time>2020-05-15T17:34:37Z</time>
      </trkpt>
      <trkpt lat="45.55498" lon="2.74486">
        <ele>1252</ele>
        <time>2020-05-15T17:34:44Z</time>
      </trkpt>
      <trkpt lat="45.55478" lon="2.74466">
        <ele>1252</ele>
        <time>2020-05-15T17:34:52Z</time>
      </trkpt>
      <trkpt lat="45.55458" lon="2.74416">
        <ele>1251</ele>
        <time>2020-05-15T17:35:06Z</time>
      </trkpt>
      <trkpt lat="45.55439" lon="2.74356">
        <ele>1251</ele>
        <time>2020-05-15T17:35:21Z</time>
      </trkpt>
      <trkpt lat="45.55313" lon="2.74448">
        <ele>1248</ele>
        <time>2020-05-15T17:36:08Z</time>
      </trkpt>
      <trkpt lat="45.5529" lon="2.74458">
        <ele>1247</ele>
        <time>2020-05-15T17:36:16Z</time>
      </trkpt>
      <trkpt lat="45.55275" lon="2.74461">
        <ele>1246</ele>
        <time>2020-05-15T17:36:22Z</time>
      </trkpt>
      <trkpt lat="45.55258" lon="2.7446">
        <ele>1246</ele>
        <time>2020-05-15T17:36:27Z</time>
      </trkpt>
      <trkpt lat="45.55182" lon="2.74426">
        <ele>1244</ele>
        <time>2020-05-15T17:36:54Z</time>
      </trkpt>
      <trkpt lat="45.55136" lon="2.74374">
        <ele>1242</ele>
        <time>2020-05-15T17:37:13Z</time>
      </trkpt>
      <trkpt lat="45.55106" lon="2.7435">
        <ele>1240</ele>
        <time>2020-05-15T17:37:25Z</time>
      </trkpt>
      <trkpt lat="45.55092" lon="2.74345">
        <ele>1240</ele>
        <time>2020-05-15T17:37:30Z</time>
      </trkpt>
      <trkpt lat="45.55061" lon="2.74356">
        <ele>1242</ele>
        <time>2020-05-15T17:37:40Z</time>
      </trkpt>
      <trkpt lat="45.5505" lon="2.74354">
        <ele>1242</ele>
        <time>2020-05-15T17:37:44Z</time>
      </trkpt>
      <trkpt lat="45.55033" lon="2.74331">
        <ele>1239</ele>
        <time>2020-05-15T17:37:52Z</time>
      </trkpt>
      <trkpt lat="45.55025" lon="2.74306">
        <ele>1237</ele>
        <time>2020-05-15T17:37:58Z</time>
      </trkpt>
      <trkpt lat="45.5501" lon="2.74295">
        <ele>1236</ele>
        <time>2020-05-15T17:38:04Z</time>
      </trkpt>
      <trkpt lat="45.5498" lon="2.74295">
        <ele>1238</ele>
        <time>2020-05-15T17:38:14Z</time>
      </trkpt>
      <trkpt lat="45.54952" lon="2.74292">
        <ele>1239</ele>
        <time>2020-05-15T17:38:23Z</time>
      </trkpt>
      <trkpt lat="45.54938" lon="2.74276">
        <ele>1238</ele>
        <time>2020-05-15T17:38:29Z</time>
      </trkpt>
      <trkpt lat="45.54922" lon="2.74236">
        <ele>1235</ele>
        <time>2020-05-15T17:38:40Z</time>
      </trkpt>
      <trkpt lat="45.5491" lon="2.74222">
        <ele>1235</ele>
        <time>2020-05-15T17:38:45Z</time>
      </trkpt>
      <trkpt lat="45.5489" lon="2.74208">
        <ele>1235</ele>
        <time>2020-05-15T17:38:53Z</time>
      </trkpt>
      <trkpt lat="45.54872" lon="2.742">
        <ele>1236</ele>
        <time>2020-05-15T17:38:59Z</time>
      </trkpt>
      <trkpt lat="45.54852" lon="2.74181">
        <ele>1236</ele>
        <time>2020-05-15T17:39:07Z</time>
      </trkpt>
      <trkpt lat="45.54803" lon="2.74073">
        <ele>1234</ele>
        <time>2020-05-15T17:39:37Z</time>
      </trkpt>
      <trkpt lat="45.54777" lon="2.74027">
        <ele>1232</ele>
        <time>2020-05-15T17:39:51Z</time>
      </trkpt>
      <trkpt lat="45.54765" lon="2.74002">
        <ele>1230</ele>
        <time>2020-05-15T17:39:58Z</time>
      </trkpt>
      <trkpt lat="45.54741" lon="2.73972">
        <ele>1229</ele>
        <time>2020-05-15T17:40:08Z</time>
      </trkpt>
      <trkpt lat="45.54712" lon="2.73955">
        <ele>1230</ele>
        <time>2020-05-15T17:40:19Z</time>
      </trkpt>
      <trkpt lat="45.5468" lon="2.7389">
        <ele>1228</ele>
        <time>2020-05-15T17:40:37Z</time>
      </trkpt>
      <trkpt lat="45.54664" lon="2.73871">
        <ele>1228</ele>
        <time>2020-05-15T17:40:44Z</time>
      </trkpt>
      <trkpt lat="45.54637" lon="2.73845">
        <ele>1225</ele>
        <time>2020-05-15T17:40:55Z</time>
      </trkpt>
      <trkpt lat="45.54626" lon="2.73853">
        <ele>1225</ele>
        <time>2020-05-15T17:40:59Z</time>
      </trkpt>
      <trkpt lat="45.54604" lon="2.73871">
        <ele>1226</ele>
        <time>2020-05-15T17:41:08Z</time>
      </trkpt>
      <trkpt lat="45.54596" lon="2.73882">
        <ele>1226</ele>
        <time>2020-05-15T17:41:12Z</time>
      </trkpt>
      <trkpt lat="45.54592" lon="2.73899">
        <ele>1227</ele>
        <time>2020-05-15T17:41:16Z</time>
      </trkpt>
      <trkpt lat="45.54594" lon="2.73952">
        <ele>1230</ele>
        <time>2020-05-15T17:41:28Z</time>
      </trkpt>
      <trkpt lat="45.54593" lon="2.73995">
        <ele>1232</ele>
        <time>2020-05-15T17:41:38Z</time>
      </trkpt>
      <trkpt lat="45.54592" lon="2.7401">
        <ele>1233</ele>
        <time>2020-05-15T17:41:42Z</time>
      </trkpt>
      <trkpt lat="45.54587" lon="2.74023">
        <ele>1234</ele>
        <time>2020-05-15T17:41:45Z</time>
      </trkpt>
      <trkpt lat="45.54561" lon="2.74078">
        <ele>1235</ele>
        <time>2020-05-15T17:42:01Z</time>
      </trkpt>
      <trkpt lat="45.54543" lon="2.74178">
        <ele>1240</ele>
        <time>2020-05-15T17:42:25Z</time>
      </trkpt>
      <trkpt lat="45.54523" lon="2.7431">
        <ele>1248</ele>
        <time>2020-05-15T17:42:56Z</time>
      </trkpt>
      <trkpt lat="45.54498" lon="2.74448">
        <ele>1253</ele>
        <time>2020-05-15T17:43:30Z</time>
      </trkpt>
      <trkpt lat="45.54489" lon="2.745">
        <ele>1255</ele>
        <time>2020-05-15T17:43:42Z</time>
      </trkpt>
      <trkpt lat="45.54475" lon="2.74565">
        <ele>1254</ele>
        <time>2020-05-15T17:43:58Z</time>
      </trkpt>
      <trkpt lat="45.54471" lon="2.74592">
        <ele>1254</ele>
        <time>2020-05-15T17:44:05Z</time>
      </trkpt>
      <trkpt lat="45.54471" lon="2.74619">
        <ele>1254</ele>
        <time>2020-05-15T17:44:11Z</time>
      </trkpt>
      <trkpt lat="45.54496" lon="2.74783">
        <ele>1256</ele>
        <time>2020-05-15T17:44:50Z</time>
      </trkpt>
      <trkpt lat="45.54495" lon="2.74799">
        <ele>1256</ele>
        <time>2020-05-15T17:44:54Z</time>
      </trkpt>
      <trkpt lat="45.54492" lon="2.74819">
        <ele>1256</ele>
        <time>2020-05-15T17:44:59Z</time>
      </trkpt>
      <trkpt lat="45.54466" lon="2.74929">
        <ele>1256</ele>
        <time>2020-05-15T17:45:26Z</time>
      </trkpt>
      <trkpt lat="45.54455" lon="2.74956">
        <ele>1256</ele>
        <time>2020-05-15T17:45:33Z</time>
      </trkpt>
      <trkpt lat="45.54434" lon="2.75">
        <ele>1253</ele>
        <time>2020-05-15T17:45:45Z</time>
      </trkpt>
      <trkpt lat="45.54363" lon="2.751">
        <ele>1248</ele>
        <time>2020-05-15T17:46:19Z</time>
      </trkpt>
      <trkpt lat="45.54299" lon="2.75194">
        <ele>1245</ele>
        <time>2020-05-15T17:46:49Z</time>
      </trkpt>
      <trkpt lat="45.54216" lon="2.75266">
        <ele>1238</ele>
        <time>2020-05-15T17:47:22Z</time>
      </trkpt>
      <trkpt lat="45.54148" lon="2.75298">
        <ele>1234</ele>
        <time>2020-05-15T17:47:46Z</time>
      </trkpt>
      <trkpt lat="45.54131" lon="2.75299">
        <ele>1234</ele>
        <time>2020-05-15T17:47:51Z</time>
      </trkpt>
      <trkpt lat="45.54116" lon="2.75295">
        <ele>1234</ele>
        <time>2020-05-15T17:47:56Z</time>
      </trkpt>
      <trkpt lat="45.5409" lon="2.75266">
        <ele>1232</ele>
        <time>2020-05-15T17:48:07Z</time>
      </trkpt>
      <trkpt lat="45.54072" lon="2.7524">
        <ele>1231</ele>
        <time>2020-05-15T17:48:16Z</time>
      </trkpt>
      <trkpt lat="45.54057" lon="2.75227">
        <ele>1230</ele>
        <time>2020-05-15T17:48:22Z</time>
      </trkpt>
      <trkpt lat="45.54043" lon="2.75218">
        <ele>1230</ele>
        <time>2020-05-15T17:48:27Z</time>
      </trkpt>
      <trkpt lat="45.54025" lon="2.75215">
        <ele>1230</ele>
        <time>2020-05-15T17:48:33Z</time>
      </trkpt>
      <trkpt lat="45.54009" lon="2.75218">
        <ele>1230</ele>
        <time>2020-05-15T17:48:38Z</time>
      </trkpt>
      <trkpt lat="45.53996" lon="2.75227">
        <ele>1230</ele>
        <time>2020-05-15T17:48:43Z</time>
      </trkpt>
      <trkpt lat="45.53985" lon="2.75241">
        <ele>1230</ele>
        <time>2020-05-15T17:48:48Z</time>
      </trkpt>
      <trkpt lat="45.53976" lon="2.75268">
        <ele>1230</ele>
        <time>2020-05-15T17:48:55Z</time>
      </trkpt>
      <trkpt lat="45.53966" lon="2.75321">
        <ele>1230</ele>
        <time>2020-05-15T17:49:08Z</time>
      </trkpt>
      <trkpt lat="45.53935" lon="2.75433">
        <ele>1230</ele>
        <time>2020-05-15T17:49:36Z</time>
      </trkpt>
      <trkpt lat="45.53917" lon="2.75481">
        <ele>1228</ele>
        <time>2020-05-15T17:49:49Z</time>
      </trkpt>
      <trkpt lat="45.53897" lon="2.75527">
        <ele>1225</ele>
        <time>2020-05-15T17:50:01Z</time>
      </trkpt>
      <trkpt lat="45.53859" lon="2.75641">
        <ele>1220</ele>
        <time>2020-05-15T17:50:31Z</time>
      </trkpt>
      <trkpt lat="45.53822" lon="2.75778">
        <ele>1213</ele>
        <time>2020-05-15T17:51:05Z</time>
      </trkpt>
      <trkpt lat="45.53818" lon="2.75809">
        <ele>1212</ele>
        <time>2020-05-15T17:51:13Z</time>
      </trkpt>
      <trkpt lat="45.53817" lon="2.7584">
        <ele>1212</ele>
        <time>2020-05-15T17:51:20Z</time>
      </trkpt>
      <trkpt lat="45.53822" lon="2.75952">
        <ele>1215</ele>
        <time>2020-05-15T17:51:46Z</time>
      </trkpt>
      <trkpt lat="45.53827" lon="2.76043">
        <ele>1216</ele>
        <time>2020-05-15T17:52:07Z</time>
      </trkpt>
      <trkpt lat="45.53825" lon="2.76061">
        <ele>1216</ele>
        <time>2020-05-15T17:52:12Z</time>
      </trkpt>
      <trkpt lat="45.53818" lon="2.76077">
        <ele>1216</ele>
        <time>2020-05-15T17:52:16Z</time>
      </trkpt>
      <trkpt lat="45.53807" lon="2.76092">
        <ele>1216</ele>
        <time>2020-05-15T17:52:21Z</time>
      </trkpt>
      <trkpt lat="45.53798" lon="2.76104">
        <ele>1217</ele>
        <time>2020-05-15T17:52:25Z</time>
      </trkpt>
      <trkpt lat="45.53785" lon="2.76117">
        <ele>1217</ele>
        <time>2020-05-15T17:52:31Z</time>
      </trkpt>
      <trkpt lat="45.53718" lon="2.7617">
        <ele>1218</ele>
        <time>2020-05-15T17:52:56Z</time>
      </trkpt>
      <trkpt lat="45.53666" lon="2.76203">
        <ele>1222</ele>
        <time>2020-05-15T17:53:15Z</time>
      </trkpt>
      <trkpt lat="45.53646" lon="2.7621">
        <ele>1223</ele>
        <time>2020-05-15T17:53:22Z</time>
      </trkpt>
      <trkpt lat="45.53623" lon="2.76209">
        <ele>1222</ele>
        <time>2020-05-15T17:53:30Z</time>
      </trkpt>
      <trkpt lat="45.53549" lon="2.76185">
        <ele>1219</ele>
        <time>2020-05-15T17:53:55Z</time>
      </trkpt>
      <trkpt lat="45.53509" lon="2.7617">
        <ele>1218</ele>
        <time>2020-05-15T17:54:09Z</time>
      </trkpt>
      <trkpt lat="45.53492" lon="2.76156">
        <ele>1216</ele>
        <time>2020-05-15T17:54:15Z</time>
      </trkpt>
      <trkpt lat="45.53475" lon="2.76134">
        <ele>1214</ele>
        <time>2020-05-15T17:54:23Z</time>
      </trkpt>
      <trkpt lat="45.53443" lon="2.76085">
        <ele>1208</ele>
        <time>2020-05-15T17:54:39Z</time>
      </trkpt>
      <trkpt lat="45.53391" lon="2.7598">
        <ele>1198</ele>
        <time>2020-05-15T17:55:09Z</time>
      </trkpt>
      <trkpt lat="45.53357" lon="2.75918">
        <ele>1192</ele>
        <time>2020-05-15T17:55:27Z</time>
      </trkpt>
      <trkpt lat="45.5333" lon="2.75876">
        <ele>1187</ele>
        <time>2020-05-15T17:55:40Z</time>
      </trkpt>
      <trkpt lat="45.53278" lon="2.75669">
        <ele>1167</ele>
        <time>2020-05-15T17:56:32Z</time>
      </trkpt>
      <trkpt lat="45.53227" lon="2.7548">
        <ele>1152</ele>
        <time>2020-05-15T17:57:19Z</time>
      </trkpt>
      <trkpt lat="45.53215" lon="2.75448">
        <ele>1149</ele>
        <time>2020-05-15T17:57:28Z</time>
      </trkpt>
      <trkpt lat="45.53203" lon="2.75424">
        <ele>1148</ele>
        <time>2020-05-15T17:57:35Z</time>
      </trkpt>
      <trkpt lat="45.53169" lon="2.7538">
        <ele>1144</ele>
        <time>2020-05-15T17:57:50Z</time>
      </trkpt>
      <trkpt lat="45.53151" lon="2.75363">
        <ele>1140</ele>
        <time>2020-05-15T17:57:57Z</time>
      </trkpt>
      <trkpt lat="45.53136" lon="2.75355">
        <ele>1139</ele>
        <time>2020-05-15T17:58:02Z</time>
      </trkpt>
      <trkpt lat="45.53047" lon="2.75342">
        <ele>1132</ele>
        <time>2020-05-15T17:58:32Z</time>
      </trkpt>
      <trkpt lat="45.53033" lon="2.75343">
        <ele>1132</ele>
        <time>2020-05-15T17:58:37Z</time>
      </trkpt>
      <trkpt lat="45.53021" lon="2.75348">
        <ele>1131</ele>
        <time>2020-05-15T17:58:41Z</time>
      </trkpt>
      <trkpt lat="45.52989" lon="2.75379">
        <ele>1130</ele>
        <time>2020-05-15T17:58:54Z</time>
      </trkpt>
      <trkpt lat="45.52964" lon="2.75408">
        <ele>1129</ele>
        <time>2020-05-15T17:59:05Z</time>
      </trkpt>
      <trkpt lat="45.52956" lon="2.75424">
        <ele>1128</ele>
        <time>2020-05-15T17:59:09Z</time>
      </trkpt>
      <trkpt lat="45.52952" lon="2.75437">
        <ele>1128</ele>
        <time>2020-05-15T17:59:13Z</time>
      </trkpt>
      <trkpt lat="45.52951" lon="2.7548">
        <ele>1128</ele>
        <time>2020-05-15T17:59:23Z</time>
      </trkpt>
      <trkpt lat="45.52948" lon="2.75519">
        <ele>1128</ele>
        <time>2020-05-15T17:59:32Z</time>
      </trkpt>
      <trkpt lat="45.52934" lon="2.75565">
        <ele>1129</ele>
        <time>2020-05-15T17:59:44Z</time>
      </trkpt>
      <trkpt lat="45.5292" lon="2.75587">
        <ele>1130</ele>
        <time>2020-05-15T17:59:51Z</time>
      </trkpt>
      <trkpt lat="45.52908" lon="2.75594">
        <ele>1131</ele>
        <time>2020-05-15T17:59:55Z</time>
      </trkpt>
      <trkpt lat="45.52895" lon="2.75594">
        <ele>1132</ele>
        <time>2020-05-15T17:59:59Z</time>
      </trkpt>
      <trkpt lat="45.52883" lon="2.7559">
        <ele>1132</ele>
        <time>2020-05-15T18:00:03Z</time>
      </trkpt>
      <trkpt lat="45.52845" lon="2.75567">
        <ele>1132</ele>
        <time>2020-05-15T18:00:17Z</time>
      </trkpt>
      <trkpt lat="45.52784" lon="2.75504">
        <ele>1133</ele>
        <time>2020-05-15T18:00:42Z</time>
      </trkpt>
      <trkpt lat="45.52762" lon="2.75486">
        <ele>1134</ele>
        <time>2020-05-15T18:00:51Z</time>
      </trkpt>
      <trkpt lat="45.52728" lon="2.75474">
        <ele>1143</ele>
        <time>2020-05-15T18:01:02Z</time>
      </trkpt>
      <trkpt lat="45.52662" lon="2.75311">
        <ele>1138</ele>
        <time>2020-05-15T18:01:46Z</time>
      </trkpt>
      <trkpt lat="45.5262" lon="2.75246">
        <ele>1141</ele>
        <time>2020-05-15T18:02:07Z</time>
      </trkpt>
      <trkpt lat="45.52593" lon="2.752">
        <ele>1143</ele>
        <time>2020-05-15T18:02:21Z</time>
      </trkpt>
      <trkpt lat="45.52588" lon="2.75189">
        <ele>1143</ele>
        <time>2020-05-15T18:02:24Z</time>
      </trkpt>
      <trkpt lat="45.52601" lon="2.75053">
        <ele>1137</ele>
        <time>2020-05-15T18:02:56Z</time>
      </trkpt>
      <trkpt lat="45.52609" lon="2.74986">
        <ele>1134</ele>
        <time>2020-05-15T18:03:12Z</time>
      </trkpt>
      <trkpt lat="45.5261" lon="2.74959">
        <ele>1132</ele>
        <time>2020-05-15T18:03:18Z</time>
      </trkpt>
      <trkpt lat="45.52606" lon="2.74934">
        <ele>1130</ele>
        <time>2020-05-15T18:03:24Z</time>
      </trkpt>
      <trkpt lat="45.52595" lon="2.74902">
        <ele>1128</ele>
        <time>2020-05-15T18:03:33Z</time>
      </trkpt>
      <trkpt lat="45.52584" lon="2.74884">
        <ele>1127</ele>
        <time>2020-05-15T18:03:38Z</time>
      </trkpt>
      <trkpt lat="45.52572" lon="2.74874">
        <ele>1126</ele>
        <time>2020-05-15T18:03:43Z</time>
      </trkpt>
      <trkpt lat="45.5252" lon="2.74852">
        <ele>1125</ele>
        <time>2020-05-15T18:04:01Z</time>
      </trkpt>
      <trkpt lat="45.52501" lon="2.74848">
        <ele>1125</ele>
        <time>2020-05-15T18:04:07Z</time>
      </trkpt>
      <trkpt lat="45.52474" lon="2.7485">
        <ele>1128</ele>
        <time>2020-05-15T18:04:16Z</time>
      </trkpt>
      <trkpt lat="45.52466" lon="2.74848">
        <ele>1129</ele>
        <time>2020-05-15T18:04:19Z</time>
      </trkpt>
      <trkpt lat="45.52457" lon="2.74845">
        <ele>1129</ele>
        <time>2020-05-15T18:04:22Z</time>
      </trkpt>
      <trkpt lat="45.52437" lon="2.74822">
        <ele>1129</ele>
        <time>2020-05-15T18:04:31Z</time>
      </trkpt>
      <trkpt lat="45.52431" lon="2.74809">
        <ele>1129</ele>
        <time>2020-05-15T18:04:34Z</time>
      </trkpt>
      <trkpt lat="45.52425" lon="2.74787">
        <ele>1129</ele>
        <time>2020-05-15T18:04:40Z</time>
      </trkpt>
      <trkpt lat="45.52422" lon="2.74751">
        <ele>1129</ele>
        <time>2020-05-15T18:04:48Z</time>
      </trkpt>
      <trkpt lat="45.52419" lon="2.74633">
        <ele>1134</ele>
        <time>2020-05-15T18:05:16Z</time>
      </trkpt>
      <trkpt lat="45.52412" lon="2.7455">
        <ele>1134</ele>
        <time>2020-05-15T18:05:36Z</time>
      </trkpt>
      <trkpt lat="45.52403" lon="2.74414">
        <ele>1126</ele>
        <time>2020-05-15T18:06:07Z</time>
      </trkpt>
      <trkpt lat="45.52399" lon="2.74391">
        <ele>1124</ele>
        <time>2020-05-15T18:06:13Z</time>
      </trkpt>
      <trkpt lat="45.52395" lon="2.7437">
        <ele>1122</ele>
        <time>2020-05-15T18:06:18Z</time>
      </trkpt>
      <trkpt lat="45.52359" lon="2.74289">
        <ele>1114</ele>
        <time>2020-05-15T18:06:41Z</time>
      </trkpt>
      <trkpt lat="45.52334" lon="2.74248">
        <ele>1108</ele>
        <time>2020-05-15T18:06:53Z</time>
      </trkpt>
      <trkpt lat="45.52273" lon="2.74202">
        <ele>1107</ele>
        <time>2020-05-15T18:07:16Z</time>
      </trkpt>
      <trkpt lat="45.52229" lon="2.74161">
        <ele>1106</ele>
        <time>2020-05-15T18:07:34Z</time>
      </trkpt>
      <trkpt lat="45.52212" lon="2.74135">
        <ele>1104</ele>
        <time>2020-05-15T18:07:42Z</time>
      </trkpt>
      <trkpt lat="45.52192" lon="2.74117">
        <ele>1103</ele>
        <time>2020-05-15T18:07:50Z</time>
      </trkpt>
      <trkpt lat="45.52143" lon="2.74093">
        <ele>1103</ele>
        <time>2020-05-15T18:08:07Z</time>
      </trkpt>
      <trkpt lat="45.52046" lon="2.74058">
        <ele>1111</ele>
        <time>2020-05-15T18:08:41Z</time>
      </trkpt>
      <trkpt lat="45.52" lon="2.73996">
        <ele>1102</ele>
        <time>2020-05-15T18:09:02Z</time>
      </trkpt>
      <trkpt lat="45.51957" lon="2.73946">
        <ele>1102</ele>
        <time>2020-05-15T18:09:20Z</time>
      </trkpt>
      <trkpt lat="45.519" lon="2.73897">
        <ele>1103</ele>
        <time>2020-05-15T18:09:42Z</time>
      </trkpt>
      <trkpt lat="45.5188" lon="2.73877">
        <ele>1102</ele>
        <time>2020-05-15T18:09:51Z</time>
      </trkpt>
      <trkpt lat="45.51859" lon="2.73857">
        <ele>1101</ele>
        <time>2020-05-15T18:09:59Z</time>
      </trkpt>
      <trkpt lat="45.51825" lon="2.73828">
        <ele>1100</ele>
        <time>2020-05-15T18:10:12Z</time>
      </trkpt>
      <trkpt lat="45.51802" lon="2.73809">
        <ele>1099</ele>
        <time>2020-05-15T18:10:21Z</time>
      </trkpt>
      <trkpt lat="45.5178" lon="2.73801">
        <ele>1100</ele>
        <time>2020-05-15T18:10:29Z</time>
      </trkpt>
      <trkpt lat="45.51775" lon="2.73799">
        <ele>1100</ele>
        <time>2020-05-15T18:10:30Z</time>
      </trkpt>
      <trkpt lat="45.51722" lon="2.7375">
        <ele>1094</ele>
        <time>2020-05-15T18:10:51Z</time>
      </trkpt>
      <trkpt lat="45.51701" lon="2.73715">
        <ele>1090</ele>
        <time>2020-05-15T18:11:02Z</time>
      </trkpt>
      <trkpt lat="45.51686" lon="2.73696">
        <ele>1089</ele>
        <time>2020-05-15T18:11:09Z</time>
      </trkpt>
      <trkpt lat="45.51691" lon="2.73745">
        <ele>1090</ele>
        <time>2020-05-15T18:11:21Z</time>
      </trkpt>
      <trkpt lat="45.51691" lon="2.73765">
        <ele>1092</ele>
        <time>2020-05-15T18:11:25Z</time>
      </trkpt>
      <trkpt lat="45.51688" lon="2.73787">
        <ele>1094</ele>
        <time>2020-05-15T18:11:30Z</time>
      </trkpt>
      <trkpt lat="45.51683" lon="2.73809">
        <ele>1095</ele>
        <time>2020-05-15T18:11:36Z</time>
      </trkpt>
      <trkpt lat="45.51674" lon="2.73834">
        <ele>1096</ele>
        <time>2020-05-15T18:11:42Z</time>
      </trkpt>
      <trkpt lat="45.51683" lon="2.73809">
        <ele>1095</ele>
        <time>2020-05-15T18:11:49Z</time>
      </trkpt>
      <trkpt lat="45.51688" lon="2.73787">
        <ele>1094</ele>
        <time>2020-05-15T18:11:54Z</time>
      </trkpt>
      <trkpt lat="45.51691" lon="2.73765">
        <ele>1092</ele>
        <time>2020-05-15T18:12:00Z</time>
      </trkpt>
      <trkpt lat="45.51691" lon="2.73745">
        <ele>1090</ele>
        <time>2020-05-15T18:12:04Z</time>
      </trkpt>
      <trkpt lat="45.51686" lon="2.73696">
        <ele>1089</ele>
        <time>2020-05-15T18:12:16Z</time>
      </trkpt>
      <trkpt lat="45.51671" lon="2.73656">
        <ele>1088</ele>
        <time>2020-05-15T18:12:26Z</time>
      </trkpt>
      <trkpt lat="45.51647" lon="2.73611">
        <ele>1084</ele>
        <time>2020-05-15T18:12:40Z</time>
      </trkpt>
      <trkpt lat="45.51638" lon="2.73591">
        <ele>1082</ele>
        <time>2020-05-15T18:12:45Z</time>
      </trkpt>
      <trkpt lat="45.51634" lon="2.73572">
        <ele>1080</ele>
        <time>2020-05-15T18:12:50Z</time>
      </trkpt>
      <trkpt lat="45.51608" lon="2.73073">
        <ele>1066</ele>
        <time>2020-05-15T18:14:47Z</time>
      </trkpt>
      <trkpt lat="45.51604" lon="2.73041">
        <ele>1065</ele>
        <time>2020-05-15T18:14:54Z</time>
      </trkpt>
      <trkpt lat="45.51597" lon="2.7301">
        <ele>1063</ele>
        <time>2020-05-15T18:15:02Z</time>
      </trkpt>
      <trkpt lat="45.51585" lon="2.72978">
        <ele>1060</ele>
        <time>2020-05-15T18:15:11Z</time>
      </trkpt>
      <trkpt lat="45.51552" lon="2.72909">
        <ele>1055</ele>
        <time>2020-05-15T18:15:30Z</time>
      </trkpt>
      <trkpt lat="45.5152" lon="2.72832">
        <ele>1051</ele>
        <time>2020-05-15T18:15:51Z</time>
      </trkpt>
      <trkpt lat="45.51513" lon="2.7282">
        <ele>1050</ele>
        <time>2020-05-15T18:15:55Z</time>
      </trkpt>
      <trkpt lat="45.51506" lon="2.72813">
        <ele>1049</ele>
        <time>2020-05-15T18:15:58Z</time>
      </trkpt>
      <trkpt lat="45.51489" lon="2.7281">
        <ele>1047</ele>
        <time>2020-05-15T18:16:03Z</time>
      </trkpt>
      <trkpt lat="45.51477" lon="2.72817">
        <ele>1046</ele>
        <time>2020-05-15T18:16:08Z</time>
      </trkpt>
      <trkpt lat="45.51397" lon="2.72986">
        <ele>1040</ele>
        <time>2020-05-15T18:16:55Z</time>
      </trkpt>
      <trkpt lat="45.51364" lon="2.73068">
        <ele>1041</ele>
        <time>2020-05-15T18:17:17Z</time>
      </trkpt>
      <trkpt lat="45.51343" lon="2.73132">
        <ele>1044</ele>
        <time>2020-05-15T18:17:34Z</time>
      </trkpt>
      <trkpt lat="45.51311" lon="2.73204">
        <ele>1046</ele>
        <time>2020-05-15T18:17:54Z</time>
      </trkpt>
      <trkpt lat="45.51302" lon="2.73239">
        <ele>1046</ele>
        <time>2020-05-15T18:18:03Z</time>
      </trkpt>
      <trkpt lat="45.51284" lon="2.73298">
        <ele>1049</ele>
        <time>2020-05-15T18:18:18Z</time>
      </trkpt>
      <trkpt lat="45.51266" lon="2.73345">
        <ele>1052</ele>
        <time>2020-05-15T18:18:30Z</time>
      </trkpt>
      <trkpt lat="45.51238" lon="2.734">
        <ele>1053</ele>
        <time>2020-05-15T18:18:46Z</time>
      </trkpt>
      <trkpt lat="45.51223" lon="2.73402">
        <ele>1051</ele>
        <time>2020-05-15T18:18:51Z</time>
      </trkpt>
      <trkpt lat="45.51216" lon="2.73399">
        <ele>1051</ele>
        <time>2020-05-15T18:18:53Z</time>
      </trkpt>
      <trkpt lat="45.5121" lon="2.73389">
        <ele>1050</ele>
        <time>2020-05-15T18:18:57Z</time>
      </trkpt>
      <trkpt lat="45.51172" lon="2.73092">
        <ele>1045</ele>
        <time>2020-05-15T18:20:07Z</time>
      </trkpt>
      <trkpt lat="45.51165" lon="2.73033">
        <ele>1044</ele>
        <time>2020-05-15T18:20:21Z</time>
      </trkpt>
      <trkpt lat="45.51166" lon="2.72939">
        <ele>1043</ele>
        <time>2020-05-15T18:20:43Z</time>
      </trkpt>
      <trkpt lat="45.51173" lon="2.72803">
        <ele>1041</ele>
        <time>2020-05-15T18:21:15Z</time>
      </trkpt>
      <trkpt lat="45.51147" lon="2.72784">
        <ele>1039</ele>
        <time>2020-05-15T18:21:25Z</time>
      </trkpt>
      <trkpt lat="45.51138" lon="2.72777">
        <ele>1038</ele>
        <time>2020-05-15T18:21:28Z</time>
      </trkpt>
      <trkpt lat="45.51133" lon="2.72772">
        <ele>1037</ele>
        <time>2020-05-15T18:21:30Z</time>
      </trkpt>
      <trkpt lat="45.51118" lon="2.7274">
        <ele>1035</ele>
        <time>2020-05-15T18:21:39Z</time>
      </trkpt>
      <trkpt lat="45.51105" lon="2.72727">
        <ele>1033</ele>
        <time>2020-05-15T18:21:44Z</time>
      </trkpt>
      <trkpt lat="45.51096" lon="2.72725">
        <ele>1032</ele>
        <time>2020-05-15T18:21:47Z</time>
      </trkpt>
      <trkpt lat="45.51079" lon="2.7273">
        <ele>1032</ele>
        <time>2020-05-15T18:21:53Z</time>
      </trkpt>
      <trkpt lat="45.51047" lon="2.72755">
        <ele>1031</ele>
        <time>2020-05-15T18:22:05Z</time>
      </trkpt>
      <trkpt lat="45.51029" lon="2.7276">
        <ele>1029</ele>
        <time>2020-05-15T18:22:12Z</time>
      </trkpt>
      <trkpt lat="45.50989" lon="2.72752">
        <ele>1025</ele>
        <time>2020-05-15T18:22:25Z</time>
      </trkpt>
      <trkpt lat="45.50941" lon="2.72759">
        <ele>1022</ele>
        <time>2020-05-15T18:22:41Z</time>
      </trkpt>
      <trkpt lat="45.50922" lon="2.72758">
        <ele>1021</ele>
        <time>2020-05-15T18:22:47Z</time>
      </trkpt>
      <trkpt lat="45.50896" lon="2.72744">
        <ele>1020</ele>
        <time>2020-05-15T18:22:57Z</time>
      </trkpt>
      <trkpt lat="45.50873" lon="2.72726">
        <ele>1019</ele>
        <time>2020-05-15T18:23:05Z</time>
      </trkpt>
      <trkpt lat="45.50861" lon="2.72718">
        <ele>1018</ele>
        <time>2020-05-15T18:23:10Z</time>
      </trkpt>
      <trkpt lat="45.50831" lon="2.72687">
        <ele>1017</ele>
        <time>2020-05-15T18:23:22Z</time>
      </trkpt>
      <trkpt lat="45.50787" lon="2.7263">
        <ele>1021</ele>
        <time>2020-05-15T18:23:42Z</time>
      </trkpt>
      <trkpt lat="45.50772" lon="2.72599">
        <ele>1022</ele>
        <time>2020-05-15T18:23:51Z</time>
      </trkpt>
      <trkpt lat="45.5076" lon="2.72552">
        <ele>1022</ele>
        <time>2020-05-15T18:24:03Z</time>
      </trkpt>
      <trkpt lat="45.50748" lon="2.72534">
        <ele>1023</ele>
        <time>2020-05-15T18:24:08Z</time>
      </trkpt>
      <trkpt lat="45.50731" lon="2.72526">
        <ele>1025</ele>
        <time>2020-05-15T18:24:14Z</time>
      </trkpt>
      <trkpt lat="45.50712" lon="2.72527">
        <ele>1028</ele>
        <time>2020-05-15T18:24:21Z</time>
      </trkpt>
      <trkpt lat="45.50686" lon="2.72537">
        <ele>1032</ele>
        <time>2020-05-15T18:24:30Z</time>
      </trkpt>
      <trkpt lat="45.50668" lon="2.72533">
        <ele>1035</ele>
        <time>2020-05-15T18:24:36Z</time>
      </trkpt>
      <trkpt lat="45.50651" lon="2.72523">
        <ele>1036</ele>
        <time>2020-05-15T18:24:42Z</time>
      </trkpt>
      <trkpt lat="45.5062" lon="2.72492">
        <ele>1037</ele>
        <time>2020-05-15T18:24:55Z</time>
      </trkpt>
      <trkpt lat="45.50608" lon="2.72472">
        <ele>1038</ele>
        <time>2020-05-15T18:25:01Z</time>
      </trkpt>
      <trkpt lat="45.50602" lon="2.72447">
        <ele>1039</ele>
        <time>2020-05-15T18:25:07Z</time>
      </trkpt>
      <trkpt lat="45.50595" lon="2.72372">
        <ele>1040</ele>
        <time>2020-05-15T18:25:25Z</time>
      </trkpt>
      <trkpt lat="45.50587" lon="2.72344">
        <ele>1042</ele>
        <time>2020-05-15T18:25:32Z</time>
      </trkpt>
      <trkpt lat="45.50576" lon="2.72318">
        <ele>1043</ele>
        <time>2020-05-15T18:25:39Z</time>
      </trkpt>
      <trkpt lat="45.50463" lon="2.72134">
        <ele>1046</ele>
        <time>2020-05-15T18:26:36Z</time>
      </trkpt>
      <trkpt lat="45.50424" lon="2.72082">
        <ele>1047</ele>
        <time>2020-05-15T18:26:54Z</time>
      </trkpt>
      <trkpt lat="45.50409" lon="2.72061">
        <ele>1046</ele>
        <time>2020-05-15T18:27:01Z</time>
      </trkpt>
      <trkpt lat="45.50373" lon="2.72006">
        <ele>1045</ele>
        <time>2020-05-15T18:27:18Z</time>
      </trkpt>
      <trkpt lat="45.50325" lon="2.71913">
        <ele>1040</ele>
        <time>2020-05-15T18:27:45Z</time>
      </trkpt>
      <trkpt lat="45.50302" lon="2.71882">
        <ele>1039</ele>
        <time>2020-05-15T18:27:56Z</time>
      </trkpt>
      <trkpt lat="45.50176" lon="2.71733">
        <ele>1037</ele>
        <time>2020-05-15T18:28:51Z</time>
      </trkpt>
      <trkpt lat="45.50162" lon="2.71707">
        <ele>1037</ele>
        <time>2020-05-15T18:28:58Z</time>
      </trkpt>
      <trkpt lat="45.50157" lon="2.71676">
        <ele>1036</ele>
        <time>2020-05-15T18:29:06Z</time>
      </trkpt>
      <trkpt lat="45.50089" lon="2.71677">
        <ele>1038</ele>
        <time>2020-05-15T18:29:28Z</time>
      </trkpt>
      <trkpt lat="45.49915" lon="2.7168">
        <ele>1041</ele>
        <time>2020-05-15T18:30:26Z</time>
      </trkpt>
      <trkpt lat="45.49842" lon="2.71689">
        <ele>1044</ele>
        <time>2020-05-15T18:30:51Z</time>
      </trkpt>
      <trkpt lat="45.49813" lon="2.71699">
        <ele>1045</ele>
        <time>2020-05-15T18:31:01Z</time>
      </trkpt>
      <trkpt lat="45.49636" lon="2.71779">
        <ele>1052</ele>
        <time>2020-05-15T18:32:03Z</time>
      </trkpt>
      <trkpt lat="45.49567" lon="2.71828">
        <ele>1055</ele>
        <time>2020-05-15T18:32:28Z</time>
      </trkpt>
      <trkpt lat="45.4951" lon="2.71868">
        <ele>1056</ele>
        <time>2020-05-15T18:32:50Z</time>
      </trkpt>
      <trkpt lat="45.49336" lon="2.72005">
        <ele>1068</ele>
        <time>2020-05-15T18:33:56Z</time>
      </trkpt>
      <trkpt lat="45.4931" lon="2.72023">
        <ele>1069</ele>
        <time>2020-05-15T18:34:06Z</time>
      </trkpt>
      <trkpt lat="45.49289" lon="2.72036">
        <ele>1069</ele>
        <time>2020-05-15T18:34:13Z</time>
      </trkpt>
      <trkpt lat="45.4927" lon="2.72044">
        <ele>1068</ele>
        <time>2020-05-15T18:34:20Z</time>
      </trkpt>
      <trkpt lat="45.49253" lon="2.72049">
        <ele>1068</ele>
        <time>2020-05-15T18:34:26Z</time>
      </trkpt>
      <trkpt lat="45.49233" lon="2.72052">
        <ele>1068</ele>
        <time>2020-05-15T18:34:32Z</time>
      </trkpt>
      <trkpt lat="45.49202" lon="2.7206">
        <ele>1068</ele>
        <time>2020-05-15T18:34:43Z</time>
      </trkpt>
      <trkpt lat="45.4916" lon="2.72077">
        <ele>1069</ele>
        <time>2020-05-15T18:34:57Z</time>
      </trkpt>
      <trkpt lat="45.49109" lon="2.72111">
        <ele>1069</ele>
        <time>2020-05-15T18:35:16Z</time>
      </trkpt>
      <trkpt lat="45.4905" lon="2.72165">
        <ele>1070</ele>
        <time>2020-05-15T18:35:40Z</time>
      </trkpt>
      <trkpt lat="45.49016" lon="2.72205">
        <ele>1071</ele>
        <time>2020-05-15T18:35:54Z</time>
      </trkpt>
      <trkpt lat="45.48986" lon="2.72253">
        <ele>1073</ele>
        <time>2020-05-15T18:36:09Z</time>
      </trkpt>
      <trkpt lat="45.48972" lon="2.72293">
        <ele>1074</ele>
        <time>2020-05-15T18:36:20Z</time>
      </trkpt>
      <trkpt lat="45.48955" lon="2.72355">
        <ele>1077</ele>
        <time>2020-05-15T18:36:35Z</time>
      </trkpt>
      <trkpt lat="45.4894" lon="2.72383">
        <ele>1079</ele>
        <time>2020-05-15T18:36:44Z</time>
      </trkpt>
      <trkpt lat="45.48902" lon="2.72433">
        <ele>1082</ele>
        <time>2020-05-15T18:37:01Z</time>
      </trkpt>
      <trkpt lat="45.48888" lon="2.72458">
        <ele>1084</ele>
        <time>2020-05-15T18:37:08Z</time>
      </trkpt>
      <trkpt lat="45.48849" lon="2.72572">
        <ele>1088</ele>
        <time>2020-05-15T18:37:38Z</time>
      </trkpt>
      <trkpt lat="45.48836" lon="2.72604">
        <ele>1087</ele>
        <time>2020-05-15T18:37:47Z</time>
      </trkpt>
      <trkpt lat="45.4882" lon="2.72627">
        <ele>1087</ele>
        <time>2020-05-15T18:37:54Z</time>
      </trkpt>
      <trkpt lat="45.48805" lon="2.72645">
        <ele>1087</ele>
        <time>2020-05-15T18:38:01Z</time>
      </trkpt>
      <trkpt lat="45.48798" lon="2.72654">
        <ele>1087</ele>
        <time>2020-05-15T18:38:04Z</time>
      </trkpt>
      <trkpt lat="45.48787" lon="2.72676">
        <ele>1086</ele>
        <time>2020-05-15T18:38:10Z</time>
      </trkpt>
      <trkpt lat="45.48777" lon="2.72714">
        <ele>1087</ele>
        <time>2020-05-15T18:38:20Z</time>
      </trkpt>
      <trkpt lat="45.48754" lon="2.72775">
        <ele>1087</ele>
        <time>2020-05-15T18:38:36Z</time>
      </trkpt>
      <trkpt lat="45.48741" lon="2.728">
        <ele>1088</ele>
        <time>2020-05-15T18:38:43Z</time>
      </trkpt>
      <trkpt lat="45.48729" lon="2.72818">
        <ele>1088</ele>
        <time>2020-05-15T18:38:49Z</time>
      </trkpt>
      <trkpt lat="45.4871" lon="2.72837">
        <ele>1088</ele>
        <time>2020-05-15T18:38:57Z</time>
      </trkpt>
      <trkpt lat="45.48558" lon="2.72953">
        <ele>1080</ele>
        <time>2020-05-15T18:39:54Z</time>
      </trkpt>
      <trkpt lat="45.48529" lon="2.72986">
        <ele>1078</ele>
        <time>2020-05-15T18:40:07Z</time>
      </trkpt>
      <trkpt lat="45.4849" lon="2.73064">
        <ele>1074</ele>
        <time>2020-05-15T18:40:29Z</time>
      </trkpt>
      <trkpt lat="45.48387" lon="2.73201">
        <ele>1067</ele>
        <time>2020-05-15T18:41:16Z</time>
      </trkpt>
      <trkpt lat="45.48364" lon="2.73218">
        <ele>1065</ele>
        <time>2020-05-15T18:41:25Z</time>
      </trkpt>
      <trkpt lat="45.48328" lon="2.73219">
        <ele>1063</ele>
        <time>2020-05-15T18:41:37Z</time>
      </trkpt>
      <trkpt lat="45.48289" lon="2.73214">
        <ele>1064</ele>
        <time>2020-05-15T18:41:50Z</time>
      </trkpt>
      <trkpt lat="45.48171" lon="2.73189">
        <ele>1062</ele>
        <time>2020-05-15T18:42:30Z</time>
      </trkpt>
      <trkpt lat="45.48112" lon="2.73176">
        <ele>1057</ele>
        <time>2020-05-15T18:42:49Z</time>
      </trkpt>
      <trkpt lat="45.48093" lon="2.73176">
        <ele>1055</ele>
        <time>2020-05-15T18:42:56Z</time>
      </trkpt>
      <trkpt lat="45.48077" lon="2.73181">
        <ele>1054</ele>
        <time>2020-05-15T18:43:01Z</time>
      </trkpt>
      <trkpt lat="45.48064" lon="2.73194">
        <ele>1054</ele>
        <time>2020-05-15T18:43:07Z</time>
      </trkpt>
      <trkpt lat="45.48048" lon="2.73233">
        <ele>1055</ele>
        <time>2020-05-15T18:43:17Z</time>
      </trkpt>
      <trkpt lat="45.48037" lon="2.7325">
        <ele>1055</ele>
        <time>2020-05-15T18:43:23Z</time>
      </trkpt>
      <trkpt lat="45.48021" lon="2.73262">
        <ele>1054</ele>
        <time>2020-05-15T18:43:29Z</time>
      </trkpt>
      <trkpt lat="45.48001" lon="2.73264">
        <ele>1053</ele>
        <time>2020-05-15T18:43:35Z</time>
      </trkpt>
      <trkpt lat="45.47882" lon="2.73266">
        <ele>1047</ele>
        <time>2020-05-15T18:44:15Z</time>
      </trkpt>
      <trkpt lat="45.47857" lon="2.73272">
        <ele>1046</ele>
        <time>2020-05-15T18:44:23Z</time>
      </trkpt>
      <trkpt lat="45.47836" lon="2.73289">
        <ele>1046</ele>
        <time>2020-05-15T18:44:31Z</time>
      </trkpt>
      <trkpt lat="45.47789" lon="2.7334">
        <ele>1047</ele>
        <time>2020-05-15T18:44:51Z</time>
      </trkpt>
      <trkpt lat="45.47784" lon="2.73347">
        <ele>1047</ele>
        <time>2020-05-15T18:44:53Z</time>
      </trkpt>
      <trkpt lat="45.47677" lon="2.7343">
        <ele>1045</ele>
        <time>2020-05-15T18:45:34Z</time>
      </trkpt>
      <trkpt lat="45.47651" lon="2.73451">
        <ele>1043</ele>
        <time>2020-05-15T18:45:44Z</time>
      </trkpt>
      <trkpt lat="45.47645" lon="2.73463">
        <ele>1042</ele>
        <time>2020-05-15T18:45:48Z</time>
      </trkpt>
      <trkpt lat="45.47638" lon="2.73487">
        <ele>1040</ele>
        <time>2020-05-15T18:45:54Z</time>
      </trkpt>
      <trkpt lat="45.47622" lon="2.73562">
        <ele>1036</ele>
        <time>2020-05-15T18:46:12Z</time>
      </trkpt>
      <trkpt lat="45.4762" lon="2.73589">
        <ele>1035</ele>
        <time>2020-05-15T18:46:18Z</time>
      </trkpt>
      <trkpt lat="45.47621" lon="2.73616">
        <ele>1034</ele>
        <time>2020-05-15T18:46:25Z</time>
      </trkpt>
      <trkpt lat="45.47626" lon="2.73648">
        <ele>1034</ele>
        <time>2020-05-15T18:46:32Z</time>
      </trkpt>
      <trkpt lat="45.47674" lon="2.73888">
        <ele>1024</ele>
        <time>2020-05-15T18:47:31Z</time>
      </trkpt>
      <trkpt lat="45.47672" lon="2.73907">
        <ele>1023</ele>
        <time>2020-05-15T18:47:35Z</time>
      </trkpt>
      <trkpt lat="45.47668" lon="2.73921">
        <ele>1022</ele>
        <time>2020-05-15T18:47:39Z</time>
      </trkpt>
      <trkpt lat="45.47661" lon="2.73932">
        <ele>1022</ele>
        <time>2020-05-15T18:47:42Z</time>
      </trkpt>
      <trkpt lat="45.4765" lon="2.73944">
        <ele>1021</ele>
        <time>2020-05-15T18:47:47Z</time>
      </trkpt>
      <trkpt lat="45.47637" lon="2.73953">
        <ele>1021</ele>
        <time>2020-05-15T18:47:52Z</time>
      </trkpt>
      <trkpt lat="45.47628" lon="2.7396">
        <ele>1021</ele>
        <time>2020-05-15T18:47:55Z</time>
      </trkpt>
      <trkpt lat="45.47548" lon="2.74022">
        <ele>1019</ele>
        <time>2020-05-15T18:48:25Z</time>
      </trkpt>
      <trkpt lat="45.4754" lon="2.74032">
        <ele>1019</ele>
        <time>2020-05-15T18:48:29Z</time>
      </trkpt>
      <trkpt lat="45.47531" lon="2.7405">
        <ele>1019</ele>
        <time>2020-05-15T18:48:34Z</time>
      </trkpt>
      <trkpt lat="45.47523" lon="2.74075">
        <ele>1019</ele>
        <time>2020-05-15T18:48:41Z</time>
      </trkpt>
      <trkpt lat="45.47519" lon="2.74105">
        <ele>1019</ele>
        <time>2020-05-15T18:48:48Z</time>
      </trkpt>
      <trkpt lat="45.47517" lon="2.74136">
        <ele>1020</ele>
        <time>2020-05-15T18:48:55Z</time>
      </trkpt>
      <trkpt lat="45.47521" lon="2.74252">
        <ele>1023</ele>
        <time>2020-05-15T18:49:22Z</time>
      </trkpt>
      <trkpt lat="45.47519" lon="2.74267">
        <ele>1022</ele>
        <time>2020-05-15T18:49:26Z</time>
      </trkpt>
      <trkpt lat="45.47513" lon="2.74279">
        <ele>1022</ele>
        <time>2020-05-15T18:49:29Z</time>
      </trkpt>
      <trkpt lat="45.47503" lon="2.7429">
        <ele>1021</ele>
        <time>2020-05-15T18:49:33Z</time>
      </trkpt>
      <trkpt lat="45.47483" lon="2.74297">
        <ele>1020</ele>
        <time>2020-05-15T18:49:40Z</time>
      </trkpt>
      <trkpt lat="45.47462" lon="2.74311">
        <ele>1020</ele>
        <time>2020-05-15T18:49:48Z</time>
      </trkpt>
      <trkpt lat="45.47445" lon="2.74335">
        <ele>1020</ele>
        <time>2020-05-15T18:49:56Z</time>
      </trkpt>
      <trkpt lat="45.47344" lon="2.74542">
        <ele>1021</ele>
        <time>2020-05-15T18:50:55Z</time>
      </trkpt>
      <trkpt lat="45.47324" lon="2.74567">
        <ele>1022</ele>
        <time>2020-05-15T18:51:04Z</time>
      </trkpt>
      <trkpt lat="45.47303" lon="2.74584">
        <ele>1024</ele>
        <time>2020-05-15T18:51:12Z</time>
      </trkpt>
      <trkpt lat="45.47284" lon="2.74591">
        <ele>1025</ele>
        <time>2020-05-15T18:51:18Z</time>
      </trkpt>
      <trkpt lat="45.47272" lon="2.74587">
        <ele>1026</ele>
        <time>2020-05-15T18:51:23Z</time>
      </trkpt>
      <trkpt lat="45.47249" lon="2.74571">
        <ele>1028</ele>
        <time>2020-05-15T18:51:31Z</time>
      </trkpt>
      <trkpt lat="45.47153" lon="2.74467">
        <ele>1029</ele>
        <time>2020-05-15T18:52:11Z</time>
      </trkpt>
      <trkpt lat="45.47138" lon="2.74455">
        <ele>1029</ele>
        <time>2020-05-15T18:52:17Z</time>
      </trkpt>
      <trkpt lat="45.47121" lon="2.74453">
        <ele>1029</ele>
        <time>2020-05-15T18:52:23Z</time>
      </trkpt>
      <trkpt lat="45.47106" lon="2.7446">
        <ele>1030</ele>
        <time>2020-05-15T18:52:28Z</time>
      </trkpt>
      <trkpt lat="45.47036" lon="2.74515">
        <ele>1038</ele>
        <time>2020-05-15T18:52:55Z</time>
      </trkpt>
      <trkpt lat="45.47007" lon="2.74546">
        <ele>1042</ele>
        <time>2020-05-15T18:53:07Z</time>
      </trkpt>
      <trkpt lat="45.46935" lon="2.74632">
        <ele>1052</ele>
        <time>2020-05-15T18:53:38Z</time>
      </trkpt>
      <trkpt lat="45.46917" lon="2.74645">
        <ele>1053</ele>
        <time>2020-05-15T18:53:45Z</time>
      </trkpt>
      <trkpt lat="45.46902" lon="2.74649">
        <ele>1055</ele>
        <time>2020-05-15T18:53:50Z</time>
      </trkpt>
      <trkpt lat="45.46879" lon="2.74645">
        <ele>1058</ele>
        <time>2020-05-15T18:53:58Z</time>
      </trkpt>
      <trkpt lat="45.46863" lon="2.74624">
        <ele>1059</ele>
        <time>2020-05-15T18:54:05Z</time>
      </trkpt>
      <trkpt lat="45.46826" lon="2.74564">
        <ele>1059</ele>
        <time>2020-05-15T18:54:24Z</time>
      </trkpt>
      <trkpt lat="45.46807" lon="2.74542">
        <ele>1059</ele>
        <time>2020-05-15T18:54:32Z</time>
      </trkpt>
      <trkpt lat="45.46794" lon="2.74533">
        <ele>1059</ele>
        <time>2020-05-15T18:54:37Z</time>
      </trkpt>
      <trkpt lat="45.46778" lon="2.74533">
        <ele>1060</ele>
        <time>2020-05-15T18:54:42Z</time>
      </trkpt>
      <trkpt lat="45.46762" lon="2.74538">
        <ele>1061</ele>
        <time>2020-05-15T18:54:47Z</time>
      </trkpt>
      <trkpt lat="45.46748" lon="2.74547">
        <ele>1062</ele>
        <time>2020-05-15T18:54:53Z</time>
      </trkpt>
      <trkpt lat="45.46738" lon="2.74559">
        <ele>1062</ele>
        <time>2020-05-15T18:54:57Z</time>
      </trkpt>
      <trkpt lat="45.46729" lon="2.7458">
        <ele>1063</ele>
        <time>2020-05-15T18:55:03Z</time>
      </trkpt>
      <trkpt lat="45.46726" lon="2.74615">
        <ele>1064</ele>
        <time>2020-05-15T18:55:11Z</time>
      </trkpt>
      <trkpt lat="45.46726" lon="2.75001">
        <ele>1076</ele>
        <time>2020-05-15T18:56:41Z</time>
      </trkpt>
      <trkpt lat="45.46733" lon="2.75114">
        <ele>1079</ele>
        <time>2020-05-15T18:57:08Z</time>
      </trkpt>
      <trkpt lat="45.46745" lon="2.75193">
        <ele>1080</ele>
        <time>2020-05-15T18:57:27Z</time>
      </trkpt>
      <trkpt lat="45.46746" lon="2.75232">
        <ele>1078</ele>
        <time>2020-05-15T18:57:36Z</time>
      </trkpt>
      <trkpt lat="45.46744" lon="2.75249">
        <ele>1078</ele>
        <time>2020-05-15T18:57:40Z</time>
      </trkpt>
      <trkpt lat="45.4674" lon="2.7527">
        <ele>1079</ele>
        <time>2020-05-15T18:57:45Z</time>
      </trkpt>
      <trkpt lat="45.46732" lon="2.75291">
        <ele>1081</ele>
        <time>2020-05-15T18:57:51Z</time>
      </trkpt>
      <trkpt lat="45.46719" lon="2.75318">
        <ele>1083</ele>
        <time>2020-05-15T18:57:58Z</time>
      </trkpt>
      <trkpt lat="45.46685" lon="2.75375">
        <ele>1086</ele>
        <time>2020-05-15T18:58:16Z</time>
      </trkpt>
      <trkpt lat="45.46671" lon="2.75404">
        <ele>1087</ele>
        <time>2020-05-15T18:58:24Z</time>
      </trkpt>
      <trkpt lat="45.46655" lon="2.75476">
        <ele>1094</ele>
        <time>2020-05-15T18:58:42Z</time>
      </trkpt>
      <trkpt lat="45.46637" lon="2.75638">
        <ele>1104</ele>
        <time>2020-05-15T18:59:20Z</time>
      </trkpt>
      <trkpt lat="45.46631" lon="2.75668">
        <ele>1105</ele>
        <time>2020-05-15T18:59:27Z</time>
      </trkpt>
      <trkpt lat="45.46579" lon="2.75801">
        <ele>1109</ele>
        <time>2020-05-15T19:00:03Z</time>
      </trkpt>
      <trkpt lat="45.46543" lon="2.75866">
        <ele>1115</ele>
        <time>2020-05-15T19:00:22Z</time>
      </trkpt>
      <trkpt lat="45.46537" lon="2.75892">
        <ele>1118</ele>
        <time>2020-05-15T19:00:29Z</time>
      </trkpt>
      <trkpt lat="45.46537" lon="2.75928">
        <ele>1121</ele>
        <time>2020-05-15T19:00:37Z</time>
      </trkpt>
      <trkpt lat="45.46551" lon="2.76102">
        <ele>1117</ele>
        <time>2020-05-15T19:01:18Z</time>
      </trkpt>
      <trkpt lat="45.46548" lon="2.76133">
        <ele>1116</ele>
        <time>2020-05-15T19:01:25Z</time>
      </trkpt>
      <trkpt lat="45.4654" lon="2.76168">
        <ele>1116</ele>
        <time>2020-05-15T19:01:34Z</time>
      </trkpt>
      <trkpt lat="45.46457" lon="2.76413">
        <ele>1117</ele>
        <time>2020-05-15T19:02:38Z</time>
      </trkpt>
      <trkpt lat="45.46453" lon="2.76424">
        <ele>1117</ele>
        <time>2020-05-15T19:02:41Z</time>
      </trkpt>
      <trkpt lat="45.46451" lon="2.7643">
        <ele>1117</ele>
        <time>2020-05-15T19:02:42Z</time>
      </trkpt>
      <trkpt lat="45.46443" lon="2.76452">
        <ele>1117</ele>
        <time>2020-05-15T19:02:48Z</time>
      </trkpt>
      <trkpt lat="45.46429" lon="2.76495">
        <ele>1118</ele>
        <time>2020-05-15T19:02:59Z</time>
      </trkpt>
      <trkpt lat="45.46412" lon="2.76546">
        <ele>1118</ele>
        <time>2020-05-15T19:03:12Z</time>
      </trkpt>
      <trkpt lat="45.46409" lon="2.7658">
        <ele>1119</ele>
        <time>2020-05-15T19:03:20Z</time>
      </trkpt>
      <trkpt lat="45.46411" lon="2.76613">
        <ele>1118</ele>
        <time>2020-05-15T19:03:28Z</time>
      </trkpt>
      <trkpt lat="45.46428" lon="2.76714">
        <ele>1118</ele>
        <time>2020-05-15T19:03:52Z</time>
      </trkpt>
      <trkpt lat="45.46427" lon="2.7674">
        <ele>1118</ele>
        <time>2020-05-15T19:03:58Z</time>
      </trkpt>
      <trkpt lat="45.4642" lon="2.76768">
        <ele>1118</ele>
        <time>2020-05-15T19:04:05Z</time>
      </trkpt>
      <trkpt lat="45.46417" lon="2.76779">
        <ele>1117</ele>
        <time>2020-05-15T19:04:08Z</time>
      </trkpt>
      <trkpt lat="45.46414" lon="2.76809">
        <ele>1117</ele>
        <time>2020-05-15T19:04:15Z</time>
      </trkpt>
      <trkpt lat="45.46412" lon="2.76863">
        <ele>1117</ele>
        <time>2020-05-15T19:04:28Z</time>
      </trkpt>
      <trkpt lat="45.46412" lon="2.76868">
        <ele>1117</ele>
        <time>2020-05-15T19:04:29Z</time>
      </trkpt>
      <trkpt lat="45.4641" lon="2.76921">
        <ele>1118</ele>
        <time>2020-05-15T19:04:41Z</time>
      </trkpt>
      <trkpt lat="45.4641" lon="2.76927">
        <ele>1118</ele>
        <time>2020-05-15T19:04:43Z</time>
      </trkpt>
      <trkpt lat="45.46407" lon="2.76946">
        <ele>1117</ele>
        <time>2020-05-15T19:04:47Z</time>
      </trkpt>
      <trkpt lat="45.46424" lon="2.76945">
        <ele>1120</ele>
        <time>2020-05-15T19:04:53Z</time>
      </trkpt>
      <trkpt lat="45.46435" lon="2.76948">
        <ele>1122</ele>
        <time>2020-05-15T19:04:57Z</time>
      </trkpt>
      <trkpt lat="45.46441" lon="2.76955">
        <ele>1123</ele>
        <time>2020-05-15T19:04:59Z</time>
      </trkpt>
      <trkpt lat="45.46456" lon="2.76982">
        <ele>1125</ele>
        <time>2020-05-15T19:05:07Z</time>
      </trkpt>
      <trkpt lat="45.46465" lon="2.77003">
        <ele>1126</ele>
        <time>2020-05-15T19:05:13Z</time>
      </trkpt>
      <trkpt lat="45.4647" lon="2.77006">
        <ele>1127</ele>
        <time>2020-05-15T19:05:15Z</time>
      </trkpt>
      <trkpt lat="45.46467" lon="2.77012">
        <ele>1126</ele>
        <time>2020-05-15T19:05:17Z</time>
      </trkpt>
      <trkpt lat="45.46465" lon="2.77027">
        <ele>1126</ele>
        <time>2020-05-15T19:05:20Z</time>
      </trkpt>
      <trkpt lat="45.46465" lon="2.77037">
        <ele>1127</ele>
        <time>2020-05-15T19:05:23Z</time>
      </trkpt>
      <trkpt lat="45.46465" lon="2.77027">
        <ele>1126</ele>
        <time>2020-05-15T19:05:25Z</time>
      </trkpt>
      <trkpt lat="45.46467" lon="2.77012">
        <ele>1126</ele>
        <time>2020-05-15T19:05:29Z</time>
      </trkpt>
      <trkpt lat="45.4647" lon="2.77006">
        <ele>1127</ele>
        <time>2020-05-15T19:05:30Z</time>
      </trkpt>
      <trkpt lat="45.46465" lon="2.77003">
        <ele>1126</ele>
        <time>2020-05-15T19:05:32Z</time>
      </trkpt>
      <trkpt lat="45.46456" lon="2.76982">
        <ele>1125</ele>
        <time>2020-05-15T19:05:38Z</time>
      </trkpt>
      <trkpt lat="45.46441" lon="2.76955">
        <ele>1123</ele>
        <time>2020-05-15T19:05:46Z</time>
      </trkpt>
      <trkpt lat="45.46435" lon="2.76948">
        <ele>1122</ele>
        <time>2020-05-15T19:05:49Z</time>
      </trkpt>
      <trkpt lat="45.46424" lon="2.76945">
        <ele>1120</ele>
        <time>2020-05-15T19:05:52Z</time>
      </trkpt>
      <trkpt lat="45.46407" lon="2.76946">
        <ele>1117</ele>
        <time>2020-05-15T19:05:58Z</time>
      </trkpt>
      <trkpt lat="45.46401" lon="2.76978">
        <ele>1117</ele>
        <time>2020-05-15T19:06:06Z</time>
      </trkpt>
      <trkpt lat="45.46376" lon="2.77075">
        <ele>1112</ele>
        <time>2020-05-15T19:06:30Z</time>
      </trkpt>
      <trkpt lat="45.46374" lon="2.77106">
        <ele>1111</ele>
        <time>2020-05-15T19:06:37Z</time>
      </trkpt>
      <trkpt lat="45.46379" lon="2.77143">
        <ele>1111</ele>
        <time>2020-05-15T19:06:46Z</time>
      </trkpt>
      <trkpt lat="45.46383" lon="2.77167">
        <ele>1112</ele>
        <time>2020-05-15T19:06:52Z</time>
      </trkpt>
      <trkpt lat="45.46384" lon="2.77188">
        <ele>1113</ele>
        <time>2020-05-15T19:06:57Z</time>
      </trkpt>
      <trkpt lat="45.46382" lon="2.77209">
        <ele>1113</ele>
        <time>2020-05-15T19:07:02Z</time>
      </trkpt>
      <trkpt lat="45.46373" lon="2.77239">
        <ele>1113</ele>
        <time>2020-05-15T19:07:09Z</time>
      </trkpt>
      <trkpt lat="45.46356" lon="2.77269">
        <ele>1111</ele>
        <time>2020-05-15T19:07:18Z</time>
      </trkpt>
      <trkpt lat="45.46336" lon="2.77287">
        <ele>1106</ele>
        <time>2020-05-15T19:07:26Z</time>
      </trkpt>
      <trkpt lat="45.46295" lon="2.7732">
        <ele>1099</ele>
        <time>2020-05-15T19:07:42Z</time>
      </trkpt>
      <trkpt lat="45.46274" lon="2.77356">
        <ele>1096</ele>
        <time>2020-05-15T19:07:53Z</time>
      </trkpt>
      <trkpt lat="45.46232" lon="2.7748">
        <ele>1097</ele>
        <time>2020-05-15T19:08:25Z</time>
      </trkpt>
      <trkpt lat="45.46217" lon="2.77504">
        <ele>1096</ele>
        <time>2020-05-15T19:08:33Z</time>
      </trkpt>
      <trkpt lat="45.46198" lon="2.77516">
        <ele>1093</ele>
        <time>2020-05-15T19:08:40Z</time>
      </trkpt>
      <trkpt lat="45.46181" lon="2.77514">
        <ele>1090</ele>
        <time>2020-05-15T19:08:45Z</time>
      </trkpt>
      <trkpt lat="45.46159" lon="2.77501">
        <ele>1085</ele>
        <time>2020-05-15T19:08:53Z</time>
      </trkpt>
      <trkpt lat="45.46142" lon="2.77487">
        <ele>1082</ele>
        <time>2020-05-15T19:09:00Z</time>
      </trkpt>
      <trkpt lat="45.46123" lon="2.77484">
        <ele>1079</ele>
        <time>2020-05-15T19:09:06Z</time>
      </trkpt>
      <trkpt lat="45.46104" lon="2.77495">
        <ele>1077</ele>
        <time>2020-05-15T19:09:13Z</time>
      </trkpt>
      <trkpt lat="45.46088" lon="2.77511">
        <ele>1076</ele>
        <time>2020-05-15T19:09:19Z</time>
      </trkpt>
      <trkpt lat="45.46082" lon="2.77537">
        <ele>1076</ele>
        <time>2020-05-15T19:09:26Z</time>
      </trkpt>
      <trkpt lat="45.46077" lon="2.7756">
        <ele>1076</ele>
        <time>2020-05-15T19:09:31Z</time>
      </trkpt>
      <trkpt lat="45.46084" lon="2.77622">
        <ele>1078</ele>
        <time>2020-05-15T19:09:46Z</time>
      </trkpt>
      <trkpt lat="45.46113" lon="2.77789">
        <ele>1079</ele>
        <time>2020-05-15T19:10:26Z</time>
      </trkpt>
      <trkpt lat="45.46127" lon="2.77909">
        <ele>1075</ele>
        <time>2020-05-15T19:10:55Z</time>
      </trkpt>
      <trkpt lat="45.46128" lon="2.77949">
        <ele>1074</ele>
        <time>2020-05-15T19:11:04Z</time>
      </trkpt>
      <trkpt lat="45.46119" lon="2.77986">
        <ele>1071</ele>
        <time>2020-05-15T19:11:13Z</time>
      </trkpt>
      <trkpt lat="45.46109" lon="2.78003">
        <ele>1068</ele>
        <time>2020-05-15T19:11:19Z</time>
      </trkpt>
      <trkpt lat="45.46073" lon="2.7803">
        <ele>1061</ele>
        <time>2020-05-15T19:11:32Z</time>
      </trkpt>
      <trkpt lat="45.46063" lon="2.78044">
        <ele>1059</ele>
        <time>2020-05-15T19:11:37Z</time>
      </trkpt>
      <trkpt lat="45.46057" lon="2.78061">
        <ele>1058</ele>
        <time>2020-05-15T19:11:41Z</time>
      </trkpt>
      <trkpt lat="45.46055" lon="2.78078">
        <ele>1058</ele>
        <time>2020-05-15T19:11:45Z</time>
      </trkpt>
      <trkpt lat="45.46057" lon="2.78098">
        <ele>1059</ele>
        <time>2020-05-15T19:11:50Z</time>
      </trkpt>
      <trkpt lat="45.46071" lon="2.78149">
        <ele>1061</ele>
        <time>2020-05-15T19:12:03Z</time>
      </trkpt>
      <trkpt lat="45.4607" lon="2.78171">
        <ele>1060</ele>
        <time>2020-05-15T19:12:08Z</time>
      </trkpt>
      <trkpt lat="45.46028" lon="2.7837">
        <ele>1054</ele>
        <time>2020-05-15T19:12:57Z</time>
      </trkpt>
      <trkpt lat="45.46025" lon="2.78401">
        <ele>1054</ele>
        <time>2020-05-15T19:13:04Z</time>
      </trkpt>
      <trkpt lat="45.46027" lon="2.78431">
        <ele>1055</ele>
        <time>2020-05-15T19:13:11Z</time>
      </trkpt>
      <trkpt lat="45.46033" lon="2.78473">
        <ele>1056</ele>
        <time>2020-05-15T19:13:21Z</time>
      </trkpt>
      <trkpt lat="45.46034" lon="2.78498">
        <ele>1056</ele>
        <time>2020-05-15T19:13:27Z</time>
      </trkpt>
      <trkpt lat="45.46031" lon="2.78524">
        <ele>1055</ele>
        <time>2020-05-15T19:13:33Z</time>
      </trkpt>
      <trkpt lat="45.4601" lon="2.78625">
        <ele>1049</ele>
        <time>2020-05-15T19:13:58Z</time>
      </trkpt>
      <trkpt lat="45.46007" lon="2.78623">
        <ele>1048</ele>
        <time>2020-05-15T19:13:59Z</time>
      </trkpt>
      <trkpt lat="45.45996" lon="2.7863">
        <ele>1046</ele>
        <time>2020-05-15T19:14:03Z</time>
      </trkpt>
      <trkpt lat="45.4599" lon="2.78629">
        <ele>1046</ele>
        <time>2020-05-15T19:14:05Z</time>
      </trkpt>
      <trkpt lat="45.45985" lon="2.78588">
        <ele>1045</ele>
        <time>2020-05-15T19:14:15Z</time>
      </trkpt>
      <trkpt lat="45.45986" lon="2.78537">
        <ele>1044</ele>
        <time>2020-05-15T19:14:27Z</time>
      </trkpt>
      <trkpt lat="45.45982" lon="2.78525">
        <ele>1044</ele>
        <time>2020-05-15T19:14:30Z</time>
      </trkpt>
      <trkpt lat="45.45975" lon="2.78518">
        <ele>1044</ele>
        <time>2020-05-15T19:14:33Z</time>
      </trkpt>
      <trkpt lat="45.45964" lon="2.78515">
        <ele>1043</ele>
        <time>2020-05-15T19:14:36Z</time>
      </trkpt>
      <trkpt lat="45.45909" lon="2.78459">
        <ele>1040</ele>
        <time>2020-05-15T19:14:59Z</time>
      </trkpt>
      <trkpt lat="45.45824" lon="2.78397">
        <ele>1043</ele>
        <time>2020-05-15T19:15:31Z</time>
      </trkpt>
      <trkpt lat="45.45727" lon="2.78391">
        <ele>1047</ele>
        <time>2020-05-15T19:16:03Z</time>
      </trkpt>
      <trkpt lat="45.45716" lon="2.78391">
        <ele>1048</ele>
        <time>2020-05-15T19:16:07Z</time>
      </trkpt>
      <trkpt lat="45.45657" lon="2.78346">
        <ele>1053</ele>
        <time>2020-05-15T19:16:29Z</time>
      </trkpt>
      <trkpt lat="45.45622" lon="2.78276">
        <ele>1056</ele>
        <time>2020-05-15T19:16:49Z</time>
      </trkpt>
      <trkpt lat="45.45609" lon="2.78213">
        <ele>1056</ele>
        <time>2020-05-15T19:17:05Z</time>
      </trkpt>
      <trkpt lat="45.45548" lon="2.78071">
        <ele>1057</ele>
        <time>2020-05-15T19:17:44Z</time>
      </trkpt>
      <trkpt lat="45.45531" lon="2.7804">
        <ele>1058</ele>
        <time>2020-05-15T19:17:53Z</time>
      </trkpt>
      <trkpt lat="45.45512" lon="2.78022">
        <ele>1059</ele>
        <time>2020-05-15T19:18:00Z</time>
      </trkpt>
      <trkpt lat="45.45466" lon="2.78006">
        <ele>1059</ele>
        <time>2020-05-15T19:18:16Z</time>
      </trkpt>
      <trkpt lat="45.45428" lon="2.77981">
        <ele>1058</ele>
        <time>2020-05-15T19:18:30Z</time>
      </trkpt>
      <trkpt lat="45.454" lon="2.7797">
        <ele>1057</ele>
        <time>2020-05-15T19:18:40Z</time>
      </trkpt>
      <trkpt lat="45.45388" lon="2.77956">
        <ele>1056</ele>
        <time>2020-05-15T19:18:45Z</time>
      </trkpt>
      <trkpt lat="45.45336" lon="2.77937">
        <ele>1053</ele>
        <time>2020-05-15T19:19:03Z</time>
      </trkpt>
      <trkpt lat="45.45266" lon="2.7794">
        <ele>1052</ele>
        <time>2020-05-15T19:19:26Z</time>
      </trkpt>
      <trkpt lat="45.4519" lon="2.7796">
        <ele>1048</ele>
        <time>2020-05-15T19:19:52Z</time>
      </trkpt>
      <trkpt lat="45.45143" lon="2.77993">
        <ele>1045</ele>
        <time>2020-05-15T19:20:09Z</time>
      </trkpt>
      <trkpt lat="45.4512" lon="2.78016">
        <ele>1043</ele>
        <time>2020-05-15T19:20:19Z</time>
      </trkpt>
      <trkpt lat="45.45039" lon="2.77843">
        <ele>1040</ele>
        <time>2020-05-15T19:21:08Z</time>
      </trkpt>
      <trkpt lat="45.44976" lon="2.77713">
        <ele>1042</ele>
        <time>2020-05-15T19:21:45Z</time>
      </trkpt>
      <trkpt lat="45.44923" lon="2.77634">
        <ele>1045</ele>
        <time>2020-05-15T19:22:10Z</time>
      </trkpt>
      <trkpt lat="45.44898" lon="2.77604">
        <ele>1045</ele>
        <time>2020-05-15T19:22:21Z</time>
      </trkpt>
      <trkpt lat="45.44858" lon="2.77561">
        <ele>1045</ele>
        <time>2020-05-15T19:22:38Z</time>
      </trkpt>
      <trkpt lat="45.4484" lon="2.7755">
        <ele>1046</ele>
        <time>2020-05-15T19:22:44Z</time>
      </trkpt>
      <trkpt lat="45.44828" lon="2.77546">
        <ele>1047</ele>
        <time>2020-05-15T19:22:48Z</time>
      </trkpt>
      <trkpt lat="45.44758" lon="2.77522">
        <ele>1046</ele>
        <time>2020-05-15T19:23:12Z</time>
      </trkpt>
      <trkpt lat="45.44735" lon="2.77523">
        <ele>1046</ele>
        <time>2020-05-15T19:23:20Z</time>
      </trkpt>
      <trkpt lat="45.44715" lon="2.77533">
        <ele>1046</ele>
        <time>2020-05-15T19:23:27Z</time>
      </trkpt>
      <trkpt lat="45.44678" lon="2.7756">
        <ele>1047</ele>
        <time>2020-05-15T19:23:41Z</time>
      </trkpt>
      <trkpt lat="45.44664" lon="2.77564">
        <ele>1047</ele>
        <time>2020-05-15T19:23:46Z</time>
      </trkpt>
      <trkpt lat="45.44639" lon="2.77558">
        <ele>1046</ele>
        <time>2020-05-15T19:23:54Z</time>
      </trkpt>
      <trkpt lat="45.44338" lon="2.77422">
        <ele>1035</ele>
        <time>2020-05-15T19:25:40Z</time>
      </trkpt>
      <trkpt lat="45.44216" lon="2.77392">
        <ele>1032</ele>
        <time>2020-05-15T19:26:21Z</time>
      </trkpt>
      <trkpt lat="45.44184" lon="2.77375">
        <ele>1031</ele>
        <time>2020-05-15T19:26:32Z</time>
      </trkpt>
      <trkpt lat="45.43817" lon="2.77041">
        <ele>1026</ele>
        <time>2020-05-15T19:28:58Z</time>
      </trkpt>
      <trkpt lat="45.43772" lon="2.76998">
        <ele>1026</ele>
        <time>2020-05-15T19:29:16Z</time>
      </trkpt>
      <trkpt lat="45.43763" lon="2.76984">
        <ele>1026</ele>
        <time>2020-05-15T19:29:20Z</time>
      </trkpt>
      <trkpt lat="45.43753" lon="2.76966">
        <ele>1025</ele>
        <time>2020-05-15T19:29:25Z</time>
      </trkpt>
      <trkpt lat="45.43593" lon="2.76575">
        <ele>1032</ele>
        <time>2020-05-15T19:31:11Z</time>
      </trkpt>
      <trkpt lat="45.43505" lon="2.76356">
        <ele>1035</ele>
        <time>2020-05-15T19:32:10Z</time>
      </trkpt>
      <trkpt lat="45.43487" lon="2.76321">
        <ele>1036</ele>
        <time>2020-05-15T19:32:21Z</time>
      </trkpt>
      <trkpt lat="45.4346" lon="2.76283">
        <ele>1037</ele>
        <time>2020-05-15T19:32:33Z</time>
      </trkpt>
      <trkpt lat="45.42927" lon="2.75609">
        <ele>1044</ele>
        <time>2020-05-15T19:36:31Z</time>
      </trkpt>
      <trkpt lat="45.42896" lon="2.75565">
        <ele>1045</ele>
        <time>2020-05-15T19:36:46Z</time>
      </trkpt>
      <trkpt lat="45.42876" lon="2.75532">
        <ele>1045</ele>
        <time>2020-05-15T19:36:56Z</time>
      </trkpt>
      <trkpt lat="45.4283" lon="2.75448">
        <ele>1044</ele>
        <time>2020-05-15T19:37:21Z</time>
      </trkpt>
      <trkpt lat="45.42657" lon="2.75121">
        <ele>1041</ele>
        <time>2020-05-15T19:38:57Z</time>
      </trkpt>
      <trkpt lat="45.4263" lon="2.75051">
        <ele>1040</ele>
        <time>2020-05-15T19:39:15Z</time>
      </trkpt>
      <trkpt lat="45.42607" lon="2.74979">
        <ele>1039</ele>
        <time>2020-05-15T19:39:34Z</time>
      </trkpt>
      <trkpt lat="45.42595" lon="2.74931">
        <ele>1038</ele>
        <time>2020-05-15T19:39:46Z</time>
      </trkpt>
      <trkpt lat="45.42584" lon="2.74859">
        <ele>1038</ele>
        <time>2020-05-15T19:40:03Z</time>
      </trkpt>
      <trkpt lat="45.42575" lon="2.74786">
        <ele>1036</ele>
        <time>2020-05-15T19:40:20Z</time>
      </trkpt>
      <trkpt lat="45.42569" lon="2.74648">
        <ele>1036</ele>
        <time>2020-05-15T19:40:53Z</time>
      </trkpt>
      <trkpt lat="45.42565" lon="2.74606">
        <ele>1035</ele>
        <time>2020-05-15T19:41:03Z</time>
      </trkpt>
      <trkpt lat="45.42554" lon="2.74561">
        <ele>1034</ele>
        <time>2020-05-15T19:41:14Z</time>
      </trkpt>
      <trkpt lat="45.42544" lon="2.74529">
        <ele>1033</ele>
        <time>2020-05-15T19:41:22Z</time>
      </trkpt>
      <trkpt lat="45.42522" lon="2.74459">
        <ele>1031</ele>
        <time>2020-05-15T19:41:40Z</time>
      </trkpt>
      <trkpt lat="45.42515" lon="2.74442">
        <ele>1030</ele>
        <time>2020-05-15T19:41:45Z</time>
      </trkpt>
      <trkpt lat="45.42507" lon="2.74426">
        <ele>1030</ele>
        <time>2020-05-15T19:41:49Z</time>
      </trkpt>
      <trkpt lat="45.42485" lon="2.744">
        <ele>1029</ele>
        <time>2020-05-15T19:41:59Z</time>
      </trkpt>
      <trkpt lat="45.42281" lon="2.74214">
        <ele>1025</ele>
        <time>2020-05-15T19:43:20Z</time>
      </trkpt>
      <trkpt lat="45.42264" lon="2.74195">
        <ele>1025</ele>
        <time>2020-05-15T19:43:27Z</time>
      </trkpt>
      <trkpt lat="45.42244" lon="2.74166">
        <ele>1024</ele>
        <time>2020-05-15T19:43:36Z</time>
      </trkpt>
      <trkpt lat="45.42075" lon="2.73745">
        <ele>1016</ele>
        <time>2020-05-15T19:45:30Z</time>
      </trkpt>
      <trkpt lat="45.42069" lon="2.7373">
        <ele>1017</ele>
        <time>2020-05-15T19:45:34Z</time>
      </trkpt>
      <trkpt lat="45.41991" lon="2.73539">
        <ele>1019</ele>
        <time>2020-05-15T19:46:26Z</time>
      </trkpt>
      <trkpt lat="45.41977" lon="2.73411">
        <ele>1018</ele>
        <time>2020-05-15T19:46:56Z</time>
      </trkpt>
      <trkpt lat="45.41987" lon="2.73205">
        <ele>1016</ele>
        <time>2020-05-15T19:47:44Z</time>
      </trkpt>
      <trkpt lat="45.41981" lon="2.73173">
        <ele>1016</ele>
        <time>2020-05-15T19:47:52Z</time>
      </trkpt>
      <trkpt lat="45.4193" lon="2.73072">
        <ele>1014</ele>
        <time>2020-05-15T19:48:21Z</time>
      </trkpt>
      <trkpt lat="45.41914" lon="2.7303">
        <ele>1013</ele>
        <time>2020-05-15T19:48:32Z</time>
      </trkpt>
      <trkpt lat="45.4188" lon="2.72888">
        <ele>1012</ele>
        <time>2020-05-15T19:49:08Z</time>
      </trkpt>
      <trkpt lat="45.41881" lon="2.72855">
        <ele>1011</ele>
        <time>2020-05-15T19:49:15Z</time>
      </trkpt>
      <trkpt lat="45.41882" lon="2.72836">
        <ele>1011</ele>
        <time>2020-05-15T19:49:20Z</time>
      </trkpt>
      <trkpt lat="45.41882" lon="2.72827">
        <ele>1011</ele>
        <time>2020-05-15T19:49:22Z</time>
      </trkpt>
      <trkpt lat="45.41884" lon="2.7279">
        <ele>1011</ele>
        <time>2020-05-15T19:49:31Z</time>
      </trkpt>
      <trkpt lat="45.41885" lon="2.7278">
        <ele>1012</ele>
        <time>2020-05-15T19:49:33Z</time>
      </trkpt>
      <trkpt lat="45.41885" lon="2.72777">
        <ele>1012</ele>
        <time>2020-05-15T19:49:34Z</time>
      </trkpt>
      <trkpt lat="45.41888" lon="2.72732">
        <ele>1012</ele>
        <time>2020-05-15T19:49:44Z</time>
      </trkpt>
      <trkpt lat="45.41889" lon="2.7271">
        <ele>1012</ele>
        <time>2020-05-15T19:49:49Z</time>
      </trkpt>
      <trkpt lat="45.41891" lon="2.7268">
        <ele>1013</ele>
        <time>2020-05-15T19:49:56Z</time>
      </trkpt>
      <trkpt lat="45.41892" lon="2.72664">
        <ele>1013</ele>
        <time>2020-05-15T19:50:00Z</time>
      </trkpt>
      <trkpt lat="45.41893" lon="2.72646">
        <ele>1013</ele>
        <time>2020-05-15T19:50:04Z</time>
      </trkpt>
      <trkpt lat="45.41895" lon="2.72628">
        <ele>1014</ele>
        <time>2020-05-15T19:50:09Z</time>
      </trkpt>
      <trkpt lat="45.41892" lon="2.72591">
        <ele>1014</ele>
        <time>2020-05-15T19:50:17Z</time>
      </trkpt>
      <trkpt lat="45.41886" lon="2.72567">
        <ele>1014</ele>
        <time>2020-05-15T19:50:23Z</time>
      </trkpt>
      <trkpt lat="45.41892" lon="2.72539">
        <ele>1015</ele>
        <time>2020-05-15T19:50:30Z</time>
      </trkpt>
      <trkpt lat="45.41904" lon="2.72514">
        <ele>1016</ele>
        <time>2020-05-15T19:50:37Z</time>
      </trkpt>
      <trkpt lat="45.4194" lon="2.72476">
        <ele>1016</ele>
        <time>2020-05-15T19:50:52Z</time>
      </trkpt>
      <trkpt lat="45.41943" lon="2.72541">
        <ele>1016</ele>
        <time>2020-05-15T19:51:08Z</time>
      </trkpt>
      <trkpt lat="45.41952" lon="2.72581">
        <ele>1015</ele>
        <time>2020-05-15T19:51:17Z</time>
      </trkpt>
      <trkpt lat="45.41956" lon="2.72595">
        <ele>1015</ele>
        <time>2020-05-15T19:51:21Z</time>
      </trkpt>
      <trkpt lat="45.41952" lon="2.72581">
        <ele>1015</ele>
        <time>2020-05-15T19:51:24Z</time>
      </trkpt>
      <trkpt lat="45.41943" lon="2.72541">
        <ele>1016</ele>
        <time>2020-05-15T19:51:34Z</time>
      </trkpt>
      <trkpt lat="45.41941" lon="2.72507">
        <ele>1016</ele>
        <time>2020-05-15T19:51:42Z</time>
      </trkpt>
      <trkpt lat="45.4194" lon="2.72476">
        <ele>1016</ele>
        <time>2020-05-15T19:51:50Z</time>
      </trkpt>
      <trkpt lat="45.41949" lon="2.724">
        <ele>1015</ele>
        <time>2020-05-15T19:52:08Z</time>
      </trkpt>
      <trkpt lat="45.41942" lon="2.72393">
        <ele>1015</ele>
        <time>2020-05-15T19:52:10Z</time>
      </trkpt>
      <trkpt lat="45.41936" lon="2.72351">
        <ele>1013</ele>
        <time>2020-05-15T19:52:20Z</time>
      </trkpt>
      <trkpt lat="45.41927" lon="2.72327">
        <ele>1013</ele>
        <time>2020-05-15T19:52:27Z</time>
      </trkpt>
      <trkpt lat="45.41914" lon="2.72314">
        <ele>1013</ele>
        <time>2020-05-15T19:52:32Z</time>
      </trkpt>
      <trkpt lat="45.41885" lon="2.7231">
        <ele>1013</ele>
        <time>2020-05-15T19:52:42Z</time>
      </trkpt>
      <trkpt lat="45.41867" lon="2.72304">
        <ele>1014</ele>
        <time>2020-05-15T19:52:48Z</time>
      </trkpt>
      <trkpt lat="45.41854" lon="2.72309">
        <ele>1014</ele>
        <time>2020-05-15T19:52:53Z</time>
      </trkpt>
      <trkpt lat="45.41855" lon="2.72265">
        <ele>1013</ele>
        <time>2020-05-15T19:53:03Z</time>
      </trkpt>
      <trkpt lat="45.41855" lon="2.72248">
        <ele>1013</ele>
        <time>2020-05-15T19:53:07Z</time>
      </trkpt>
      <trkpt lat="45.41849" lon="2.72188">
        <ele>1010</ele>
        <time>2020-05-15T19:53:21Z</time>
      </trkpt>
      <trkpt lat="45.41843" lon="2.72168">
        <ele>1009</ele>
        <time>2020-05-15T19:53:26Z</time>
      </trkpt>
      <trkpt lat="45.41826" lon="2.72101">
        <ele>1008</ele>
        <time>2020-05-15T19:53:43Z</time>
      </trkpt>
      <trkpt lat="45.41822" lon="2.72062">
        <ele>1007</ele>
        <time>2020-05-15T19:53:52Z</time>
      </trkpt>
      <trkpt lat="45.41824" lon="2.72034">
        <ele>1007</ele>
        <time>2020-05-15T19:53:59Z</time>
      </trkpt>
      <trkpt lat="45.41832" lon="2.71972">
        <ele>1004</ele>
        <time>2020-05-15T19:54:13Z</time>
      </trkpt>
      <trkpt lat="45.41833" lon="2.71938">
        <ele>1002</ele>
        <time>2020-05-15T19:54:21Z</time>
      </trkpt>
      <trkpt lat="45.41831" lon="2.71926">
        <ele>1002</ele>
        <time>2020-05-15T19:54:24Z</time>
      </trkpt>
      <trkpt lat="45.41823" lon="2.71879">
        <ele>1000</ele>
        <time>2020-05-15T19:54:36Z</time>
      </trkpt>
      <trkpt lat="45.41814" lon="2.71859">
        <ele>999</ele>
        <time>2020-05-15T19:54:41Z</time>
      </trkpt>
      <trkpt lat="45.41802" lon="2.71842">
        <ele>999</ele>
        <time>2020-05-15T19:54:47Z</time>
      </trkpt>
      <trkpt lat="45.41763" lon="2.71802">
        <ele>999</ele>
        <time>2020-05-15T19:55:03Z</time>
      </trkpt>
      <trkpt lat="45.41744" lon="2.71775">
        <ele>998</ele>
        <time>2020-05-15T19:55:12Z</time>
      </trkpt>
      <trkpt lat="45.41721" lon="2.71733">
        <ele>998</ele>
        <time>2020-05-15T19:55:24Z</time>
      </trkpt>
      <trkpt lat="45.41711" lon="2.71717">
        <ele>998</ele>
        <time>2020-05-15T19:55:29Z</time>
      </trkpt>
      <trkpt lat="45.41625" lon="2.71568">
        <ele>994</ele>
        <time>2020-05-15T19:56:14Z</time>
      </trkpt>
      <trkpt lat="45.41622" lon="2.71552">
        <ele>993</ele>
        <time>2020-05-15T19:56:18Z</time>
      </trkpt>
      <trkpt lat="45.41622" lon="2.71534">
        <ele>993</ele>
        <time>2020-05-15T19:56:22Z</time>
      </trkpt>
      <trkpt lat="45.4163" lon="2.71512">
        <ele>992</ele>
        <time>2020-05-15T19:56:28Z</time>
      </trkpt>
      <trkpt lat="45.41683" lon="2.71436">
        <ele>992</ele>
        <time>2020-05-15T19:56:53Z</time>
      </trkpt>
      <trkpt lat="45.417" lon="2.71407">
        <ele>992</ele>
        <time>2020-05-15T19:57:02Z</time>
      </trkpt>
      <trkpt lat="45.41706" lon="2.71389">
        <ele>992</ele>
        <time>2020-05-15T19:57:07Z</time>
      </trkpt>
      <trkpt lat="45.4171" lon="2.71364">
        <ele>992</ele>
        <time>2020-05-15T19:57:13Z</time>
      </trkpt>
      <trkpt lat="45.41706" lon="2.7134">
        <ele>993</ele>
        <time>2020-05-15T19:57:19Z</time>
      </trkpt>
      <trkpt lat="45.4166" lon="2.71226">
        <ele>988</ele>
        <time>2020-05-15T19:57:49Z</time>
      </trkpt>
      <trkpt lat="45.41653" lon="2.71197">
        <ele>985</ele>
        <time>2020-05-15T19:57:57Z</time>
      </trkpt>
      <trkpt lat="45.41653" lon="2.71166">
        <ele>982</ele>
        <time>2020-05-15T19:58:04Z</time>
      </trkpt>
      <trkpt lat="45.41682" lon="2.70974">
        <ele>981</ele>
        <time>2020-05-15T19:58:50Z</time>
      </trkpt>
      <trkpt lat="45.41683" lon="2.70947">
        <ele>981</ele>
        <time>2020-05-15T19:58:56Z</time>
      </trkpt>
      <trkpt lat="45.41677" lon="2.70898">
        <ele>982</ele>
        <time>2020-05-15T19:59:08Z</time>
      </trkpt>
      <trkpt lat="45.41663" lon="2.70842">
        <ele>983</ele>
        <time>2020-05-15T19:59:22Z</time>
      </trkpt>
      <trkpt lat="45.4166" lon="2.70809">
        <ele>981</ele>
        <time>2020-05-15T19:59:30Z</time>
      </trkpt>
      <trkpt lat="45.41664" lon="2.70763">
        <ele>978</ele>
        <time>2020-05-15T19:59:40Z</time>
      </trkpt>
      <trkpt lat="45.41679" lon="2.70725">
        <ele>977</ele>
        <time>2020-05-15T19:59:51Z</time>
      </trkpt>
      <trkpt lat="45.41733" lon="2.70648">
        <ele>977</ele>
        <time>2020-05-15T20:00:16Z</time>
      </trkpt>
      <trkpt lat="45.41742" lon="2.70629">
        <ele>976</ele>
        <time>2020-05-15T20:00:22Z</time>
      </trkpt>
      <trkpt lat="45.41744" lon="2.70596">
        <ele>973</ele>
        <time>2020-05-15T20:00:29Z</time>
      </trkpt>
      <trkpt lat="45.41735" lon="2.70576">
        <ele>971</ele>
        <time>2020-05-15T20:00:35Z</time>
      </trkpt>
      <trkpt lat="45.41696" lon="2.70538">
        <ele>967</ele>
        <time>2020-05-15T20:00:51Z</time>
      </trkpt>
      <trkpt lat="45.41689" lon="2.70521">
        <ele>966</ele>
        <time>2020-05-15T20:00:55Z</time>
      </trkpt>
      <trkpt lat="45.4169" lon="2.705">
        <ele>964</ele>
        <time>2020-05-15T20:01:00Z</time>
      </trkpt>
      <trkpt lat="45.41706" lon="2.70462">
        <ele>962</ele>
        <time>2020-05-15T20:01:11Z</time>
      </trkpt>
      <trkpt lat="45.41711" lon="2.70439">
        <ele>961</ele>
        <time>2020-05-15T20:01:16Z</time>
      </trkpt>
      <trkpt lat="45.41709" lon="2.70413">
        <ele>960</ele>
        <time>2020-05-15T20:01:22Z</time>
      </trkpt>
      <trkpt lat="45.41693" lon="2.70351">
        <ele>956</ele>
        <time>2020-05-15T20:01:38Z</time>
      </trkpt>
      <trkpt lat="45.41677" lon="2.70319">
        <ele>954</ele>
        <time>2020-05-15T20:01:47Z</time>
      </trkpt>
      <trkpt lat="45.41658" lon="2.70294">
        <ele>952</ele>
        <time>2020-05-15T20:01:56Z</time>
      </trkpt>
      <trkpt lat="45.41644" lon="2.70279">
        <ele>951</ele>
        <time>2020-05-15T20:02:01Z</time>
      </trkpt>
      <trkpt lat="45.41626" lon="2.70272">
        <ele>951</ele>
        <time>2020-05-15T20:02:08Z</time>
      </trkpt>
      <trkpt lat="45.41596" lon="2.70269">
        <ele>952</ele>
        <time>2020-05-15T20:02:18Z</time>
      </trkpt>
      <trkpt lat="45.41585" lon="2.70259">
        <ele>952</ele>
        <time>2020-05-15T20:02:22Z</time>
      </trkpt>
      <trkpt lat="45.41582" lon="2.70249">
        <ele>951</ele>
        <time>2020-05-15T20:02:25Z</time>
      </trkpt>
      <trkpt lat="45.41582" lon="2.70231">
        <ele>950</ele>
        <time>2020-05-15T20:02:29Z</time>
      </trkpt>
      <trkpt lat="45.41591" lon="2.70217">
        <ele>949</ele>
        <time>2020-05-15T20:02:33Z</time>
      </trkpt>
      <trkpt lat="45.41635" lon="2.70173">
        <ele>945</ele>
        <time>2020-05-15T20:02:51Z</time>
      </trkpt>
      <trkpt lat="45.41645" lon="2.70155">
        <ele>945</ele>
        <time>2020-05-15T20:02:57Z</time>
      </trkpt>
      <trkpt lat="45.41648" lon="2.70138">
        <ele>945</ele>
        <time>2020-05-15T20:03:01Z</time>
      </trkpt>
      <trkpt lat="45.41648" lon="2.70122">
        <ele>946</ele>
        <time>2020-05-15T20:03:04Z</time>
      </trkpt>
      <trkpt lat="45.41645" lon="2.70102">
        <ele>947</ele>
        <time>2020-05-15T20:03:09Z</time>
      </trkpt>
      <trkpt lat="45.41638" lon="2.7008">
        <ele>947</ele>
        <time>2020-05-15T20:03:15Z</time>
      </trkpt>
      <trkpt lat="45.41581" lon="2.69966">
        <ele>949</ele>
        <time>2020-05-15T20:03:48Z</time>
      </trkpt>
      <trkpt lat="45.41568" lon="2.69948">
        <ele>949</ele>
        <time>2020-05-15T20:03:54Z</time>
      </trkpt>
      <trkpt lat="45.41523" lon="2.69907">
        <ele>950</ele>
        <time>2020-05-15T20:04:11Z</time>
      </trkpt>
      <trkpt lat="45.41506" lon="2.69887">
        <ele>950</ele>
        <time>2020-05-15T20:04:19Z</time>
      </trkpt>
      <trkpt lat="45.4147" lon="2.69827">
        <ele>951</ele>
        <time>2020-05-15T20:04:37Z</time>
      </trkpt>
      <trkpt lat="45.41463" lon="2.6981">
        <ele>951</ele>
        <time>2020-05-15T20:04:42Z</time>
      </trkpt>
      <trkpt lat="45.41462" lon="2.69793">
        <ele>952</ele>
        <time>2020-05-15T20:04:46Z</time>
      </trkpt>
      <trkpt lat="45.41467" lon="2.69781">
        <ele>953</ele>
        <time>2020-05-15T20:04:49Z</time>
      </trkpt>
      <trkpt lat="45.41483" lon="2.69754">
        <ele>953</ele>
        <time>2020-05-15T20:04:57Z</time>
      </trkpt>
      <trkpt lat="45.41487" lon="2.69732">
        <ele>953</ele>
        <time>2020-05-15T20:05:03Z</time>
      </trkpt>
      <trkpt lat="45.41482" lon="2.69712">
        <ele>953</ele>
        <time>2020-05-15T20:05:08Z</time>
      </trkpt>
      <trkpt lat="45.41475" lon="2.69701">
        <ele>954</ele>
        <time>2020-05-15T20:05:11Z</time>
      </trkpt>
      <trkpt lat="45.41461" lon="2.69689">
        <ele>955</ele>
        <time>2020-05-15T20:05:17Z</time>
      </trkpt>
      <trkpt lat="45.41424" lon="2.69676">
        <ele>957</ele>
        <time>2020-05-15T20:05:29Z</time>
      </trkpt>
      <trkpt lat="45.41396" lon="2.69659">
        <ele>959</ele>
        <time>2020-05-15T20:05:40Z</time>
      </trkpt>
      <trkpt lat="45.41386" lon="2.69642">
        <ele>960</ele>
        <time>2020-05-15T20:05:45Z</time>
      </trkpt>
      <trkpt lat="45.41383" lon="2.69625">
        <ele>960</ele>
        <time>2020-05-15T20:05:49Z</time>
      </trkpt>
      <trkpt lat="45.41386" lon="2.69603">
        <ele>961</ele>
        <time>2020-05-15T20:05:54Z</time>
      </trkpt>
      <trkpt lat="45.41394" lon="2.69591">
        <ele>961</ele>
        <time>2020-05-15T20:05:58Z</time>
      </trkpt>
      <trkpt lat="45.41405" lon="2.69582">
        <ele>960</ele>
        <time>2020-05-15T20:06:02Z</time>
      </trkpt>
      <trkpt lat="45.41457" lon="2.69561">
        <ele>956</ele>
        <time>2020-05-15T20:06:20Z</time>
      </trkpt>
      <trkpt lat="45.4153" lon="2.6954">
        <ele>950</ele>
        <time>2020-05-15T20:06:45Z</time>
      </trkpt>
      <trkpt lat="45.41561" lon="2.69543">
        <ele>948</ele>
        <time>2020-05-15T20:06:55Z</time>
      </trkpt>
      <trkpt lat="45.41578" lon="2.69539">
        <ele>947</ele>
        <time>2020-05-15T20:07:01Z</time>
      </trkpt>
      <trkpt lat="45.41609" lon="2.6952">
        <ele>946</ele>
        <time>2020-05-15T20:07:12Z</time>
      </trkpt>
      <trkpt lat="45.41625" lon="2.69502">
        <ele>946</ele>
        <time>2020-05-15T20:07:19Z</time>
      </trkpt>
      <trkpt lat="45.41629" lon="2.6949">
        <ele>946</ele>
        <time>2020-05-15T20:07:22Z</time>
      </trkpt>
      <trkpt lat="45.41629" lon="2.69479">
        <ele>946</ele>
        <time>2020-05-15T20:07:25Z</time>
      </trkpt>
      <trkpt lat="45.41626" lon="2.69467">
        <ele>946</ele>
        <time>2020-05-15T20:07:28Z</time>
      </trkpt>
      <trkpt lat="45.41591" lon="2.69392">
        <ele>948</ele>
        <time>2020-05-15T20:07:49Z</time>
      </trkpt>
      <trkpt lat="45.41459" lon="2.69256">
        <ele>955</ele>
        <time>2020-05-15T20:08:43Z</time>
      </trkpt>
      <trkpt lat="45.41406" lon="2.69215">
        <ele>955</ele>
        <time>2020-05-15T20:09:04Z</time>
      </trkpt>
      <trkpt lat="45.41367" lon="2.69192">
        <ele>954</ele>
        <time>2020-05-15T20:09:18Z</time>
      </trkpt>
      <trkpt lat="45.41352" lon="2.69178">
        <ele>953</ele>
        <time>2020-05-15T20:09:24Z</time>
      </trkpt>
      <trkpt lat="45.41341" lon="2.69165">
        <ele>951</ele>
        <time>2020-05-15T20:09:28Z</time>
      </trkpt>
      <trkpt lat="45.4133" lon="2.69143">
        <ele>951</ele>
        <time>2020-05-15T20:09:35Z</time>
      </trkpt>
      <trkpt lat="45.41311" lon="2.69092">
        <ele>949</ele>
        <time>2020-05-15T20:09:48Z</time>
      </trkpt>
      <trkpt lat="45.41289" lon="2.69046">
        <ele>949</ele>
        <time>2020-05-15T20:10:01Z</time>
      </trkpt>
      <trkpt lat="45.41264" lon="2.6901">
        <ele>947</ele>
        <time>2020-05-15T20:10:13Z</time>
      </trkpt>
      <trkpt lat="45.41186" lon="2.6896">
        <ele>940</ele>
        <time>2020-05-15T20:10:42Z</time>
      </trkpt>
      <trkpt lat="45.41157" lon="2.6895">
        <ele>937</ele>
        <time>2020-05-15T20:10:52Z</time>
      </trkpt>
      <trkpt lat="45.41139" lon="2.6893">
        <ele>936</ele>
        <time>2020-05-15T20:10:59Z</time>
      </trkpt>
      <trkpt lat="45.41105" lon="2.68882">
        <ele>935</ele>
        <time>2020-05-15T20:11:15Z</time>
      </trkpt>
      <trkpt lat="45.41083" lon="2.6886">
        <ele>934</ele>
        <time>2020-05-15T20:11:24Z</time>
      </trkpt>
      <trkpt lat="45.41034" lon="2.68825">
        <ele>928</ele>
        <time>2020-05-15T20:11:42Z</time>
      </trkpt>
      <trkpt lat="45.41003" lon="2.68787">
        <ele>923</ele>
        <time>2020-05-15T20:11:56Z</time>
      </trkpt>
      <trkpt lat="45.40956" lon="2.68711">
        <ele>918</ele>
        <time>2020-05-15T20:12:20Z</time>
      </trkpt>
      <trkpt lat="45.40944" lon="2.687">
        <ele>916</ele>
        <time>2020-05-15T20:12:25Z</time>
      </trkpt>
      <trkpt lat="45.40921" lon="2.68686">
        <ele>913</ele>
        <time>2020-05-15T20:12:33Z</time>
      </trkpt>
      <trkpt lat="45.40908" lon="2.68675">
        <ele>912</ele>
        <time>2020-05-15T20:12:38Z</time>
      </trkpt>
      <trkpt lat="45.40889" lon="2.68648">
        <ele>911</ele>
        <time>2020-05-15T20:12:47Z</time>
      </trkpt>
      <trkpt lat="45.40875" lon="2.68621">
        <ele>910</ele>
        <time>2020-05-15T20:12:55Z</time>
      </trkpt>
      <trkpt lat="45.40828" lon="2.68596">
        <ele>906</ele>
        <time>2020-05-15T20:13:11Z</time>
      </trkpt>
      <trkpt lat="45.40796" lon="2.68591">
        <ele>904</ele>
        <time>2020-05-15T20:13:22Z</time>
      </trkpt>
      <trkpt lat="45.40784" lon="2.68577">
        <ele>902</ele>
        <time>2020-05-15T20:13:27Z</time>
      </trkpt>
      <trkpt lat="45.40751" lon="2.68517">
        <ele>900</ele>
        <time>2020-05-15T20:13:45Z</time>
      </trkpt>
      <trkpt lat="45.40713" lon="2.68481">
        <ele>894</ele>
        <time>2020-05-15T20:14:00Z</time>
      </trkpt>
      <trkpt lat="45.40697" lon="2.68458">
        <ele>891</ele>
        <time>2020-05-15T20:14:08Z</time>
      </trkpt>
      <trkpt lat="45.40698" lon="2.68413">
        <ele>891</ele>
        <time>2020-05-15T20:14:19Z</time>
      </trkpt>
      <trkpt lat="45.40693" lon="2.68396">
        <ele>890</ele>
        <time>2020-05-15T20:14:23Z</time>
      </trkpt>
      <trkpt lat="45.40677" lon="2.68361">
        <ele>887</ele>
        <time>2020-05-15T20:14:33Z</time>
      </trkpt>
      <trkpt lat="45.40656" lon="2.68307">
        <ele>884</ele>
        <time>2020-05-15T20:14:47Z</time>
      </trkpt>
      <trkpt lat="45.40646" lon="2.68292">
        <ele>882</ele>
        <time>2020-05-15T20:14:52Z</time>
      </trkpt>
      <trkpt lat="45.40636" lon="2.68283">
        <ele>881</ele>
        <time>2020-05-15T20:14:56Z</time>
      </trkpt>
      <trkpt lat="45.40531" lon="2.68212">
        <ele>867</ele>
        <time>2020-05-15T20:15:35Z</time>
      </trkpt>
      <trkpt lat="45.40508" lon="2.68163">
        <ele>866</ele>
        <time>2020-05-15T20:15:49Z</time>
      </trkpt>
      <trkpt lat="45.40499" lon="2.68146">
        <ele>865</ele>
        <time>2020-05-15T20:15:54Z</time>
      </trkpt>
      <trkpt lat="45.40479" lon="2.68122">
        <ele>866</ele>
        <time>2020-05-15T20:16:02Z</time>
      </trkpt>
      <trkpt lat="45.40426" lon="2.68105">
        <ele>865</ele>
        <time>2020-05-15T20:16:20Z</time>
      </trkpt>
      <trkpt lat="45.40412" lon="2.68089">
        <ele>865</ele>
        <time>2020-05-15T20:16:26Z</time>
      </trkpt>
      <trkpt lat="45.40408" lon="2.68062">
        <ele>865</ele>
        <time>2020-05-15T20:16:33Z</time>
      </trkpt>
      <trkpt lat="45.40416" lon="2.68018">
        <ele>867</ele>
        <time>2020-05-15T20:16:43Z</time>
      </trkpt>
      <trkpt lat="45.40418" lon="2.67987">
        <ele>868</ele>
        <time>2020-05-15T20:16:51Z</time>
      </trkpt>
      <trkpt lat="45.40418" lon="2.6796">
        <ele>868</ele>
        <time>2020-05-15T20:16:57Z</time>
      </trkpt>
      <trkpt lat="45.40414" lon="2.67939">
        <ele>868</ele>
        <time>2020-05-15T20:17:02Z</time>
      </trkpt>
      <trkpt lat="45.40405" lon="2.67922">
        <ele>867</ele>
        <time>2020-05-15T20:17:07Z</time>
      </trkpt>
      <trkpt lat="45.4039" lon="2.679">
        <ele>867</ele>
        <time>2020-05-15T20:17:14Z</time>
      </trkpt>
      <trkpt lat="45.40295" lon="2.67807">
        <ele>867</ele>
        <time>2020-05-15T20:17:53Z</time>
      </trkpt>
      <trkpt lat="45.40281" lon="2.67802">
        <ele>867</ele>
        <time>2020-05-15T20:17:58Z</time>
      </trkpt>
      <trkpt lat="45.40268" lon="2.67806">
        <ele>866</ele>
        <time>2020-05-15T20:18:02Z</time>
      </trkpt>
      <trkpt lat="45.4024" lon="2.67828">
        <ele>864</ele>
        <time>2020-05-15T20:18:13Z</time>
      </trkpt>
      <trkpt lat="45.40225" lon="2.67831">
        <ele>864</ele>
        <time>2020-05-15T20:18:18Z</time>
      </trkpt>
      <trkpt lat="45.40193" lon="2.67826">
        <ele>864</ele>
        <time>2020-05-15T20:18:29Z</time>
      </trkpt>
      <trkpt lat="45.40175" lon="2.67816">
        <ele>865</ele>
        <time>2020-05-15T20:18:35Z</time>
      </trkpt>
      <trkpt lat="45.40164" lon="2.67799">
        <ele>866</ele>
        <time>2020-05-15T20:18:40Z</time>
      </trkpt>
      <trkpt lat="45.40139" lon="2.67739">
        <ele>869</ele>
        <time>2020-05-15T20:18:57Z</time>
      </trkpt>
      <trkpt lat="45.40121" lon="2.67686">
        <ele>870</ele>
        <time>2020-05-15T20:19:11Z</time>
      </trkpt>
      <trkpt lat="45.4012" lon="2.67628">
        <ele>870</ele>
        <time>2020-05-15T20:19:24Z</time>
      </trkpt>
      <trkpt lat="45.40122" lon="2.67604">
        <ele>869</ele>
        <time>2020-05-15T20:19:30Z</time>
      </trkpt>
      <trkpt lat="45.40105" lon="2.67556">
        <ele>868</ele>
        <time>2020-05-15T20:19:42Z</time>
      </trkpt>
      <trkpt lat="45.40101" lon="2.67538">
        <ele>866</ele>
        <time>2020-05-15T20:19:47Z</time>
      </trkpt>
      <trkpt lat="45.401" lon="2.67522">
        <ele>865</ele>
        <time>2020-05-15T20:19:51Z</time>
      </trkpt>
      <trkpt lat="45.40105" lon="2.67499">
        <ele>864</ele>
        <time>2020-05-15T20:19:56Z</time>
      </trkpt>
      <trkpt lat="45.40119" lon="2.67469">
        <ele>864</ele>
        <time>2020-05-15T20:20:05Z</time>
      </trkpt>
      <trkpt lat="45.40143" lon="2.67442">
        <ele>864</ele>
        <time>2020-05-15T20:20:15Z</time>
      </trkpt>
      <trkpt lat="45.40223" lon="2.67372">
        <ele>864</ele>
        <time>2020-05-15T20:20:46Z</time>
      </trkpt>
      <trkpt lat="45.40264" lon="2.67334">
        <ele>864</ele>
        <time>2020-05-15T20:21:02Z</time>
      </trkpt>
      <trkpt lat="45.40296" lon="2.6732">
        <ele>864</ele>
        <time>2020-05-15T20:21:14Z</time>
      </trkpt>
      <trkpt lat="45.4033" lon="2.67324">
        <ele>865</ele>
        <time>2020-05-15T20:21:25Z</time>
      </trkpt>
      <trkpt lat="45.40358" lon="2.67317">
        <ele>866</ele>
        <time>2020-05-15T20:21:35Z</time>
      </trkpt>
      <trkpt lat="45.4038" lon="2.67282">
        <ele>865</ele>
        <time>2020-05-15T20:21:46Z</time>
      </trkpt>
      <trkpt lat="45.40438" lon="2.6713">
        <ele>860</ele>
        <time>2020-05-15T20:22:26Z</time>
      </trkpt>
      <trkpt lat="45.4045" lon="2.67081">
        <ele>860</ele>
        <time>2020-05-15T20:22:38Z</time>
      </trkpt>
      <trkpt lat="45.40448" lon="2.66963">
        <ele>868</ele>
        <time>2020-05-15T20:23:06Z</time>
      </trkpt>
      <trkpt lat="45.40433" lon="2.66861">
        <ele>878</ele>
        <time>2020-05-15T20:23:30Z</time>
      </trkpt>
      <trkpt lat="45.40416" lon="2.66775">
        <ele>887</ele>
        <time>2020-05-15T20:23:51Z</time>
      </trkpt>
      <trkpt lat="45.40412" lon="2.66715">
        <ele>889</ele>
        <time>2020-05-15T20:24:05Z</time>
      </trkpt>
      <trkpt lat="45.40418" lon="2.66661">
        <ele>888</ele>
        <time>2020-05-15T20:24:18Z</time>
      </trkpt>
      <trkpt lat="45.40462" lon="2.66519">
        <ele>886</ele>
        <time>2020-05-15T20:24:54Z</time>
      </trkpt>
      <trkpt lat="45.40467" lon="2.66471">
        <ele>883</ele>
        <time>2020-05-15T20:25:06Z</time>
      </trkpt>
      <trkpt lat="45.40451" lon="2.66278">
        <ele>869</ele>
        <time>2020-05-15T20:25:51Z</time>
      </trkpt>
      <trkpt lat="45.40451" lon="2.66223">
        <ele>868</ele>
        <time>2020-05-15T20:26:04Z</time>
      </trkpt>
      <trkpt lat="45.40459" lon="2.66172">
        <ele>870</ele>
        <time>2020-05-15T20:26:16Z</time>
      </trkpt>
      <trkpt lat="45.40454" lon="2.66103">
        <ele>870</ele>
        <time>2020-05-15T20:26:33Z</time>
      </trkpt>
      <trkpt lat="45.40454" lon="2.66062">
        <ele>869</ele>
        <time>2020-05-15T20:26:42Z</time>
      </trkpt>
      <trkpt lat="45.40461" lon="2.66016">
        <ele>868</ele>
        <time>2020-05-15T20:26:53Z</time>
      </trkpt>
      <trkpt lat="45.4047" lon="2.65984">
        <ele>867</ele>
        <time>2020-05-15T20:27:01Z</time>
      </trkpt>
      <trkpt lat="45.40494" lon="2.6594">
        <ele>866</ele>
        <time>2020-05-15T20:27:14Z</time>
      </trkpt>
      <trkpt lat="45.40503" lon="2.65916">
        <ele>864</ele>
        <time>2020-05-15T20:27:21Z</time>
      </trkpt>
      <trkpt lat="45.40506" lon="2.65889">
        <ele>862</ele>
        <time>2020-05-15T20:27:27Z</time>
      </trkpt>
      <trkpt lat="45.40484" lon="2.65795">
        <ele>854</ele>
        <time>2020-05-15T20:27:50Z</time>
      </trkpt>
      <trkpt lat="45.40488" lon="2.65705">
        <ele>851</ele>
        <time>2020-05-15T20:28:12Z</time>
      </trkpt>
      <trkpt lat="45.40488" lon="2.6566">
        <ele>850</ele>
        <time>2020-05-15T20:28:22Z</time>
      </trkpt>
      <trkpt lat="45.40468" lon="2.65559">
        <ele>854</ele>
        <time>2020-05-15T20:28:47Z</time>
      </trkpt>
      <trkpt lat="45.40456" lon="2.65506">
        <ele>853</ele>
        <time>2020-05-15T20:29:00Z</time>
      </trkpt>
      <trkpt lat="45.40451" lon="2.6549">
        <ele>852</ele>
        <time>2020-05-15T20:29:04Z</time>
      </trkpt>
      <trkpt lat="45.40443" lon="2.65477">
        <ele>852</ele>
        <time>2020-05-15T20:29:08Z</time>
      </trkpt>
      <trkpt lat="45.40432" lon="2.65466">
        <ele>852</ele>
        <time>2020-05-15T20:29:12Z</time>
      </trkpt>
      <trkpt lat="45.40368" lon="2.65455">
        <ele>855</ele>
        <time>2020-05-15T20:29:34Z</time>
      </trkpt>
      <trkpt lat="45.40349" lon="2.65449">
        <ele>856</ele>
        <time>2020-05-15T20:29:40Z</time>
      </trkpt>
      <trkpt lat="45.40248" lon="2.65382">
        <ele>857</ele>
        <time>2020-05-15T20:30:18Z</time>
      </trkpt>
      <trkpt lat="45.40167" lon="2.65333">
        <ele>863</ele>
        <time>2020-05-15T20:30:47Z</time>
      </trkpt>
      <trkpt lat="45.40152" lon="2.65318">
        <ele>862</ele>
        <time>2020-05-15T20:30:53Z</time>
      </trkpt>
      <trkpt lat="45.40133" lon="2.65289">
        <ele>861</ele>
        <time>2020-05-15T20:31:02Z</time>
      </trkpt>
      <trkpt lat="45.40119" lon="2.6526">
        <ele>860</ele>
        <time>2020-05-15T20:31:11Z</time>
      </trkpt>
      <trkpt lat="45.40112" lon="2.6524">
        <ele>859</ele>
        <time>2020-05-15T20:31:16Z</time>
      </trkpt>
      <trkpt lat="45.40109" lon="2.65219">
        <ele>858</ele>
        <time>2020-05-15T20:31:21Z</time>
      </trkpt>
      <trkpt lat="45.40109" lon="2.65143">
        <ele>855</ele>
        <time>2020-05-15T20:31:39Z</time>
      </trkpt>
      <trkpt lat="45.40105" lon="2.65124">
        <ele>854</ele>
        <time>2020-05-15T20:31:43Z</time>
      </trkpt>
      <trkpt lat="45.40093" lon="2.65101">
        <ele>851</ele>
        <time>2020-05-15T20:31:50Z</time>
      </trkpt>
      <trkpt lat="45.40072" lon="2.65067">
        <ele>849</ele>
        <time>2020-05-15T20:32:01Z</time>
      </trkpt>
      <trkpt lat="45.4005" lon="2.65045">
        <ele>849</ele>
        <time>2020-05-15T20:32:10Z</time>
      </trkpt>
      <trkpt lat="45.39967" lon="2.64987">
        <ele>852</ele>
        <time>2020-05-15T20:32:40Z</time>
      </trkpt>
      <trkpt lat="45.39962" lon="2.64982">
        <ele>852</ele>
        <time>2020-05-15T20:32:42Z</time>
      </trkpt>
      <trkpt lat="45.39952" lon="2.64966">
        <ele>852</ele>
        <time>2020-05-15T20:32:47Z</time>
      </trkpt>
      <trkpt lat="45.39919" lon="2.64845">
        <ele>851</ele>
        <time>2020-05-15T20:33:18Z</time>
      </trkpt>
      <trkpt lat="45.39911" lon="2.64821">
        <ele>851</ele>
        <time>2020-05-15T20:33:24Z</time>
      </trkpt>
      <trkpt lat="45.39902" lon="2.64803">
        <ele>851</ele>
        <time>2020-05-15T20:33:29Z</time>
      </trkpt>
      <trkpt lat="45.39852" lon="2.64753">
        <ele>850</ele>
        <time>2020-05-15T20:33:50Z</time>
      </trkpt>
      <trkpt lat="45.39842" lon="2.64736">
        <ele>850</ele>
        <time>2020-05-15T20:33:55Z</time>
      </trkpt>
      <trkpt lat="45.39836" lon="2.64721">
        <ele>850</ele>
        <time>2020-05-15T20:33:59Z</time>
      </trkpt>
      <trkpt lat="45.39831" lon="2.64695">
        <ele>850</ele>
        <time>2020-05-15T20:34:05Z</time>
      </trkpt>
      <trkpt lat="45.39831" lon="2.64664">
        <ele>851</ele>
        <time>2020-05-15T20:34:12Z</time>
      </trkpt>
      <trkpt lat="45.39834" lon="2.64624">
        <ele>851</ele>
        <time>2020-05-15T20:34:22Z</time>
      </trkpt>
      <trkpt lat="45.39834" lon="2.64595">
        <ele>850</ele>
        <time>2020-05-15T20:34:29Z</time>
      </trkpt>
      <trkpt lat="45.39786" lon="2.64308">
        <ele>846</ele>
        <time>2020-05-15T20:35:38Z</time>
      </trkpt>
      <trkpt lat="45.39771" lon="2.64267">
        <ele>848</ele>
        <time>2020-05-15T20:35:49Z</time>
      </trkpt>
      <trkpt lat="45.39752" lon="2.64246">
        <ele>848</ele>
        <time>2020-05-15T20:35:57Z</time>
      </trkpt>
      <trkpt lat="45.39657" lon="2.64185">
        <ele>842</ele>
        <time>2020-05-15T20:36:31Z</time>
      </trkpt>
      <trkpt lat="45.39638" lon="2.64155">
        <ele>841</ele>
        <time>2020-05-15T20:36:41Z</time>
      </trkpt>
      <trkpt lat="45.39588" lon="2.63948">
        <ele>834</ele>
        <time>2020-05-15T20:37:32Z</time>
      </trkpt>
      <trkpt lat="45.39585" lon="2.63929">
        <ele>833</ele>
        <time>2020-05-15T20:37:37Z</time>
      </trkpt>
      <trkpt lat="45.39584" lon="2.63908">
        <ele>833</ele>
        <time>2020-05-15T20:37:42Z</time>
      </trkpt>
      <trkpt lat="45.39592" lon="2.63874">
        <ele>835</ele>
        <time>2020-05-15T20:37:50Z</time>
      </trkpt>
      <trkpt lat="45.39605" lon="2.63845">
        <ele>835</ele>
        <time>2020-05-15T20:37:58Z</time>
      </trkpt>
      <trkpt lat="45.39625" lon="2.63814">
        <ele>833</ele>
        <time>2020-05-15T20:38:08Z</time>
      </trkpt>
      <trkpt lat="45.39637" lon="2.63791">
        <ele>832</ele>
        <time>2020-05-15T20:38:15Z</time>
      </trkpt>
      <trkpt lat="45.39643" lon="2.63763">
        <ele>832</ele>
        <time>2020-05-15T20:38:22Z</time>
      </trkpt>
      <trkpt lat="45.39643" lon="2.63732">
        <ele>833</ele>
        <time>2020-05-15T20:38:29Z</time>
      </trkpt>
      <trkpt lat="45.39636" lon="2.63666">
        <ele>835</ele>
        <time>2020-05-15T20:38:44Z</time>
      </trkpt>
      <trkpt lat="45.39638" lon="2.63627">
        <ele>835</ele>
        <time>2020-05-15T20:38:54Z</time>
      </trkpt>
      <trkpt lat="45.39646" lon="2.6351">
        <ele>835</ele>
        <time>2020-05-15T20:39:21Z</time>
      </trkpt>
      <trkpt lat="45.39644" lon="2.63487">
        <ele>835</ele>
        <time>2020-05-15T20:39:27Z</time>
      </trkpt>
      <trkpt lat="45.39632" lon="2.63445">
        <ele>834</ele>
        <time>2020-05-15T20:39:37Z</time>
      </trkpt>
      <trkpt lat="45.39607" lon="2.63412">
        <ele>830</ele>
        <time>2020-05-15T20:39:49Z</time>
      </trkpt>
      <trkpt lat="45.39501" lon="2.63359">
        <ele>826</ele>
        <time>2020-05-15T20:40:26Z</time>
      </trkpt>
      <trkpt lat="45.39412" lon="2.6326">
        <ele>821</ele>
        <time>2020-05-15T20:41:04Z</time>
      </trkpt>
      <trkpt lat="45.39401" lon="2.6323">
        <ele>819</ele>
        <time>2020-05-15T20:41:12Z</time>
      </trkpt>
      <trkpt lat="45.39397" lon="2.63193">
        <ele>818</ele>
        <time>2020-05-15T20:41:20Z</time>
      </trkpt>
      <trkpt lat="45.39401" lon="2.63163">
        <ele>817</ele>
        <time>2020-05-15T20:41:28Z</time>
      </trkpt>
      <trkpt lat="45.39414" lon="2.63134">
        <ele>818</ele>
        <time>2020-05-15T20:41:36Z</time>
      </trkpt>
      <trkpt lat="45.39451" lon="2.63086">
        <ele>816</ele>
        <time>2020-05-15T20:41:52Z</time>
      </trkpt>
      <trkpt lat="45.39505" lon="2.63019">
        <ele>808</ele>
        <time>2020-05-15T20:42:16Z</time>
      </trkpt>
      <trkpt lat="45.39518" lon="2.62989">
        <ele>807</ele>
        <time>2020-05-15T20:42:24Z</time>
      </trkpt>
      <trkpt lat="45.39525" lon="2.62952">
        <ele>805</ele>
        <time>2020-05-15T20:42:33Z</time>
      </trkpt>
      <trkpt lat="45.39524" lon="2.62918">
        <ele>803</ele>
        <time>2020-05-15T20:42:41Z</time>
      </trkpt>
      <trkpt lat="45.39494" lon="2.62757">
        <ele>800</ele>
        <time>2020-05-15T20:43:20Z</time>
      </trkpt>
      <trkpt lat="45.39491" lon="2.62724">
        <ele>798</ele>
        <time>2020-05-15T20:43:28Z</time>
      </trkpt>
      <trkpt lat="45.39495" lon="2.62686">
        <ele>795</ele>
        <time>2020-05-15T20:43:37Z</time>
      </trkpt>
      <trkpt lat="45.39521" lon="2.62544">
        <ele>788</ele>
        <time>2020-05-15T20:44:12Z</time>
      </trkpt>
      <trkpt lat="45.39555" lon="2.62381">
        <ele>783</ele>
        <time>2020-05-15T20:44:51Z</time>
      </trkpt>
      <trkpt lat="45.39574" lon="2.62326">
        <ele>783</ele>
        <time>2020-05-15T20:45:06Z</time>
      </trkpt>
      <trkpt lat="45.39617" lon="2.62165">
        <ele>778</ele>
        <time>2020-05-15T20:45:46Z</time>
      </trkpt>
      <trkpt lat="45.39649" lon="2.62056">
        <ele>779</ele>
        <time>2020-05-15T20:46:14Z</time>
      </trkpt>
      <trkpt lat="45.39669" lon="2.61995">
        <ele>779</ele>
        <time>2020-05-15T20:46:30Z</time>
      </trkpt>
      <trkpt lat="45.39758" lon="2.61632">
        <ele>781</ele>
        <time>2020-05-15T20:48:00Z</time>
      </trkpt>
      <trkpt lat="45.39761" lon="2.61596">
        <ele>781</ele>
        <time>2020-05-15T20:48:08Z</time>
      </trkpt>
      <trkpt lat="45.39765" lon="2.61519">
        <ele>776</ele>
        <time>2020-05-15T20:48:26Z</time>
      </trkpt>
      <trkpt lat="45.3977" lon="2.6149">
        <ele>775</ele>
        <time>2020-05-15T20:48:33Z</time>
      </trkpt>
      <trkpt lat="45.39777" lon="2.61466">
        <ele>775</ele>
        <time>2020-05-15T20:48:39Z</time>
      </trkpt>
      <trkpt lat="45.39786" lon="2.61444">
        <ele>774</ele>
        <time>2020-05-15T20:48:45Z</time>
      </trkpt>
      <trkpt lat="45.39848" lon="2.61339">
        <ele>769</ele>
        <time>2020-05-15T20:49:17Z</time>
      </trkpt>
      <trkpt lat="45.39857" lon="2.61319">
        <ele>768</ele>
        <time>2020-05-15T20:49:23Z</time>
      </trkpt>
      <trkpt lat="45.39866" lon="2.61291">
        <ele>766</ele>
        <time>2020-05-15T20:49:30Z</time>
      </trkpt>
      <trkpt lat="45.39957" lon="2.60921">
        <ele>750</ele>
        <time>2020-05-15T20:51:02Z</time>
      </trkpt>
      <trkpt lat="45.39986" lon="2.60829">
        <ele>754</ele>
        <time>2020-05-15T20:51:26Z</time>
      </trkpt>
      <trkpt lat="45.40002" lon="2.60785">
        <ele>755</ele>
        <time>2020-05-15T20:51:37Z</time>
      </trkpt>
      <trkpt lat="45.40011" lon="2.60746">
        <ele>757</ele>
        <time>2020-05-15T20:51:47Z</time>
      </trkpt>
      <trkpt lat="45.40013" lon="2.60716">
        <ele>757</ele>
        <time>2020-05-15T20:51:54Z</time>
      </trkpt>
      <trkpt lat="45.40009" lon="2.60685">
        <ele>758</ele>
        <time>2020-05-15T20:52:01Z</time>
      </trkpt>
      <trkpt lat="45.3997" lon="2.6057">
        <ele>762</ele>
        <time>2020-05-15T20:52:31Z</time>
      </trkpt>
      <trkpt lat="45.39939" lon="2.60492">
        <ele>765</ele>
        <time>2020-05-15T20:52:52Z</time>
      </trkpt>
      <trkpt lat="45.39928" lon="2.60451">
        <ele>765</ele>
        <time>2020-05-15T20:53:03Z</time>
      </trkpt>
      <trkpt lat="45.39929" lon="2.60318">
        <ele>765</ele>
        <time>2020-05-15T20:53:34Z</time>
      </trkpt>
      <trkpt lat="45.39926" lon="2.60283">
        <ele>764</ele>
        <time>2020-05-15T20:53:42Z</time>
      </trkpt>
      <trkpt lat="45.39888" lon="2.59997">
        <ele>766</ele>
        <time>2020-05-15T20:54:50Z</time>
      </trkpt>
      <trkpt lat="45.39845" lon="2.59845">
        <ele>766</ele>
        <time>2020-05-15T20:55:29Z</time>
      </trkpt>
      <trkpt lat="45.39833" lon="2.59792">
        <ele>766</ele>
        <time>2020-05-15T20:55:42Z</time>
      </trkpt>
      <trkpt lat="45.39839" lon="2.59638">
        <ele>760</ele>
        <time>2020-05-15T20:56:18Z</time>
      </trkpt>
      <trkpt lat="45.39824" lon="2.59594">
        <ele>758</ele>
        <time>2020-05-15T20:56:29Z</time>
      </trkpt>
      <trkpt lat="45.39808" lon="2.59566">
        <ele>754</ele>
        <time>2020-05-15T20:56:38Z</time>
      </trkpt>
      <trkpt lat="45.39796" lon="2.5955">
        <ele>752</ele>
        <time>2020-05-15T20:56:43Z</time>
      </trkpt>
      <trkpt lat="45.39776" lon="2.59536">
        <ele>748</ele>
        <time>2020-05-15T20:56:51Z</time>
      </trkpt>
      <trkpt lat="45.39722" lon="2.59506">
        <ele>739</ele>
        <time>2020-05-15T20:57:10Z</time>
      </trkpt>
      <trkpt lat="45.39701" lon="2.59489">
        <ele>737</ele>
        <time>2020-05-15T20:57:18Z</time>
      </trkpt>
      <trkpt lat="45.39678" lon="2.59451">
        <ele>737</ele>
        <time>2020-05-15T20:57:30Z</time>
      </trkpt>
      <trkpt lat="45.39625" lon="2.59312">
        <ele>736</ele>
        <time>2020-05-15T20:58:07Z</time>
      </trkpt>
      <trkpt lat="45.39607" lon="2.59277">
        <ele>730</ele>
        <time>2020-05-15T20:58:17Z</time>
      </trkpt>
      <trkpt lat="45.39579" lon="2.5924">
        <ele>724</ele>
        <time>2020-05-15T20:58:30Z</time>
      </trkpt>
      <trkpt lat="45.39551" lon="2.59213">
        <ele>723</ele>
        <time>2020-05-15T20:58:41Z</time>
      </trkpt>
      <trkpt lat="45.39475" lon="2.59165">
        <ele>726</ele>
        <time>2020-05-15T20:59:09Z</time>
      </trkpt>
      <trkpt lat="45.39446" lon="2.59091">
        <ele>723</ele>
        <time>2020-05-15T20:59:29Z</time>
      </trkpt>
      <trkpt lat="45.39438" lon="2.59023">
        <ele>719</ele>
        <time>2020-05-15T20:59:45Z</time>
      </trkpt>
      <trkpt lat="45.39473" lon="2.58909">
        <ele>700</ele>
        <time>2020-05-15T21:00:14Z</time>
      </trkpt>
      <trkpt lat="45.39462" lon="2.58858">
        <ele>697</ele>
        <time>2020-05-15T21:00:26Z</time>
      </trkpt>
      <trkpt lat="45.39447" lon="2.58842">
        <ele>699</ele>
        <time>2020-05-15T21:00:33Z</time>
      </trkpt>
      <trkpt lat="45.39355" lon="2.58782">
        <ele>705</ele>
        <time>2020-05-15T21:01:06Z</time>
      </trkpt>
      <trkpt lat="45.3935" lon="2.58765">
        <ele>704</ele>
        <time>2020-05-15T21:01:11Z</time>
      </trkpt>
      <trkpt lat="45.39361" lon="2.5875">
        <ele>699</ele>
        <time>2020-05-15T21:01:16Z</time>
      </trkpt>
      <trkpt lat="45.39419" lon="2.58775">
        <ele>691</ele>
        <time>2020-05-15T21:01:36Z</time>
      </trkpt>
      <trkpt lat="45.39489" lon="2.58822">
        <ele>686</ele>
        <time>2020-05-15T21:02:02Z</time>
      </trkpt>
      <trkpt lat="45.39533" lon="2.58879">
        <ele>679</ele>
        <time>2020-05-15T21:02:22Z</time>
      </trkpt>
      <trkpt lat="45.3954" lon="2.58909">
        <ele>679</ele>
        <time>2020-05-15T21:02:29Z</time>
      </trkpt>
      <trkpt lat="45.39544" lon="2.58968">
        <ele>678</ele>
        <time>2020-05-15T21:02:43Z</time>
      </trkpt>
      <trkpt lat="45.39546" lon="2.59027">
        <ele>680</ele>
        <time>2020-05-15T21:02:57Z</time>
      </trkpt>
      <trkpt lat="45.39553" lon="2.59045">
        <ele>681</ele>
        <time>2020-05-15T21:03:02Z</time>
      </trkpt>
      <trkpt lat="45.39563" lon="2.59059">
        <ele>681</ele>
        <time>2020-05-15T21:03:06Z</time>
      </trkpt>
      <trkpt lat="45.39577" lon="2.59062">
        <ele>678</ele>
        <time>2020-05-15T21:03:11Z</time>
      </trkpt>
      <trkpt lat="45.39594" lon="2.59055">
        <ele>679</ele>
        <time>2020-05-15T21:03:17Z</time>
      </trkpt>
      <trkpt lat="45.39603" lon="2.59045">
        <ele>680</ele>
        <time>2020-05-15T21:03:21Z</time>
      </trkpt>
      <trkpt lat="45.39608" lon="2.59028">
        <ele>679</ele>
        <time>2020-05-15T21:03:25Z</time>
      </trkpt>
      <trkpt lat="45.39612" lon="2.58901">
        <ele>671</ele>
        <time>2020-05-15T21:03:55Z</time>
      </trkpt>
      <trkpt lat="45.3963" lon="2.58811">
        <ele>665</ele>
        <time>2020-05-15T21:04:17Z</time>
      </trkpt>
      <trkpt lat="45.39635" lon="2.58679">
        <ele>653</ele>
        <time>2020-05-15T21:04:48Z</time>
      </trkpt>
      <trkpt lat="45.39629" lon="2.58654">
        <ele>652</ele>
        <time>2020-05-15T21:04:54Z</time>
      </trkpt>
      <trkpt lat="45.39614" lon="2.58614">
        <ele>650</ele>
        <time>2020-05-15T21:05:04Z</time>
      </trkpt>
      <trkpt lat="45.3955" lon="2.58518">
        <ele>645</ele>
        <time>2020-05-15T21:05:35Z</time>
      </trkpt>
      <trkpt lat="45.39528" lon="2.58416">
        <ele>646</ele>
        <time>2020-05-15T21:06:00Z</time>
      </trkpt>
      <trkpt lat="45.39517" lon="2.58382">
        <ele>643</ele>
        <time>2020-05-15T21:06:09Z</time>
      </trkpt>
      <trkpt lat="45.39481" lon="2.58291">
        <ele>630</ele>
        <time>2020-05-15T21:06:34Z</time>
      </trkpt>
      <trkpt lat="45.39479" lon="2.58252">
        <ele>626</ele>
        <time>2020-05-15T21:06:43Z</time>
      </trkpt>
      <trkpt lat="45.39488" lon="2.58212">
        <ele>620</ele>
        <time>2020-05-15T21:06:53Z</time>
      </trkpt>
      <trkpt lat="45.39503" lon="2.58184">
        <ele>618</ele>
        <time>2020-05-15T21:07:01Z</time>
      </trkpt>
      <trkpt lat="45.3953" lon="2.58143">
        <ele>629</ele>
        <time>2020-05-15T21:07:14Z</time>
      </trkpt>
      <trkpt lat="45.39533" lon="2.58121">
        <ele>631</ele>
        <time>2020-05-15T21:07:19Z</time>
      </trkpt>
      <trkpt lat="45.3953" lon="2.58104">
        <ele>629</ele>
        <time>2020-05-15T21:07:24Z</time>
      </trkpt>
      <trkpt lat="45.39522" lon="2.58083">
        <ele>626</ele>
        <time>2020-05-15T21:07:29Z</time>
      </trkpt>
      <trkpt lat="45.39496" lon="2.58064">
        <ele>615</ele>
        <time>2020-05-15T21:07:39Z</time>
      </trkpt>
      <trkpt lat="45.39482" lon="2.5805">
        <ele>611</ele>
        <time>2020-05-15T21:07:45Z</time>
      </trkpt>
      <trkpt lat="45.39476" lon="2.58033">
        <ele>610</ele>
        <time>2020-05-15T21:07:49Z</time>
      </trkpt>
      <trkpt lat="45.39477" lon="2.57994">
        <ele>613</ele>
        <time>2020-05-15T21:07:58Z</time>
      </trkpt>
      <trkpt lat="45.39482" lon="2.57954">
        <ele>611</ele>
        <time>2020-05-15T21:08:08Z</time>
      </trkpt>
      <trkpt lat="45.39493" lon="2.57895">
        <ele>607</ele>
        <time>2020-05-15T21:08:22Z</time>
      </trkpt>
      <trkpt lat="45.39517" lon="2.57824">
        <ele>603</ele>
        <time>2020-05-15T21:08:40Z</time>
      </trkpt>
      <trkpt lat="45.39541" lon="2.57765">
        <ele>597</ele>
        <time>2020-05-15T21:08:56Z</time>
      </trkpt>
      <trkpt lat="45.39568" lon="2.57722">
        <ele>595</ele>
        <time>2020-05-15T21:09:10Z</time>
      </trkpt>
      <trkpt lat="45.39621" lon="2.57651">
        <ele>594</ele>
        <time>2020-05-15T21:09:34Z</time>
      </trkpt>
      <trkpt lat="45.39641" lon="2.57616">
        <ele>592</ele>
        <time>2020-05-15T21:09:45Z</time>
      </trkpt>
      <trkpt lat="45.39675" lon="2.57542">
        <ele>582</ele>
        <time>2020-05-15T21:10:05Z</time>
      </trkpt>
      <trkpt lat="45.39721" lon="2.57497">
        <ele>591</ele>
        <time>2020-05-15T21:10:24Z</time>
      </trkpt>
      <trkpt lat="45.39728" lon="2.57482">
        <ele>593</ele>
        <time>2020-05-15T21:10:28Z</time>
      </trkpt>
      <trkpt lat="45.3973" lon="2.57463">
        <ele>592</ele>
        <time>2020-05-15T21:10:33Z</time>
      </trkpt>
      <trkpt lat="45.39713" lon="2.57399">
        <ele>577</ele>
        <time>2020-05-15T21:10:49Z</time>
      </trkpt>
      <trkpt lat="45.39716" lon="2.57357">
        <ele>575</ele>
        <time>2020-05-15T21:10:59Z</time>
      </trkpt>
      <trkpt lat="45.39734" lon="2.57292">
        <ele>575</ele>
        <time>2020-05-15T21:11:15Z</time>
      </trkpt>
      <trkpt lat="45.39742" lon="2.57241">
        <ele>571</ele>
        <time>2020-05-15T21:11:27Z</time>
      </trkpt>
      <trkpt lat="45.39746" lon="2.57141">
        <ele>559</ele>
        <time>2020-05-15T21:11:51Z</time>
      </trkpt>
      <trkpt lat="45.39761" lon="2.57093">
        <ele>559</ele>
        <time>2020-05-15T21:12:03Z</time>
      </trkpt>
      <trkpt lat="45.39816" lon="2.56956">
        <ele>553</ele>
        <time>2020-05-15T21:12:40Z</time>
      </trkpt>
      <trkpt lat="45.39871" lon="2.56888">
        <ele>554</ele>
        <time>2020-05-15T21:13:04Z</time>
      </trkpt>
      <trkpt lat="45.39914" lon="2.56806">
        <ele>544</ele>
        <time>2020-05-15T21:13:28Z</time>
      </trkpt>
      <trkpt lat="45.39937" lon="2.56769">
        <ele>543</ele>
        <time>2020-05-15T21:13:40Z</time>
      </trkpt>
      <trkpt lat="45.39973" lon="2.56727">
        <ele>545</ele>
        <time>2020-05-15T21:13:55Z</time>
      </trkpt>
      <trkpt lat="45.39981" lon="2.56715">
        <ele>544</ele>
        <time>2020-05-15T21:13:59Z</time>
      </trkpt>
      <trkpt lat="45.39994" lon="2.5669">
        <ele>542</ele>
        <time>2020-05-15T21:14:07Z</time>
      </trkpt>
      <trkpt lat="45.40008" lon="2.56651">
        <ele>541</ele>
        <time>2020-05-15T21:14:17Z</time>
      </trkpt>
      <trkpt lat="45.40013" lon="2.56611">
        <ele>539</ele>
        <time>2020-05-15T21:14:26Z</time>
      </trkpt>
      <trkpt lat="45.40012" lon="2.56497">
        <ele>533</ele>
        <time>2020-05-15T21:14:53Z</time>
      </trkpt>
      <trkpt lat="45.40006" lon="2.56444">
        <ele>531</ele>
        <time>2020-05-15T21:15:06Z</time>
      </trkpt>
      <trkpt lat="45.39997" lon="2.5639">
        <ele>528</ele>
        <time>2020-05-15T21:15:19Z</time>
      </trkpt>
      <trkpt lat="45.39974" lon="2.56304">
        <ele>522</ele>
        <time>2020-05-15T21:15:40Z</time>
      </trkpt>
      <trkpt lat="45.39965" lon="2.5629">
        <ele>520</ele>
        <time>2020-05-15T21:15:45Z</time>
      </trkpt>
      <trkpt lat="45.39955" lon="2.56252">
        <ele>517</ele>
        <time>2020-05-15T21:15:54Z</time>
      </trkpt>
      <trkpt lat="45.39938" lon="2.56215">
        <ele>512</ele>
        <time>2020-05-15T21:16:05Z</time>
      </trkpt>
      <trkpt lat="45.39927" lon="2.56203">
        <ele>510</ele>
        <time>2020-05-15T21:16:09Z</time>
      </trkpt>
      <trkpt lat="45.39915" lon="2.56196">
        <ele>507</ele>
        <time>2020-05-15T21:16:14Z</time>
      </trkpt>
      <trkpt lat="45.39813" lon="2.56166">
        <ele>501</ele>
        <time>2020-05-15T21:16:48Z</time>
      </trkpt>
      <trkpt lat="45.39797" lon="2.56145">
        <ele>501</ele>
        <time>2020-05-15T21:16:56Z</time>
      </trkpt>
    </trkseg>
  </trk>
</gpx>